[[{"header":{"parameterUnit":"m.s-1","parameterCategory":1,"la1":31.0,"la2":29.5877,"lo1":-88.7671,"lo2":-86.6584,"dy":0.0162,"dx":0.0185,"nx":115,"ny":88,"refTime":"2023-05-23T12:00:00:Z","depth":0,"parameterNumber":2,"parameterNumberName":"U-component_of_WINDS"},"data":[0.0,0.0,0.0,0.0,0.0,0.0,0.0,0.0,0.0,0.0,0.0,0.0,0.0,0.0,0.0,0.0,0.0,0.0,0.0,0.0,0.0,0.0,0.0,0.0,0.0,0.0,0.0,0.0,0.0,0.0,0.0,0.0,0.0,0.0,0.0,0.0,0.0,0.0,0.0,0.0,0.0,0.0,0.0,0.0,0.0,0.0,0.0,0.0,0.0,0.0,0.0,0.0,0.0,0.0,0.0,0.0,0.0,0.0,0.0,0.0,0.0,0.0,0.0,0.0,0.0,0.0,0.0,0.0,0.0,0.0,0.0,0.0,0.0,0.0,0.0,0.0,0.0,0.0,0.0,0.0,0.0,0.0,0.0,0.0,0.0,0.0,0.0,0.0,0.0,0.0,0.0,0.0,0.0,0.0,0.0,0.0,0.0,0.0,0.0,0.0,0.0,0.0,0.0,0.0,0.0,0.0,0.0,0.0,0.0,0.0,0.0,0.0,0.0,0.0,0.0,0.0,0.0,0.0,0.0,0.0,0.0,0.0,0.0,0.0,0.0,0.0,0.0,0.0,0.0,0.0,0.0,0.0,0.0,0.0,0.0,0.0,0.0,0.0,0.0,0.0,0.0,0.0,0.0,0.0,0.0,0.0,0.0,0.0,0.0,0.0,0.0,0.0,0.0,0.0,0.0,0.0,0.0,0.0,0.0,0.0,0.0,0.0,0.0,0.0,0.0,0.0,0.0,0.0,0.0,0.0,0.0,0.0,0.0,0.0,0.0,0.0,0.0,0.0,0.0,0.0,0.0,0.0,0.0,0.0,0.0,0.0,0.0,0.0,0.0,0.0,0.0,0.0,0.0,0.0,0.0,0.0,0.0,0.0,0.0,0.0,0.0,0.0,0.0,0.0,0.0,0.0,0.0,0.0,0.0,0.0,0.0,0.0,0.0,0.0,0.0,0.0,0.0,0.0,0.0,0.0,0.0,0.0,0.0,0.0,0.0,0.0,0.0,0.0,0.0,0.0,0.0,0.0,0.0,0.0,0.0,0.0,0.0,0.0,0.0,0.0,0.0,0.0,0.0,0.0,0.0,0.0,0.0,0.0,0.0,0.0,0.0,0.0,0.0,0.0,0.0,0.0,0.0,0.0,0.0,0.0,0.0,0.0,0.0,0.0,0.0,0.0,0.0,0.0,0.0,0.0,0.0,0.0,0.0,0.0,0.0,0.0,0.0,0.0,0.0,0.0,0.0,0.0,0.0,0.0,0.0,0.0,0.0,0.0,0.0,0.0,0.0,0.0,0.0,0.0,0.0,0.0,0.0,0.0,0.0,0.0,0.0,0.0,0.0,0.0,0.0,0.0,0.0,0.0,0.0,0.0,0.0,0.0,0.0,0.0,0.0,0.0,0.0,0.0,0.0,0.0,0.0,0.0,0.0,0.0,0.0,0.0,0.0,0.0,0.0,0.0,0.0,0.0,0.0,0.0,0.0,0.0,0.0,0.0,0.0,0.0,0.0,0.0,0.0,0.0,0.0,0.0,0.0,0.0,0.0,0.0,0.0,0.0,0.0,0.0,0.0,0.0,0.0,0.0,0.0,0.0,0.0,0.0,0.0,0.0,0.0,0.0,0.0,0.0,0.0,0.0,0.0,0.0,0.0,0.0,0.0,0.0,0.0,0.0,0.0,0.0,0.0,0.0,0.0,0.0,0.0,0.0,0.0,0.0,0.0,0.0,0.0,0.0,0.0,0.0,0.0,0.0,0.0,0.0,0.0,0.0,0.0,0.0,0.0,0.0,0.0,0.0,0.0,0.0,0.0,0.0,0.0,0.0,0.0,0.0,0.0,0.0,0.0,0.0,0.0,0.0,0.0,0.0,0.0,0.0,0.0,0.0,0.0,0.0,0.0,0.0,0.0,0.0,0.0,0.0,0.0,0.0,0.0,0.0,0.0,0.0,0.0,0.0,0.0,0.0,0.0,0.0,0.0,0.0,0.0,0.0,0.0,0.0,0.0,0.0,0.0,0.0,0.0,0.0,0.0,0.0,0.0,0.0,0.0,0.0,0.0,0.0,0.0,0.0,0.0,0.0,0.0,0.0,0.0,0.0,0.0,0.0,0.0,0.0,0.0,0.0,0.0,0.0,0.0,0.0,0.0,0.0,0.0,0.0,0.0,0.0,0.0,0.0,0.0,0.0,0.0,0.0,0.0,0.0,0.0,0.0,0.0,0.0,0.0,0.0,0.0,0.0,0.0,0.0,0.0,0.0,0.0,0.0,0.0,0.0,0.0,0.0,0.0,0.0,0.0,0.0,0.0,0.0,0.0,0.0,0.0,0.0,0.0,0.0,0.0,0.0,0.0,0.0,0.0,0.0,0.0,0.0,0.0,0.0,0.0,0.0,0.0,0.0,0.0,0.0,0.0,0.0,0.0,0.0,0.0,0.0,0.0,0.0,0.0,0.0,0.0,0.0,0.0,0.0,0.0,0.0,0.0,0.0,0.0,0.0,0.0,0.0,0.0,0.0,0.0,0.0,0.0,0.0,0.0,0.0,0.0,0.0,0.0,0.0,0.0,0.0,0.0,0.0,0.0,0.0,0.0,0.0,0.0,0.0,0.0,0.0,0.0,0.0,0.0,0.0,0.0,0.0,0.0,0.0,0.0,0.0,0.0,0.0,0.0,0.0,0.0,0.0,0.0,0.0,0.0,0.0,0.0,0.0,0.0,0.0,0.0,0.0,0.0,0.0,0.0,0.0,0.0,0.0,0.0,0.0,0.0,0.0,0.0,0.0,0.0,0.0,0.0,0.0,0.0,0.0,0.0,0.0,0.0,0.0,0.0,0.0,0.0,0.0,0.0,0.0,0.0,0.0,0.0,0.0,0.0,0.0,0.0,0.0,0.0,0.0,0.0,0.0,0.0,0.0,0.0,0.0,0.0,0.0,0.0,0.0,0.0,0.0,0.0,0.0,0.0,0.0,0.0,0.0,0.0,0.0,0.0,0.0,0.0,0.0,0.0,0.0,0.0,0.0,0.0,0.0,0.0,0.0,0.0,0.0,0.0,0.0,0.0,0.0,0.0,0.0,0.0,0.0,0.0,0.0,0.0,0.0,0.0,0.0,0.0,0.0,0.0,0.0,0.0,0.0,0.0,0.0,0.0,0.0,0.0,0.0,0.0,0.0,0.0,0.0,0.0,0.0,0.0,0.0,0.0,0.0,0.0,0.0,0.0,0.0,0.0,0.0,0.0,0.0,0.0,0.0,0.0,0.0,0.0,0.0,0.0,0.0,0.0,0.0,0.0,0.0,0.0,0.0,0.0,0.0,0.0,0.0,0.0,0.0,0.0,0.0,0.0,0.0,0.0,0.0,0.0,0.0,0.0,0.0,0.0,0.0,0.0,0.0,0.0,0.0,0.0,0.0,0.0,0.0,0.0,0.0,0.0,0.0,0.0,0.0,0.0,0.0,0.0,0.0,0.0,0.0,0.0,0.0,0.0,0.0,0.0,0.0,0.0,0.0,0.0,0.0,0.0,0.0,0.0,0.0,0.0,0.0,0.0,0.0,0.0,0.0,0.0,0.0,0.0,0.0,0.0,0.0,0.0,0.0,0.0,0.0,0.0,0.0,0.0,0.0,0.0,0.0,0.0,0.0,0.0,0.0,0.0,0.0,0.0,0.0,0.0,0.0,0.0,0.0,0.0,0.0,0.0,0.0,0.0,0.0,0.0,0.0,0.0,0.0,0.0,0.0,0.0,0.0,0.0,0.0,0.0,0.0,0.0,0.0,0.0,0.0,0.0,0.0,0.0,0.0,0.0,0.0,0.0,0.0,0.0,0.0,0.0,0.0,0.0,0.0,0.0,0.0,0.0,0.0,0.0,0.0,0.0,0.0,0.0,0.0,0.0,0.0,0.0,0.0,0.0,0.0,0.0,0.0,0.0,0.0,0.0,0.0,0.0,0.0,0.0,0.0,0.0,0.0,0.0,0.0,0.0,0.0,0.0,0.0,0.0,0.0,0.0,0.0,0.0,0.0,0.0,0.0,0.0,0.0,0.0,0.0,0.0,0.0,0.0,0.0,0.0,0.0,0.0,0.0,0.0,0.0,0.0,0.0,0.0,0.0,0.0,0.0,0.0,0.0,0.0,0.0,0.0,0.0,0.0,0.0,0.0,0.0,0.0,0.0,0.0,0.0,0.0,0.0,0.0,0.0,0.0,0.0,0.0,0.0,0.0,0.0,0.0,0.0,0.0,0.0,0.0,0.0,0.0,0.0,0.0,0.0,0.0,0.0,1.8482,0.0,0.0,0.0,0.0,0.0,0.0,0.0,0.0,0.0,0.0,0.0,0.0,0.0,0.0,0.0,0.0,0.0,0.0,0.0,0.0,0.0,0.0,0.0,0.0,0.0,0.0,0.0,0.0,0.0,0.0,0.0,0.0,0.0,0.0,0.0,0.0,0.0,0.0,0.0,0.0,0.0,0.0,0.0,0.0,0.0,0.0,0.0,0.0,0.0,0.0,0.0,0.0,0.0,0.0,0.0,0.0,0.0,0.0,0.0,0.0,0.0,0.0,0.0,0.0,0.0,0.0,0.0,0.0,0.0,0.0,0.0,0.0,0.0,0.0,0.0,0.0,0.0,0.0,0.0,0.0,0.0,0.0,0.0,0.0,0.0,0.0,0.0,0.0,0.0,0.0,0.0,0.0,0.0,0.0,0.0,0.0,0.0,0.0,0.0,0.0,0.0,0.0,0.0,0.0,0.0,0.0,0.0,0.0,0.0,0.0,1.8825,1.8808,1.8724,1.8667,1.8667,0.0,0.0,0.0,0.0,0.0,0.0,0.0,0.0,0.0,0.0,0.0,0.0,0.0,0.0,0.0,0.0,0.0,0.0,0.0,0.0,0.0,0.0,0.0,0.0,0.0,0.0,0.0,0.0,0.0,0.0,0.0,0.0,0.0,0.0,0.0,0.0,0.0,0.0,0.0,0.0,0.0,0.0,0.0,0.0,0.0,0.0,0.0,0.0,0.0,0.0,0.0,0.0,0.0,0.0,0.0,0.0,0.0,0.0,0.0,0.0,0.0,0.0,0.0,0.0,0.0,0.0,0.0,0.0,0.0,0.0,0.0,0.0,0.0,0.0,0.0,0.0,0.0,0.0,0.0,0.0,0.0,0.0,0.0,0.0,0.0,0.0,0.0,0.0,0.0,0.0,0.0,0.0,0.0,0.0,0.0,0.0,0.0,0.0,0.0,0.0,0.0,0.0,0.0,0.0,0.0,0.0,0.0,0.0,0.0,0.0,0.0,0.0,1.8875,1.8792,1.8836,0.0,0.0,0.0,0.0,0.0,0.0,0.0,0.0,0.0,0.0,0.0,0.0,0.0,0.0,0.0,0.0,0.0,0.0,0.0,0.0,0.0,0.0,0.0,0.0,0.0,0.0,0.0,0.0,0.0,0.0,0.0,0.0,0.0,0.0,0.0,0.0,0.0,0.0,0.0,0.0,0.0,0.0,0.0,0.0,0.0,0.0,0.0,0.0,0.0,0.0,0.0,0.0,0.0,0.0,0.0,0.0,0.0,0.0,0.0,0.0,0.0,0.0,0.0,0.0,0.0,0.0,0.0,0.0,0.0,0.0,0.0,0.0,0.0,0.0,0.0,0.0,0.0,0.0,0.0,0.0,0.0,0.0,0.0,0.0,0.0,0.0,0.0,0.0,0.0,0.0,0.0,0.0,0.0,0.0,0.0,0.0,0.0,0.0,0.0,0.0,0.0,0.0,0.0,0.0,0.0,0.0,0.0,0.0,0.0,0.0,1.8915,1.8566,1.8717,0.0,1.8914,0.0,0.0,0.0,0.0,0.0,0.0,0.0,0.0,0.0,0.0,0.0,0.0,0.0,0.0,0.0,0.0,0.0,0.0,0.0,0.0,0.0,0.0,0.0,0.0,0.0,0.0,0.0,0.0,0.0,0.0,0.0,0.0,0.0,0.0,0.0,0.0,0.0,0.0,0.0,0.0,0.0,0.0,0.0,0.0,0.0,0.0,0.0,0.0,0.0,0.0,0.0,0.0,0.0,0.0,0.0,0.0,0.0,0.0,0.0,0.0,0.0,0.0,0.0,0.0,0.0,0.0,0.0,0.0,0.0,0.0,0.0,0.0,0.0,0.0,0.0,0.0,0.0,0.0,0.0,0.0,0.0,0.0,0.0,0.0,0.0,0.0,0.0,0.0,0.0,0.0,0.0,0.0,0.0,0.0,0.0,0.0,0.0,0.0,0.0,0.0,0.0,0.0,0.0,0.0,0.0,0.0,0.0,0.0,0.0,0.0,1.8975,1.8674,1.8791,1.8891,0.0,0.0,0.0,0.0,0.0,0.0,0.0,0.0,0.0,0.0,0.0,0.0,0.0,0.0,0.0,0.0,0.0,0.0,0.0,0.0,0.0,0.0,0.0,0.0,0.0,0.0,0.0,0.0,0.0,0.0,0.0,0.0,0.0,0.0,0.0,0.0,0.0,0.0,0.0,0.0,0.0,0.0,0.0,0.0,0.0,0.0,0.0,0.0,0.0,0.0,0.0,0.0,0.0,0.0,0.0,0.0,0.0,0.0,0.0,0.0,0.0,0.0,0.0,0.0,0.0,0.0,0.0,0.0,0.0,0.0,0.0,0.0,0.0,0.0,0.0,0.0,0.0,0.0,0.0,0.0,0.0,0.0,0.0,0.0,0.0,0.0,0.0,0.0,0.0,0.0,0.0,0.0,0.0,0.0,0.0,0.0,0.0,0.0,0.0,0.0,0.0,0.0,0.0,0.0,0.0,0.0,0.0,0.0,0.0,0.0,1.9075,1.9037,1.8917,1.9031,1.9124,1.9181,0.0,0.0,0.0,0.0,0.0,0.0,0.0,0.0,0.0,0.0,0.0,0.0,0.0,0.0,0.0,0.0,0.0,0.0,0.0,0.0,0.0,0.0,0.0,0.0,0.0,0.0,0.0,0.0,0.0,0.0,0.0,0.0,0.0,0.0,0.0,0.0,0.0,0.0,0.0,0.0,0.0,0.0,0.0,0.0,0.0,0.0,0.0,0.0,0.0,0.0,0.0,0.0,0.0,0.0,0.0,0.0,0.0,0.0,0.0,0.0,0.0,0.0,0.0,0.0,0.0,0.0,0.0,0.0,0.0,0.0,0.0,0.0,0.0,0.0,0.0,0.0,0.0,0.0,0.0,0.0,0.0,0.0,0.0,0.0,0.0,0.0,0.0,0.0,0.0,0.0,0.0,0.0,0.0,0.0,0.0,0.0,0.0,0.0,0.0,0.0,0.0,0.0,0.0,0.0,0.0,0.0,0.0,0.0,1.8852,1.8992,1.9124,1.9183,1.9437,1.9653,0.0,0.0,0.0,0.0,0.0,0.0,0.0,0.0,0.0,0.0,0.0,0.0,0.0,0.0,0.0,0.0,0.0,0.0,0.0,0.0,0.0,0.0,0.0,0.0,0.0,0.0,0.0,0.0,0.0,0.0,0.0,0.0,0.0,0.0,0.0,0.0,0.0,0.0,0.0,0.0,0.0,0.0,0.0,0.0,0.0,0.0,0.0,0.0,0.0,0.0,0.0,0.0,0.0,0.0,0.0,0.0,0.0,0.0,0.0,0.0,0.0,0.0,0.0,0.0,0.0,0.0,0.0,0.0,0.0,0.0,0.0,0.0,0.0,0.0,0.0,0.0,0.0,0.0,0.0,0.0,0.0,0.0,0.0,0.0,0.0,0.0,0.0,0.0,0.0,0.0,0.0,0.0,0.0,0.0,0.0,0.0,0.0,0.0,0.0,0.0,0.0,0.0,0.0,0.0,0.0,0.0,0.0,0.0,0.0,1.9019,1.9229,1.9461,1.9636,2.0042,2.0139,0.0,0.0,0.0,0.0,0.0,0.0,0.0,0.0,0.0,0.0,0.0,0.0,0.0,0.0,0.0,0.0,0.0,0.0,0.0,0.0,0.0,0.0,0.0,0.0,0.0,0.0,0.0,0.0,0.0,0.0,0.0,0.0,0.0,0.0,0.0,0.0,0.0,0.0,0.0,0.0,0.0,0.0,0.0,0.0,0.0,0.0,0.0,0.0,0.0,0.0,0.0,0.0,0.0,0.0,0.0,0.0,0.0,0.0,0.0,0.0,0.0,0.0,0.0,0.0,0.0,0.0,0.0,0.0,0.0,0.0,0.0,0.0,0.0,0.0,0.0,0.0,0.0,0.0,0.0,0.0,0.0,0.0,0.0,0.0,0.0,0.0,0.0,0.0,0.0,0.0,0.0,0.0,0.0,0.0,0.0,0.0,0.0,0.0,0.0,0.0,0.0,0.0,0.0,0.0,0.0,0.0,0.0,0.0,0.0,1.9435,0.0,1.9922,2.0088,2.055,2.0601,0.0,0.0,0.0,0.0,0.0,0.0,0.0,0.0,0.0,0.0,0.0,0.0,0.0,0.0,0.0,0.0,0.0,0.0,0.0,0.0,0.0,0.0,0.0,0.0,0.0,0.0,0.0,0.0,0.0,0.0,0.0,0.0,0.0,0.0,0.0,0.0,0.0,0.0,0.0,0.0,0.0,0.0,0.0,0.0,0.0,0.0,0.0,0.0,0.0,0.0,0.0,0.0,0.0,0.0,0.0,0.0,0.0,0.0,0.0,0.0,0.0,0.0,0.0,0.0,0.0,0.0,0.0,0.0,0.0,0.0,0.0,0.0,0.0,0.0,0.0,0.0,0.0,0.0,0.0,0.0,0.0,0.0,0.0,0.0,0.0,0.0,0.0,0.0,0.0,0.0,0.0,0.0,0.0,0.0,0.0,0.0,0.0,0.0,0.0,0.0,0.0,0.0,0.0,0.0,0.0,0.0,0.0,0.0,1.9898,2.0099,2.0353,2.0482,2.0514,2.0964,2.1099,0.0,0.0,0.0,0.0,0.0,0.0,0.0,0.0,0.0,0.0,0.0,0.0,0.0,0.0,0.0,0.0,0.0,0.0,0.0,0.0,0.0,0.0,0.0,0.0,0.0,0.0,0.0,0.0,0.0,0.0,0.0,0.0,0.0,0.0,0.0,0.0,0.0,0.0,0.0,0.0,0.0,0.0,0.0,0.0,0.0,0.0,0.0,0.0,0.0,0.0,0.0,0.0,0.0,0.0,0.0,0.0,0.0,0.0,0.0,0.0,0.0,0.0,0.0,0.0,0.0,0.0,0.0,0.0,0.0,0.0,0.0,0.0,0.0,0.0,0.0,0.0,0.0,0.0,0.0,0.0,0.0,0.0,0.0,0.0,0.0,0.0,0.0,0.0,0.0,0.0,0.0,0.0,0.0,0.0,0.0,0.0,0.0,0.0,0.0,0.0,0.0,0.0,0.0,0.0,0.0,0.0,0.0,0.0,0.0,2.0577,2.0654,2.0719,2.0784,2.1316,2.1329,0.0,0.0,0.0,0.0,0.0,0.0,0.0,0.0,0.0,0.0,0.0,0.0,0.0,0.0,0.0,0.0,0.0,0.0,0.0,0.0,0.0,0.0,0.0,0.0,0.0,0.0,0.0,0.0,0.0,0.0,0.0,0.0,0.0,0.0,0.0,0.0,0.0,0.0,0.0,0.0,0.0,0.0,0.0,0.0,0.0,0.0,0.0,0.0,0.0,0.0,0.0,0.0,0.0,0.0,0.0,0.0,0.0,0.0,0.0,0.0,0.0,0.0,0.0,0.0,0.0,0.0,0.0,0.0,0.0,0.0,0.0,0.0,0.0,0.0,0.0,0.0,0.0,0.0,0.0,0.0,0.0,0.0,0.0,0.0,0.0,0.0,0.0,0.0,0.0,0.0,0.0,0.0,0.0,0.0,0.0,0.0,0.0,0.0,0.0,0.0,0.0,0.0,0.0,0.0,0.0,0.0,0.0,0.0,0.0,2.082,2.0772,2.078,2.0896,2.1263,2.1244,2.0751,0.0,0.0,0.0,0.0,0.0,0.0,0.0,0.0,0.0,0.0,0.0,0.0,0.0,0.0,0.0,0.0,0.0,0.0,0.0,0.0,0.0,0.0,0.0,0.0,0.0,0.0,0.0,0.0,0.0,0.0,0.0,0.0,0.0,0.0,0.0,0.0,0.0,0.0,0.0,0.0,0.0,0.0,0.0,0.0,0.0,0.0,0.0,0.0,0.0,0.0,0.0,0.0,0.0,0.0,0.0,0.0,0.0,0.0,0.0,0.0,0.0,0.0,0.0,0.0,0.0,0.0,0.0,0.0,0.0,0.0,0.0,0.0,0.0,0.0,0.0,0.0,0.0,0.0,0.0,0.0,0.0,0.0,0.0,0.0,0.0,0.0,0.0,0.0,0.0,0.0,0.0,0.0,0.0,0.0,0.0,0.0,0.0,0.0,0.0,0.0,0.0,0.0,0.0,0.0,0.0,0.0,0.0,0.0,2.0887,2.0693,2.0683,2.0877,2.0906,2.0906,0.0,0.0,0.0,0.0,0.0,0.0,0.0,0.0,0.0,0.0,0.0,0.0,0.0,0.0,0.0,0.0,0.0,0.0,0.0,0.0,0.0,0.0,0.0,0.0,0.0,0.0,0.0,0.0,0.0,0.0,0.0,0.0,0.0,0.0,0.0,0.0,0.0,0.0,0.0,0.0,0.0,0.0,0.0,0.0,0.0,0.0,0.0,0.0,0.0,0.0,0.0,0.0,0.0,0.0,0.0,0.0,0.0,0.0,0.0,0.0,0.0,0.0,0.0,0.0,0.0,0.0,0.0,0.0,0.0,0.0,0.0,0.0,0.0,0.0,0.0,0.0,0.0,0.0,0.0,0.0,0.0,0.0,0.0,0.0,0.0,0.0,0.0,0.0,0.0,0.0,0.0,0.0,0.0,0.0,0.0,0.0,0.0,0.0,0.0,0.0,0.0,0.0,0.0,0.0,0.0,0.0,0.0,0.0,0.0,2.0693,2.0625,2.0625,2.0673,2.0974,2.0974,0.0,0.0,0.0,0.0,0.0,0.0,0.0,0.0,0.0,0.0,0.0,0.0,0.0,0.0,0.0,0.0,0.0,0.0,0.0,0.0,0.0,0.0,0.0,0.0,0.0,0.0,0.0,0.0,0.0,0.0,0.0,0.0,0.0,0.0,0.0,0.0,0.0,0.0,0.0,0.0,0.0,0.0,0.0,0.0,0.0,0.0,0.0,0.0,0.0,0.0,0.0,0.0,0.0,0.0,0.0,0.0,0.0,0.0,0.0,0.0,0.0,0.0,0.0,0.0,0.0,0.0,0.0,0.0,0.0,0.0,0.0,0.0,0.0,0.0,0.0,0.0,0.0,0.0,0.0,0.0,0.0,0.0,0.0,0.0,0.0,0.0,0.0,0.0,0.0,0.0,0.0,0.0,0.0,0.0,0.0,0.0,0.0,0.0,0.0,0.0,0.0,0.0,0.0,0.0,0.0,0.0,0.0,0.0,2.1051,2.0731,2.0625,2.0596,2.0586,2.0828,2.0818,0.0,0.0,0.0,0.0,0.0,0.0,0.0,0.0,0.0,0.0,0.0,0.0,0.0,0.0,0.0,0.0,0.0,0.0,0.0,0.0,0.0,0.0,0.0,0.0,0.0,0.0,0.0,0.0,0.0,0.0,0.0,0.0,0.0,0.0,0.0,0.0,0.0,0.0,0.0,0.0,0.0,0.0,0.0,0.0,0.0,0.0,0.0,0.0,0.0,0.0,0.0,0.0,0.0,0.0,0.0,0.0,0.0,0.0,0.0,0.0,0.0,0.0,0.0,0.0,0.0,0.0,0.0,0.0,0.0,0.0,0.0,0.0,0.0,0.0,0.0,0.0,0.0,0.0,0.0,0.0,0.0,0.0,0.0,0.0,0.0,0.0,0.0,0.0,0.0,0.0,0.0,0.0,0.0,0.0,0.0,0.0,0.0,0.0,0.0,0.0,0.0,0.0,0.0,0.0,0.0,0.0,0.0,0.0,2.1089,2.0867,2.0693,2.0625,2.0674,2.0615,2.0625,0.0,0.0,0.0,0.0,0.0,0.0,0.0,0.0,0.0,0.0,0.0,0.0,0.0,0.0,0.0,0.0,0.0,0.0,0.0,0.0,0.0,0.0,0.0,0.0,0.0,0.0,0.0,0.0,0.0,0.0,0.0,0.0,0.0,0.0,0.0,0.0,0.0,0.0,0.0,0.0,0.0,0.0,0.0,0.0,0.0,0.0,0.0,0.0,0.0,0.0,0.0,0.0,0.0,0.0,0.0,0.0,0.0,0.0,0.0,0.0,0.0,0.0,0.0,0.0,0.0,0.0,0.0,0.0,0.0,0.0,0.0,0.0,0.0,0.0,0.0,0.0,0.0,0.0,0.0,0.0,0.0,0.0,0.0,0.0,0.0,0.0,0.0,0.0,0.0,0.0,0.0,0.0,0.0,0.0,0.0,0.0,0.0,0.0,0.0,0.0,0.0,0.0,0.0,0.0,0.0,0.0,0.0,0.0,2.1002,2.0673,2.0625,2.0752,2.1064,2.0772,2.0752,0.0,0.0,0.0,0.0,0.0,0.0,0.0,0.0,0.0,0.0,0.0,0.0,0.0,0.0,0.0,0.0,0.0,0.0,0.0,0.0,0.0,0.0,0.0,0.0,0.0,0.0,0.0,0.0,0.0,0.0,0.0,0.0,0.0,0.0,0.0,0.0,0.0,0.0,0.0,0.0,0.0,0.0,0.0,0.0,0.0,0.0,0.0,0.0,2.8752,0.0,0.0,0.0,0.0,0.0,0.0,0.0,0.0,0.0,0.0,0.0,0.0,0.0,0.0,0.0,0.0,0.0,0.0,0.0,0.0,0.0,0.0,0.0,0.0,0.0,0.0,0.0,0.0,0.0,0.0,0.0,0.0,0.0,0.0,0.0,0.0,0.0,0.0,0.0,0.0,0.0,0.0,0.0,0.0,0.0,0.0,0.0,0.0,0.0,0.0,0.0,0.0,0.0,0.0,0.0,0.0,0.0,0.0,0.0,2.1054,2.1017,2.0938,2.1094,2.1514,2.1309,2.1299,0.0,0.0,0.0,0.0,0.0,0.0,0.0,0.0,0.0,0.0,0.0,0.0,0.0,0.0,0.0,0.0,0.0,0.0,0.0,0.0,0.0,0.0,0.0,0.0,0.0,0.0,0.0,0.0,0.0,0.0,0.0,0.0,0.0,0.0,0.0,0.0,0.0,0.0,0.0,0.0,0.0,0.0,0.0,0.0,0.0,0.0,0.0,0.0,0.0,0.0,0.0,0.0,0.0,0.0,0.0,0.0,0.0,0.0,0.0,0.0,0.0,0.0,0.0,0.0,0.0,0.0,0.0,0.0,0.0,0.0,0.0,0.0,0.0,0.0,0.0,0.0,0.0,0.0,0.0,0.0,0.0,0.0,0.0,0.0,0.0,0.0,0.0,0.0,0.0,0.0,0.0,0.0,0.0,0.0,0.0,0.0,0.0,0.0,0.0,0.0,0.0,0.0,0.0,0.0,0.0,0.0,0.0,2.1179,2.1184,2.1431,2.1359,2.1523,2.1993,2.1982,2.2042,2.208,0.0,0.0,0.0,0.0,0.0,0.0,0.0,0.0,0.0,0.0,0.0,0.0,0.0,0.0,0.0,0.0,0.0,0.0,0.0,0.0,0.0,0.0,0.0,0.0,0.0,0.0,0.0,0.0,0.0,0.0,0.0,0.0,0.0,0.0,0.0,0.0,0.0,0.0,2.9417,2.874,0.0,0.0,0.0,0.0,0.0,0.0,0.0,0.0,2.8108,0.0,0.0,0.0,0.0,0.0,0.0,0.0,0.0,0.0,0.0,0.0,0.0,0.0,0.0,0.0,0.0,0.0,0.0,0.0,0.0,0.0,0.0,0.0,0.0,0.0,0.0,0.0,0.0,0.0,0.0,0.0,0.0,0.0,0.0,0.0,0.0,0.0,0.0,0.0,0.0,0.0,0.0,0.0,0.0,0.0,0.0,0.0,0.0,0.0,0.0,0.0,0.0,0.0,0.0,0.0,0.0,2.1254,2.1498,2.1531,2.126,2.1612,2.1982,2.2383,2.2412,2.2557,2.2879,0.0,0.0,0.0,0.0,0.0,0.0,0.0,0.0,0.0,0.0,0.0,0.0,0.0,0.0,0.0,0.0,0.0,0.0,0.0,0.0,0.0,0.0,0.0,0.0,0.0,0.0,0.0,0.0,0.0,0.0,0.0,0.0,0.0,0.0,0.0,0.0,0.0,0.0,0.0,2.7426,2.7058,0.0,0.0,0.0,0.0,0.0,0.0,0.0,0.0,2.7916,0.0,0.0,0.0,0.0,0.0,0.0,0.0,0.0,0.0,0.0,0.0,0.0,0.0,0.0,0.0,0.0,0.0,0.0,0.0,0.0,0.0,0.0,0.0,0.0,0.0,0.0,0.0,0.0,0.0,0.0,0.0,0.0,0.0,0.0,0.0,0.0,0.0,0.0,0.0,0.0,0.0,0.0,0.0,0.0,0.0,0.0,0.0,0.0,0.0,0.0,0.0,0.0,0.0,0.0,0.0,2.1498,2.1501,2.1607,2.1864,2.2109,2.2381,2.2801,2.281,2.2886,0.0,0.0,0.0,0.0,0.0,0.0,0.0,0.0,0.0,0.0,0.0,0.0,0.0,0.0,0.0,0.0,0.0,0.0,0.0,0.0,0.0,0.0,0.0,0.0,0.0,0.0,0.0,0.0,0.0,0.0,0.0,0.0,0.0,0.0,0.0,0.0,0.0,0.0,0.0,0.0,2.6935,2.6586,2.5578,0.0,0.0,0.0,0.0,0.0,0.0,2.7632,2.8346,0.0,0.0,0.0,0.0,0.0,0.0,0.0,0.0,0.0,0.0,0.0,0.0,0.0,0.0,0.0,0.0,0.0,0.0,0.0,0.0,0.0,0.0,0.0,0.0,0.0,0.0,0.0,0.0,0.0,0.0,0.0,0.0,0.0,0.0,0.0,0.0,0.0,0.0,0.0,0.0,0.0,0.0,0.0,0.0,0.0,0.0,0.0,0.0,0.0,0.0,0.0,0.0,0.0,0.0,0.0,2.1789,2.1609,2.1837,2.2449,2.2576,2.2781,2.3091,2.3101,2.3101,0.0,0.0,0.0,0.0,0.0,0.0,0.0,0.0,0.0,0.0,0.0,0.0,0.0,0.0,0.0,0.0,0.0,0.0,0.0,0.0,0.0,0.0,0.0,0.0,0.0,0.0,0.0,0.0,0.0,0.0,0.0,0.0,0.0,0.0,0.0,0.0,0.0,0.0,0.0,0.0,0.0,2.6129,2.5412,2.537,0.0,0.0,0.0,0.0,2.666,2.7725,0.0,0.0,0.0,0.0,0.0,0.0,0.0,0.0,0.0,0.0,0.0,0.0,0.0,0.0,0.0,0.0,0.0,0.0,0.0,0.0,0.0,0.0,0.0,0.0,0.0,0.0,0.0,0.0,0.0,0.0,0.0,0.0,0.0,0.0,0.0,0.0,0.0,0.0,0.0,0.0,0.0,0.0,0.0,0.0,0.0,0.0,0.0,0.0,0.0,0.0,0.0,0.0,0.0,0.0,0.0,0.0,2.1839,2.2325,2.2571,2.2519,2.2849,2.3074,2.3101,2.3101,2.3101,0.0,0.0,0.0,0.0,0.0,0.0,0.0,0.0,0.0,0.0,0.0,0.0,0.0,0.0,0.0,0.0,0.0,0.0,0.0,0.0,0.0,0.0,0.0,0.0,0.0,0.0,0.0,0.0,0.0,0.0,0.0,0.0,0.0,0.0,0.0,0.0,0.0,0.0,0.0,0.0,0.0,2.5284,2.5883,2.5519,2.5224,0.0,0.0,2.5101,2.5068,2.5858,0.0,0.0,0.0,0.0,0.0,0.0,0.0,0.0,0.0,0.0,0.0,0.0,0.0,0.0,0.0,0.0,0.0,0.0,0.0,0.0,0.0,0.0,0.0,0.0,0.0,0.0,0.0,0.0,0.0,0.0,0.0,0.0,0.0,0.0,0.0,0.0,0.0,0.0,0.0,0.0,0.0,0.0,0.0,0.0,0.0,0.0,0.0,0.0,0.0,0.0,0.0,0.0,0.0,0.0,0.0,2.214,2.2583,2.2619,2.2703,2.284,2.3003,2.3101,2.3101,2.3101,2.3101,0.0,0.0,0.0,0.0,0.0,0.0,0.0,0.0,0.0,0.0,0.0,0.0,0.0,0.0,0.0,0.0,0.0,0.0,0.0,0.0,0.0,0.0,0.0,0.0,0.0,0.0,0.0,0.0,0.0,0.0,0.0,0.0,0.0,0.0,0.0,0.0,0.0,0.0,0.0,0.0,0.0,0.0,2.5235,2.5437,0.0,0.0,0.0,2.587,2.587,0.0,0.0,0.0,0.0,0.0,0.0,0.0,0.0,0.0,0.0,0.0,0.0,0.0,0.0,0.0,0.0,0.0,0.0,0.0,0.0,0.0,0.0,0.0,0.0,0.0,0.0,0.0,0.0,0.0,0.0,0.0,0.0,0.0,0.0,0.0,0.0,0.0,0.0,0.0,0.0,0.0,0.0,0.0,0.0,0.0,0.0,0.0,0.0,0.0,0.0,0.0,0.0,0.0,0.0,0.0,0.0,0.0,2.3092,2.2809,2.2779,2.3081,2.3101,2.3101,2.3101,2.3101,0.0,0.0,0.0,0.0,0.0,0.0,0.0,0.0,0.0,0.0,0.0,0.0,0.0,0.0,0.0,0.0,0.0,0.0,0.0,0.0,0.0,0.0,0.0,0.0,0.0,0.0,0.0,2.8151,0.0,0.0,0.0,0.0,0.0,0.0,0.0,0.0,0.0,0.0,0.0,0.0,0.0,0.0,2.6085,2.5111,2.5561,2.599,0.0,0.0,2.6436,2.6446,2.6652,2.6829,0.0,0.0,0.0,0.0,0.0,0.0,0.0,0.0,0.0,0.0,0.0,0.0,0.0,0.0,0.0,0.0,0.0,0.0,0.0,0.0,0.0,0.0,0.0,0.0,0.0,0.0,0.0,0.0,0.0,0.0,0.0,0.0,0.0,0.0,0.0,0.0,0.0,0.0,0.0,0.0,0.0,0.0,0.0,0.0,0.0,0.0,0.0,0.0,0.0,0.0,0.0,0.0,0.0,0.0,0.0,2.2828,2.2977,2.3062,2.3101,2.3101,2.3101,2.3101,2.3101,2.3101,0.0,0.0,0.0,0.0,0.0,0.0,0.0,0.0,0.0,0.0,0.0,0.0,0.0,0.0,0.0,0.0,0.0,0.0,0.0,0.0,0.0,0.0,0.0,0.0,0.0,0.0,0.0,0.0,0.0,0.0,0.0,0.0,0.0,0.0,0.0,0.0,0.0,0.0,0.0,0.0,0.0,2.5735,2.6442,2.6067,2.5732,0.0,0.0,2.5756,2.5781,2.581,2.5795,2.5805,0.0,0.0,0.0,0.0,0.0,0.0,0.0,0.0,0.0,0.0,0.0,0.0,0.0,0.0,0.0,0.0,0.0,0.0,0.0,0.0,0.0,0.0,0.0,0.0,0.0,0.0,0.0,0.0,0.0,0.0,0.0,0.0,0.0,0.0,0.0,0.0,0.0,0.0,0.0,0.0,0.0,0.0,0.0,0.0,0.0,0.0,0.0,0.0,0.0,0.0,0.0,0.0,0.0,2.3212,2.3224,2.3122,2.3101,2.3101,2.3101,2.3101,2.3101,2.3101,2.3101,0.0,0.0,0.0,0.0,0.0,0.0,0.0,0.0,0.0,0.0,0.0,0.0,0.0,0.0,0.0,0.0,0.0,0.0,0.0,0.0,0.0,0.0,0.0,0.0,0.0,0.0,0.0,0.0,2.6682,2.6395,2.5807,0.0,0.0,0.0,0.0,0.0,0.0,0.0,0.0,0.0,0.0,2.6057,2.6079,2.5857,0.0,0.0,2.5708,2.5708,2.5708,2.5708,2.5708,2.5708,2.5708,0.0,0.0,0.0,0.0,0.0,0.0,0.0,0.0,0.0,0.0,0.0,0.0,0.0,0.0,0.0,0.0,0.0,0.0,0.0,0.0,0.0,0.0,0.0,0.0,0.0,0.0,0.0,0.0,0.0,0.0,0.0,0.0,0.0,0.0,0.0,0.0,0.0,0.0,0.0,0.0,0.0,0.0,0.0,0.0,0.0,0.0,0.0,0.0,0.0,0.0,0.0,0.0,2.3368,2.3385,2.3315,2.3286,2.3308,2.3425,2.3493,2.3493,2.3503,2.3503,0.0,0.0,0.0,0.0,0.0,0.0,0.0,0.0,0.0,0.0,0.0,0.0,0.0,0.0,0.0,0.0,0.0,0.0,0.0,0.0,0.0,0.0,0.0,0.0,0.0,0.0,0.0,0.0,2.5927,2.5732,2.569,0.0,0.0,0.0,0.0,0.0,0.0,0.0,0.0,0.0,0.0,2.6067,2.5732,2.5708,2.5708,2.5708,2.5708,2.5708,2.5708,2.5708,2.5708,2.5708,0.0,0.0,0.0,0.0,0.0,0.0,0.0,0.0,0.0,0.0,0.0,0.0,0.0,0.0,0.0,0.0,0.0,0.0,0.0,0.0,0.0,0.0,0.0,0.0,0.0,0.0,0.0,0.0,0.0,0.0,2.6375,0.0,0.0,0.0,0.0,0.0,0.0,0.0,0.0,0.0,0.0,0.0,0.0,0.0,0.0,0.0,0.0,0.0,0.0,0.0,0.0,0.0,0.0,2.357,2.3154,2.3545,2.3769,2.3802,2.4147,2.4375,2.4365,2.4385,2.4385,2.4362,0.0,0.0,0.0,0.0,0.0,0.0,0.0,0.0,0.0,0.0,0.0,0.0,0.0,0.0,0.0,0.0,0.0,0.0,0.0,0.0,0.0,0.0,0.0,0.0,0.0,0.0,2.5566,2.5471,2.5619,0.0,0.0,0.0,0.0,0.0,0.0,0.0,0.0,0.0,0.0,2.5689,2.5723,2.5708,2.5708,2.5708,2.5708,2.5708,2.5708,2.5708,2.5708,2.5708,0.0,0.0,0.0,0.0,0.0,0.0,0.0,0.0,0.0,0.0,0.0,0.0,0.0,0.0,0.0,0.0,0.0,0.0,0.0,0.0,0.0,0.0,0.0,0.0,0.0,0.0,0.0,2.5711,2.5681,0.0,0.0,0.0,0.0,0.0,0.0,0.0,0.0,0.0,0.0,0.0,2.7779,2.6648,0.0,0.0,0.0,0.0,0.0,0.0,0.0,0.0,0.0,0.0,0.0,0.0,2.373,2.3587,2.3711,2.3926,2.4199,2.4313,2.4424,2.4424,2.4424,2.4551,2.4867,0.0,0.0,0.0,0.0,0.0,0.0,0.0,0.0,0.0,0.0,0.0,0.0,0.0,0.0,0.0,0.0,0.0,0.0,0.0,0.0,0.0,0.0,0.0,0.0,0.0,2.5815,0.0,0.0,0.0,0.0,0.0,0.0,0.0,0.0,0.0,0.0,0.0,2.5708,2.5708,2.5708,2.5708,2.5708,2.5708,2.5708,0.0,0.0,0.0,0.0,0.0,0.0,0.0,0.0,0.0,0.0,0.0,0.0,0.0,0.0,2.6706,2.6706,2.6706,2.6911,2.7592,0.0,0.0,0.0,0.0,0.0,0.0,0.0,0.0,0.0,0.0,0.0,0.0,0.0,0.0,2.5823,0.0,2.5193,0.0,0.0,0.0,0.0,0.0,0.0,0.0,0.0,2.7648,2.7856,2.8427,2.7647,2.7321,0.0,2.8074,2.7906,0.0,0.0,0.0,0.0,0.0,0.0,0.0,0.0,2.393,2.4007,2.416,2.4388,2.4629,2.4771,2.4849,2.4849,2.4849,2.501,2.5293,2.5303,2.543,0.0,0.0,0.0,0.0,0.0,0.0,0.0,0.0,0.0,0.0,0.0,0.0,0.0,0.0,0.0,0.0,0.0,0.0,0.0,0.0,0.0,0.0,0.0,2.6008,0.0,0.0,0.0,0.0,0.0,0.0,0.0,0.0,0.0,2.5708,2.5708,2.5708,2.5708,2.5708,2.5708,2.5708,0.0,0.0,0.0,0.0,0.0,0.0,0.0,2.5708,2.5708,2.5708,2.5708,2.5708,2.5708,2.5708,2.5708,0.0,0.0,2.5708,2.5708,2.5893,2.6552,2.6662,2.6877,2.7531,2.7128,2.6877,0.0,0.0,0.0,0.0,0.0,0.0,0.0,0.0,2.705,2.6663,0.0,2.5077,0.0,0.0,0.0,0.0,0.0,2.6853,0.0,0.0,2.8412,2.8922,2.9135,2.9897,2.9697,2.8609,3.0257,2.9723,2.7184,2.6393,0.0,0.0,0.0,0.0,0.0,0.0,2.4217,2.4434,2.4857,2.5082,2.5121,2.5498,2.5698,2.5689,2.5689,2.5689,2.5708,2.5674,2.5708,2.5708,2.5708,0.0,0.0,0.0,0.0,0.0,0.0,0.0,0.0,0.0,0.0,0.0,0.0,0.0,0.0,0.0,0.0,0.0,0.0,0.0,0.0,2.5972,0.0,0.0,0.0,0.0,0.0,0.0,0.0,0.0,0.0,0.0,2.5708,2.5708,2.5708,2.5708,0.0,0.0,0.0,0.0,2.5732,2.5767,2.5757,2.5757,2.5767,2.5767,2.5757,2.5767,0.0,0.0,2.5767,2.5767,2.5752,2.5732,2.5786,2.5747,2.5786,2.5752,2.5767,2.581,2.5879,2.5791,2.5781,2.5981,2.5913,2.9318,0.0,0.0,0.0,0.0,2.7373,2.6844,2.6282,2.5748,2.5531,2.5513,2.5364,0.0,0.0,0.0,0.0,0.0,0.0,2.7724,2.8208,2.7841,2.8022,2.8647,2.7684,2.7348,2.759,2.8157,2.7678,2.6338,2.6541,2.6194,2.535,0.0,0.0,0.0,0.0,2.4707,2.4877,2.5024,2.5248,2.5513,2.565,2.5708,2.5708,2.5708,2.5708,2.5708,2.5708,2.5708,2.5708,2.5708,0.0,0.0,0.0,0.0,0.0,0.0,0.0,0.0,0.0,0.0,0.0,0.0,0.0,0.0,0.0,0.0,0.0,0.0,0.0,2.574,2.5785,2.5795,0.0,0.0,0.0,0.0,0.0,0.0,0.0,0.0,0.0,2.5708,2.5708,2.5708,0.0,0.0,2.6201,2.6201,2.643,2.6625,2.6625,2.6615,0.0,0.0,2.6625,2.6615,2.6625,2.6625,2.6625,2.6625,2.6625,2.6625,2.6615,2.6625,2.6625,2.6615,2.6371,2.6328,2.6547,2.6625,2.6625,2.6615,2.6615,2.6615,2.9638,2.8536,2.8548,2.8523,2.8409,2.7652,2.7099,2.672,2.6133,2.5867,2.5857,2.5808,2.6055,2.6505,2.6505,0.0,0.0,0.0,2.7794,2.8286,2.8121,2.8243,2.8522,2.7907,2.7466,2.7273,2.8019,2.767,2.6295,2.708,2.7012,2.6136,0.0,0.0,2.5268,2.5036,2.5067,2.5336,2.5332,2.5469,2.5708,2.5708,2.5708,2.5708,2.5708,2.5708,2.5708,2.5708,2.5708,2.5708,2.5708,2.5708,0.0,0.0,0.0,0.0,0.0,0.0,0.0,0.0,0.0,0.0,0.0,2.6183,0.0,0.0,0.0,0.0,2.5931,2.5868,2.5708,2.5708,0.0,0.0,0.0,0.0,0.0,0.0,0.0,2.5708,2.5874,2.5971,2.5971,2.6118,2.6157,2.6016,2.6367,2.6641,2.6631,0.0,2.7012,2.7012,2.7012,2.7012,2.7012,2.7012,2.7012,2.7012,2.7012,2.7012,2.7012,2.7012,2.7012,2.7012,2.7012,2.708,2.7246,2.7086,2.6885,2.6992,2.7012,2.7012,2.7012,2.7012,2.7012,2.9252,2.9209,2.909,2.901,2.8917,2.8265,2.8113,2.8276,2.7481,2.7138,2.7082,2.6352,2.6011,2.6011,2.6011,0.0,2.7203,2.7192,2.7464,2.7979,2.8791,2.8947,2.8654,2.9498,2.9037,2.7357,2.9107,2.8899,2.701,2.7741,2.7589,2.6466,2.5415,2.5076,2.5442,2.5236,2.5322,2.5708,2.5698,2.5708,2.5708,2.5708,2.5708,2.5708,2.5708,2.5708,2.5708,2.5708,2.5708,2.5708,2.5708,2.5708,2.5708,0.0,0.0,0.0,0.0,0.0,0.0,0.0,0.0,0.0,0.0,0.0,0.0,0.0,0.0,0.0,2.5708,0.0,2.5708,2.5708,0.0,0.0,0.0,2.5708,2.5708,2.5713,2.5742,2.5757,0.0,0.0,2.6445,2.6811,2.6922,2.6567,2.6811,2.7045,2.7009,2.7123,2.7142,2.7143,2.7149,2.7185,2.7263,2.7234,2.7227,2.7227,2.7149,2.7263,2.7273,2.7314,2.7256,2.7324,2.7201,2.7373,2.779,2.7888,2.7721,2.7363,2.7256,2.7217,2.7334,2.7353,2.7383,2.987,2.9263,2.8137,2.7806,2.7986,2.7393,2.7029,2.6895,2.6785,2.6633,2.6457,2.6809,2.6954,2.6964,2.6978,2.7071,2.7282,2.7282,2.7335,2.7476,2.7687,2.7717,2.7644,2.788,2.7762,2.7357,2.756,2.7428,2.6924,2.6928,2.6668,2.6211,2.5916,2.5843,2.5908,2.5697,2.5601,2.5708,2.5708,2.5708,2.5708,2.5708,2.5708,2.5708,2.5708,2.5708,2.5708,2.5708,2.5708,2.5708,2.5708,2.5708,2.5708,2.5757,0.0,0.0,0.0,0.0,0.0,0.0,0.0,0.0,0.0,2.5708,2.5708,0.0,2.5708,0.0,2.5708,2.5708,2.5708,2.5708,0.0,0.0,2.5708,2.5708,2.5708,2.601,2.624,2.624,2.64,2.6636,2.6814,2.7328,2.7632,2.7482,2.749,2.7422,2.7214,2.7934,2.8278,2.79,2.8212,2.8498,2.823,2.8232,2.8212,2.8223,2.8434,2.8608,2.8571,2.8828,2.8992,2.8992,2.8965,2.9014,2.909,2.9149,2.91,2.8992,2.8701,2.8547,2.8877,2.8973,2.8945,2.9372,2.8897,2.763,2.7221,2.7332,2.6726,2.6478,2.645,2.6521,2.6536,2.6553,2.7235,2.7503,2.7452,2.7609,2.7765,2.7862,2.7751,2.7751,2.7886,2.7886,2.7824,2.7702,2.7702,2.7629,2.7521,2.736,2.7247,2.7139,2.6957,2.6759,2.6502,2.6487,2.6497,2.6468,2.5967,2.5708,2.5708,2.5708,2.5708,2.5708,2.5708,2.5708,2.5708,2.5708,2.5708,2.5708,2.5708,2.5708,2.5708,2.5708,2.5708,2.5708,2.5708,2.5708,0.0,0.0,0.0,0.0,0.0,0.0,0.0,0.0,0.0,0.0,0.0,2.5708,2.5708,2.5708,2.5708,2.5708,2.5708,2.5786,2.5981,2.6001,2.6069,2.6254,2.6423,2.6544,2.6645,2.6966,2.7239,2.7346,2.8008,2.8347,2.8183,2.8128,2.8029,2.7913,2.8387,2.8628,2.834,2.8614,2.8822,2.8625,2.8597,2.8597,2.8597,2.8738,2.8879,2.8907,2.916,2.9374,2.9374,2.9514,2.9608,2.9608,2.9608,2.9647,2.9803,2.9658,2.9531,2.9588,2.9608,2.9608,2.8401,2.8236,2.7358,2.7012,2.6963,2.6448,2.6342,2.657,2.6633,2.6798,2.7046,2.7633,2.7797,2.7656,2.8004,2.8302,2.8518,2.8313,2.8338,2.8543,2.8543,2.8392,2.8162,2.8152,2.8036,2.7814,2.7763,2.7627,2.7399,2.7364,2.7231,2.7012,2.7012,2.7012,2.6982,2.6245,2.5859,2.5849,2.5849,2.5849,2.5874,2.5874,2.5874,2.5849,2.5849,2.58,2.5644,2.5644,2.5541,2.5361,2.5468,2.5537,2.5504,2.5611,2.5708,0.0,2.5708,0.0,0.0,0.0,0.0,0.0,0.0,0.0,0.0,2.5708,2.5655,2.5566,2.5688,2.5742,2.5644,2.5776,2.603,2.6441,2.6475,2.6631,2.7006,2.6882,2.6863,2.7143,2.7473,2.7709,2.7929,2.8496,2.8691,2.8625,2.8672,2.8691,2.8653,2.8672,2.871,2.8597,2.8615,2.8718,2.87,2.8662,2.8662,2.8672,2.8738,2.87,2.8776,2.9013,2.922,2.9258,2.9466,2.9635,2.968,2.972,2.9886,3.0246,3.0324,3.0275,2.9932,2.9852,2.9764,2.8021,2.7257,2.7088,2.7012,2.7002,2.6887,2.6843,2.6944,2.7372,2.7563,2.7623,2.7753,2.7809,2.7769,2.7859,2.8016,2.8288,2.8212,2.8237,2.8252,2.8277,2.8127,2.79,2.7875,2.7839,2.7789,2.7586,2.745,2.7399,2.718,2.7037,2.7012,2.7012,2.7012,2.7012,0.0,0.0,0.0,2.6752,2.6752,2.6752,2.6752,2.6752,2.6742,2.6742,0.0,2.5351,2.53,2.4743,2.362,2.433,0.0,0.0,0.0,0.0,0.0,0.0,0.0,0.0,0.0,0.0,0.0,2.5708,2.5708,2.5708,2.5708,2.5453,2.4882,2.5693,2.5977,2.5375,2.6181,2.6807,2.6859,2.6869,2.707,2.749,2.7552,2.7756,2.8149,2.7215,2.7018,2.8146,2.7824,2.7692,2.8549,2.909,2.9198,2.8904,2.9015,2.8981,2.8577,2.8712,2.8904,2.8932,2.8934,2.8954,2.8961,2.9158,2.9305,2.9363,2.9578,2.9724,2.9743,2.9811,2.9938,3.018,3.0303,3.0425,3.0767,3.1106,3.1194,3.0752,3.0673,3.0664,2.8095,0.0,2.7637,2.7646,0.0,2.7646,2.7646,2.7633,2.7469,2.7394,2.7429,2.7928,2.8059,2.7967,2.8171,2.84,2.8633,2.8504,2.853,2.8659,2.8633,2.8504,2.8245,2.8245,2.8193,2.8053,2.7923,2.7845,2.7845,2.7715,2.7646,2.7646,2.7646,2.7646,2.7637,2.7646,2.7432,2.7021,2.7012,2.7012,2.7012,2.7012,2.7012,2.7012,0.0,0.0,0.0,0.0,0.0,0.0,0.0,0.0,0.0,0.0,0.0,2.461,2.461,2.461,2.4601,2.461,2.4635,2.4601,2.4635,2.5016,2.5951,2.5699,2.5563,2.5761,2.5815,2.5661,2.5262,2.5368,2.5499,2.5583,2.5729,2.6136,2.6939,2.6523,2.6498,2.7295,2.6408,2.6119,2.7512,2.6837,2.6734,2.7692,2.8089,2.8241,2.8134,2.8683,2.9014,2.8741,2.8867,2.8975,2.9003,2.9207,2.9308,2.9347,2.9594,2.9804,2.9853,3.0095,3.0297,3.0306,3.0396,3.0597,3.0907,3.1019,3.1153,3.1494,3.1769,3.1839,3.1592,3.1523,3.1523,2.8301,2.8301,2.8301,2.8301,2.8301,2.8301,2.8301,2.8242,0.0,0.0,0.0,2.8111,2.8339,2.8176,2.8489,2.8771,2.8999,2.8807,2.8824,2.9026,2.9026,2.8877,2.8648,2.8621,2.8514,2.8291,2.8301,2.8301,2.8301,2.8301,2.8301,2.8301,2.8301,2.8301,2.8301,2.8301,2.7939,2.7285,2.7236,2.7133,2.6927,2.6917,2.6814,2.6597,2.6597,2.652,2.6277,2.5326,2.4703,2.4395,2.369,2.3266,2.3207,2.3384,2.349,2.349,2.349,2.349,2.349,2.349,2.349,2.349,2.3372,2.4018,2.5749,2.5269,2.5284,2.6189,2.5544,2.5056,2.4978,2.458,2.4259,2.4368,2.4584,2.5209,2.625,2.5303,2.5056,2.6062,2.5352,2.5062,2.6236,2.5622,2.5468,2.6437,2.7012,2.715,2.7345,2.8372,2.9145,2.9115,2.9243,2.9262,2.925,2.9501,2.9702,2.973,2.9965,3.0185,3.0266,3.0442,3.0587,3.0553,3.0834,3.1113,3.1438,3.1516,3.1767,3.2163,3.2283,3.2331,3.2331,3.2393,3.2355,2.8301,2.8301,2.8301,2.8301,2.8301,2.8301,2.8301,2.8281,2.8164,2.8105,2.8142,2.8254,2.83,2.8283,2.8352,2.8504,2.8754,2.8711,2.8737,2.8754,2.8754,2.8621,2.8344,2.8344,2.8344,2.8301,2.8301,2.8301,2.8301,2.8301,2.8301,2.8301,2.8301,2.8301,2.8301,2.8301,2.8232,2.8115,2.8115,2.7617,2.6605,2.6578,2.6073,2.5093,2.5057,2.4545,2.3603,2.3437,2.2688,2.1425,2.2057,2.2344,2.2084,2.2958,2.349,2.349,2.349,2.349,2.3499,2.349,2.349,2.3454,2.2873,2.2879,2.3799,2.3808,2.3656,2.3494,2.4251,2.4521,2.4195,2.484,2.5227,2.5303,2.5189,2.5336,2.5805,2.5144,2.4877,2.549,2.4278,2.3824,2.4915,2.4224,2.3976,2.5173,2.6308,2.7494,2.7947,2.8856,2.9446,2.9565,2.9831,3.0002,2.9956,3.0057,3.0103,3.0112,3.0185,3.0296,3.0305,3.0367,3.042,3.0324,3.0658,3.093,3.1259,3.1558,3.1903,3.226,3.2534,3.2746,3.2737,3.2944,3.2957,2.8301,2.8301,2.8301,2.8301,2.8301,2.8301,2.8301,2.8301,2.8301,2.8301,2.8301,2.8301,2.8301,2.8301,2.8301,2.8371,2.8488,2.8488,2.8488,2.8488,2.8488,2.8434,2.8291,2.8301,2.8301,2.8301,2.8301,2.8301,2.8301,2.8301,2.8301,2.831,2.8516,2.8633,2.8652,2.8867,2.9012,2.9002,2.875,2.8016,2.6802,2.6975,2.6489,2.5278,2.525,2.5011,2.4478,2.3826,2.3158,2.2471,2.2152,2.19,2.1777,2.2061,2.2265,2.2257,2.2257,2.2257,2.2237,2.241,2.2598,2.2779,2.2465,2.241,2.2761,2.3231,2.3748,2.4269,2.4335,2.4141,2.3903,2.3826,2.3681,2.3471,2.3331,2.3528,2.4085,2.3396,2.3224,2.3869,2.292,2.2593,2.4001,2.3095,2.2864,2.4209,2.528,2.6191,2.7811,2.8626,2.9003,2.8929,2.9563,3.0145,3.0222,3.0396,3.0497,3.0516,3.0699,3.0818,3.0846,3.0837,3.0827,3.0877,3.1121,3.1382,3.1552,3.2039,3.233,3.2337,3.2641,3.2816,3.2731,3.2889,3.3029,2.8301,2.8301,2.8301,2.8301,2.8301,2.8301,2.8301,2.8301,2.8301,2.8301,2.8301,2.8301,2.8301,2.8301,2.8301,2.8301,2.8301,2.8301,2.8291,2.8301,2.8301,2.8301,2.8301,2.8301,2.834,2.8428,2.8428,2.8486,2.8564,2.8584,2.8601,2.8613,2.8906,2.9062,2.9045,2.9116,2.9141,2.9121,2.8612,2.7828,2.6821,2.6788,2.6154,2.5032,2.4886,2.4915,2.4857,2.4023,2.35,2.3455,2.2422,2.1803,2.1825,2.1569,2.143,2.143,2.143,2.143,2.1445,2.1657,2.1943,2.2154,2.2184,2.2243,2.231,2.289,2.3752,2.468,2.4081,2.3624,2.3584,2.2876,2.2117,2.1854,2.1676,2.1999,2.2529,2.1845,2.1583,2.2479,2.1885,2.1844,2.2612,2.2309,2.2433,2.3786,2.388,2.476,2.7235,2.795,2.7773,2.8271,2.9326,3.0444,3.0479,3.0717,3.0932,3.096,3.1171,3.13,3.1336,3.1382,3.1391,3.1378,3.1639,3.1813,3.1923,3.2339,3.2584,3.2438,3.2594,3.2699,3.2645,3.2731,3.3016,2.8301,2.8301,2.8301,2.8301,2.8301,2.8301,2.8301,2.8301,2.8301,2.8301,2.8301,2.8301,2.8301,2.8301,2.8301,2.8301,2.8301,2.8301,2.8301,2.8301,2.8301,2.8301,2.832,2.831,2.8496,2.8791,2.884,2.9043,2.9393,2.9432,2.9452,2.9481,2.952,2.9512,2.941,2.8371,2.7794,2.7794,2.7019,2.642,2.5976,2.484,2.3685,2.2558,2.2565,2.2528,2.2714,2.2408,2.2363,2.2356,2.2251,2.214,2.2162,2.2133,2.2089,2.2081,2.2081,2.2126,2.2089,2.2148,2.2192,2.2176,2.222,2.2323,2.255,2.2633,2.2717,2.296,2.2845,2.2933,2.3098,2.2783,2.2472,2.2371,2.1947,2.1639,2.175,2.1637,2.1606,2.1703,2.1866,2.2009,2.2187,2.2096,2.2672,2.4055,2.3434,2.3797,2.6331,2.6308,2.6226,2.7406,2.9438,3.0965,3.1107,3.13,3.1327,3.1345,3.1382,3.1483,3.152,3.1501,3.1419,3.157,3.1676,3.1887,3.1919,3.2207,3.2422,3.2316,3.238,3.2517,3.2731,3.2858,3.3048,2.8301,2.8301,2.8301,2.8301,2.8301,2.8301,2.8301,2.8301,2.8301,2.8301,2.8301,2.8301,2.8301,2.8301,2.8301,2.8301,2.8301,2.8301,2.8301,2.832,2.8545,2.8662,2.8682,2.8935,2.9178,2.9287,2.9307,2.9432,2.9569,2.9608,2.9608,2.9637,2.9833,2.9592,2.8889,2.8518,2.8016,2.7231,2.6187,2.5556,2.5373,2.4906,2.4015,2.2878,2.2732,2.2732,2.2732,2.2732,2.2732,2.2718,2.255,2.2409,2.244,2.2279,2.2184,2.2184,2.2184,2.2264,2.2425,2.2447,2.2528,2.271,2.2725,2.2791,2.2893,2.2908,2.2908,2.2908,2.2884,2.2943,2.3067,2.2801,2.2519,2.2321,2.205,2.181,2.1632,2.1766,2.1843,2.185,2.195,2.2064,2.2225,2.2392,2.2809,2.3465,2.3012,2.3663,2.545,2.5338,2.5764,2.7223,2.9217,3.0219,3.034,3.0949,3.1381,3.1671,3.1744,3.1781,3.1983,3.1854,3.1753,3.1735,3.1801,3.1791,3.1612,3.2038,3.2316,3.2125,3.207,3.2198,3.2517,3.2762,3.3007,2.8643,2.8643,2.8643,2.8643,2.8643,2.8643,2.867,2.867,2.8643,2.8643,2.8643,2.8643,2.8643,2.866,2.8525,2.8467,2.8476,2.8594,2.867,2.8672,2.8965,2.9101,2.9141,2.9442,2.9667,2.9755,2.9774,2.9843,2.994,2.995,2.978,2.9535,2.97,2.9226,2.8048,2.7961,2.7418,2.6459,2.5225,2.4548,2.454,2.4548,2.4092,2.3199,2.3106,2.3106,2.3106,2.3106,2.3106,2.3098,2.2879,2.2724,2.2747,2.255,2.2432,2.244,2.244,2.2528,2.2716,2.2754,2.2826,2.3069,2.3106,2.3106,2.312,2.3193,2.3237,2.3245,2.3325,2.3347,2.3089,2.281,2.2482,2.2283,2.2165,2.1955,2.1788,2.1957,2.2104,2.2104,2.2211,2.2325,2.2512,2.2706,2.2935,2.2942,2.2955,2.3454,2.4615,2.4897,2.5101,2.6862,2.8416,2.9396,2.9624,3.0871,3.1718,3.1974,3.2102,3.2065,3.2349,3.2065,3.1818,3.1593,3.1727,3.1713,3.1548,3.1836,3.2061,3.1667,3.1644,3.1974,3.2358,3.2603,3.2921,2.954,2.952,2.954,2.9491,2.953,2.951,2.952,2.9452,2.95,2.952,2.9481,2.9491,2.952,2.9471,2.9082,2.8906,2.8918,2.9277,2.9461,2.9471,2.954,2.9569,2.9569,2.9608,2.9823,3.0156,3.0185,3.0342,3.0694,3.0733,3.0188,2.8965,2.8906,2.8301,2.7043,2.6026,2.5286,2.5071,2.3991,2.3276,2.3252,2.3252,2.3282,2.3164,2.3106,2.3106,2.3106,2.3106,2.3106,2.3106,2.3076,2.3076,2.3076,2.3054,2.3025,2.3032,2.3047,2.3062,2.3084,2.3106,2.3135,2.3142,2.3186,2.3135,2.3223,2.3427,2.3567,2.3574,2.3808,2.3742,2.324,2.2935,2.2648,2.2509,2.224,2.2049,2.2004,2.2225,2.2378,2.2432,2.2599,2.276,2.2847,2.2887,2.2914,2.292,2.2914,2.3447,2.4585,2.4219,2.4393,2.5737,2.7331,2.8731,3.0012,3.1356,3.2238,3.2441,3.2249,3.2074,3.1882,3.1735,3.1579,3.1451,3.1479,3.1492,3.141,3.1442,3.1538,3.1442,3.1474,3.1772,3.2326,3.239,3.274,2.9608,2.9608,2.9608,2.9608,2.9608,2.9608,2.9608,2.9608,2.9608,2.9608,2.9608,2.9608,2.9608,2.9598,2.9697,2.959,2.9393,2.953,2.9608,2.9637,2.9872,2.9999,3.0,3.0264,3.0478,3.0615,3.0635,3.0257,2.963,2.9628,2.8959,2.7885,2.7675,2.7043,2.5928,2.534,2.471,2.3867,2.3523,2.3413,2.3442,2.3625,2.3727,2.3706,2.3318,2.3106,2.3106,2.3106,2.3106,2.3106,2.3106,2.3106,2.3106,2.3106,2.3106,2.3128,2.3303,2.342,2.3442,2.361,2.3735,2.3735,2.3735,2.3713,2.3749,2.3837,2.3903,2.3932,2.3998,2.3965,2.3773,2.3393,2.2997,2.2609,2.2573,2.2465,2.2378,2.2519,2.2733,2.2719,2.2847,2.2893,2.2914,2.29,2.2974,2.312,2.316,2.3566,2.4035,2.3883,2.3985,2.4965,2.6911,2.8801,2.9393,3.1318,3.2554,3.256,3.2459,3.2395,3.2258,3.1928,3.1744,3.1634,3.1533,3.141,3.141,3.141,3.141,3.141,3.1474,3.1804,3.2316,3.2476,3.2826,3.0028,3.0028,3.0028,3.0028,3.0028,3.0018,3.0028,3.0018,3.0028,3.0028,3.0018,3.0018,3.0018,3.0067,3.0293,3.0273,3.0038,3.0028,3.0018,3.0048,3.0293,3.042,3.0469,3.0742,3.0928,3.0918,3.0928,3.0206,2.9048,2.89,2.7996,2.6476,2.6385,2.5745,2.4687,2.4533,2.4104,2.3451,2.3588,2.3757,2.3786,2.3962,2.4118,2.406,2.3647,2.3427,2.3427,2.342,2.3427,2.342,2.3427,2.342,2.342,2.342,2.342,2.3449,2.3632,2.3749,2.3779,2.3954,2.4111,2.4118,2.4111,2.4118,2.4118,2.4181,2.4232,2.4254,2.4357,2.4401,2.4196,2.3965,2.3551,2.2987,2.2988,2.2923,2.264,2.2732,2.2873,2.288,2.2887,2.2934,2.2993,2.3013,2.3166,2.3399,2.3467,2.3594,2.3841,2.3921,2.4008,2.453,2.7026,2.855,2.9528,3.1193,3.2642,3.2817,3.2377,3.2404,3.2322,3.2029,3.1845,3.1772,3.1653,3.1492,3.141,3.141,3.141,3.141,3.1644,3.1942,3.2316,3.2667,3.2953,3.0859,3.0849,3.0908,3.083,3.08,3.08,3.085,3.0791,3.084,3.0781,3.0742,3.084,3.0771,3.083,3.082,3.0869,3.081,3.0752,3.0781,3.08,3.0849,3.0869,3.0869,3.0898,3.0928,3.0928,3.0928,3.0157,2.8811,2.8623,2.7478,2.5493,2.5071,2.451,2.319,2.3595,2.3669,2.3662,2.395,2.4086,2.4126,2.4145,2.4214,2.4192,2.414,2.4086,2.4086,2.4049,2.3998,2.4053,2.4053,2.4104,2.4005,2.4031,2.4075,2.4005,2.4064,2.4086,2.4118,2.4137,2.4236,2.4236,2.4177,2.4228,2.4294,2.4463,2.4609,2.4639,2.4803,2.4885,2.4593,2.4443,2.4134,2.3614,2.3363,2.3215,2.2969,2.2887,2.2907,2.2927,2.2954,2.3013,2.3233,2.3333,2.3454,2.3681,2.381,2.3875,2.4142,2.4209,2.4335,2.5119,2.7112,2.898,2.9977,3.1012,3.2217,3.3046,3.2432,3.2102,3.1955,3.1726,3.1607,3.1566,3.1575,3.141,3.141,3.141,3.141,3.1474,3.174,3.1942,3.2198,3.2508,3.2858,3.0928,3.0928,3.0928,3.0928,3.0928,3.0928,3.0928,3.0928,3.0928,3.0928,3.0928,3.0928,3.0928,3.0928,3.0928,3.0928,3.0928,3.0928,3.0928,3.0928,3.0928,3.0928,3.0928,3.0928,3.0928,3.0928,3.0928,2.9726,2.7979,2.7598,2.6286,2.4178,2.3752,2.3668,2.3459,2.3552,2.3691,2.3947,2.4254,2.4456,2.4477,2.4668,2.4778,2.4793,2.4793,2.4785,2.4771,2.4353,2.4126,2.4133,2.4118,2.4118,2.4126,2.4118,2.4118,2.414,2.4338,2.4448,2.4485,2.4653,2.4763,2.4778,2.4778,2.4785,2.4785,2.4866,2.4924,2.4932,2.5042,2.5025,2.4916,2.4638,2.4201,2.3514,2.3413,2.3277,2.2989,2.2914,2.3,2.3146,2.318,2.332,2.3541,2.3634,2.3754,2.4008,2.4068,2.4182,2.4372,2.4542,2.5052,2.613,2.8038,2.9462,3.0299,3.1114,3.2075,3.2597,3.2157,3.1827,3.1662,3.1593,3.1465,3.141,3.141,3.141,3.141,3.141,3.141,3.141,3.1548,3.1772,3.2006,3.2326,3.2676,3.0928,3.0928,3.0928,3.0928,3.0928,3.0928,3.0928,3.0928,3.0928,3.0928,3.0928,3.0928,3.0928,3.0928,3.0928,3.0928,3.0928,3.0928,3.0928,3.0928,3.0928,3.0928,3.0928,3.0928,3.0928,3.0801,3.0392,2.9057,2.7086,2.6459,2.5225,2.3425,2.3223,2.3384,2.3618,2.3845,2.4071,2.4324,2.4617,2.4785,2.4829,2.4983,2.5093,2.5093,2.5093,2.5093,2.5056,2.4683,2.4477,2.4477,2.4477,2.4477,2.4477,2.4492,2.4477,2.4514,2.4646,2.4785,2.4814,2.4954,2.5093,2.5093,2.5093,2.5086,2.5086,2.5093,2.5093,2.5093,2.5093,2.5093,2.5025,2.4747,2.4224,2.372,2.3502,2.3324,2.3096,2.304,2.3173,2.3394,2.3487,2.3634,2.3834,2.3935,2.4055,2.4289,2.4369,2.4396,2.4693,2.5125,2.6042,2.7171,2.8723,2.9814,3.0556,3.1277,3.1989,3.2019,3.1772,3.1607,3.1511,3.1483,3.141,3.141,3.141,3.141,3.141,3.141,3.141,3.141,3.1451,3.1717,3.2015,3.2134,3.2453,3.0928,3.0928,3.0928,3.0928,3.0928,3.0928,3.0928,3.0928,3.0928,3.0928,3.0928,3.0928,3.0928,3.0928,3.0928,3.0928,3.0928,3.0928,3.0928,3.0928,3.0928,3.0928,3.0928,3.0928,3.0928,3.0733,2.9658,2.8304,2.7013,2.5829,2.4425,2.3252,2.3398,2.361,2.3749,2.4287,2.4551,2.4661,2.4924,2.5056,2.5056,2.5078,2.5093,2.5093,2.5093,2.5093,2.5078,2.502,2.5034,2.5071,2.5005,2.499,2.5056,2.5086,2.5012,2.5005,2.5071,2.5064,2.5078,2.5071,2.5093,2.5093,2.5093,2.5093,2.5093,2.5093,2.5093,2.5093,2.5093,2.5093,2.5018,2.4672,2.4265,2.3918,2.3509,2.3289,2.3295,2.3265,2.3434,2.373,2.3843,2.3937,2.4182,2.4222,2.4356,2.4472,2.4552,2.464,2.5192,2.5896,2.6757,2.8128,2.9759,3.0424,3.1207,3.1454,3.2056,3.1744,3.1552,3.152,3.1428,3.1419,3.141,3.141,3.141,3.141,3.141,3.141,3.141,3.141,3.1548,3.1791,3.1947,3.203,3.2261,3.0928,3.0928,3.0928,3.0928,3.0928,3.0928,3.0928,3.0928,3.0928,3.0928,3.0928,3.0928,3.0928,3.0928,3.0928,3.0928,3.0928,3.0928,3.0928,3.0928,3.0928,3.0928,3.0928,3.0928,3.0928,3.0713,2.9451,2.8236,2.6983,2.5654,2.4371,2.3159,2.3457,2.3767,2.4016,2.4404,2.4719,2.4932,2.5027,2.5093,2.5093,2.5093,2.5093,2.5093,2.5093,2.5093,2.5093,2.5093,2.5093,2.5093,2.5093,2.5093,2.5093,2.5093,2.5093,2.5093,2.5093,2.5093,2.5093,2.5093,2.5093,2.5093,2.5093,2.5093,2.5093,2.5093,2.5093,2.5093,2.5093,2.5093,2.4984,2.451,2.3925,2.3304,2.3133,2.3124,2.3295,2.3305,2.3514,2.3975,2.4082,2.4229,2.4402,2.4466,2.4492,2.4572,2.4673,2.5035,2.5793,2.6641,2.7505,2.9471,3.0964,3.1391,3.1744,3.1869,3.1909,3.1593,3.1456,3.1465,3.1419,3.141,3.141,3.141,3.141,3.141,3.141,3.141,3.141,3.141,3.1474,3.1621,3.1686,3.1783,3.2181,3.0928,3.0928,3.0928,3.0928,3.0928,3.0928,3.0928,3.0928,3.0928,3.0928,3.0928,3.0928,3.0928,3.0928,3.0928,3.0928,3.0928,3.0928,3.0928,3.0928,3.0928,3.0928,3.0928,3.0928,3.0928,3.0684,2.8968,2.7787,2.6762,2.5209,2.3975,2.3519,2.364,2.3962,2.4316,2.4639,2.4888,2.5056,2.5093,2.5093,2.5093,2.5093,2.5093,2.5093,2.5093,2.5093,2.5093,2.5093,2.5093,2.5093,2.5093,2.5093,2.5093,2.5093,2.5093,2.5093,2.5093,2.5093,2.5093,2.5093,2.5093,2.5093,2.5093,2.5093,2.5093,2.5093,2.5093,2.5093,2.5093,2.5093,2.4991,2.4442,2.3789,2.327,2.2996,2.3081,2.346,2.3647,2.3901,2.4235,2.4396,2.4429,2.4586,2.4592,2.4592,2.4592,2.4592,2.5462,2.6473,2.7324,2.8467,3.0391,3.1599,3.1912,3.1811,3.1828,3.1781,3.1483,3.141,3.141,3.141,3.141,3.141,3.141,3.141,3.141,3.141,3.141,3.141,3.141,3.141,3.152,3.1676,3.1909,3.2257,3.0889,3.0859,3.0889,3.0928,3.0928,3.0928,3.0928,3.0928,3.0928,3.0928,3.0928,3.0928,3.0928,3.0928,3.0928,3.0928,3.0928,3.0928,3.0928,3.0928,3.0928,3.0928,3.0928,3.0928,3.0743,3.0225,2.8104,2.7095,2.6178,2.4263,2.3438,2.3545,2.3888,2.4265,2.4551,2.4888,2.5071,2.5086,2.5093,2.5093,2.5093,2.5093,2.5093,2.5093,2.5093,2.5093,2.5093,2.5093,2.5093,2.5093,2.5093,2.5093,2.5093,2.5093,2.5093,2.5093,2.5093,2.5093,2.5093,2.5093,2.5093,2.5093,2.5093,2.5093,2.5093,2.5093,2.5093,2.5093,2.5093,2.5059,2.4883,2.4408,2.3891,2.3454,2.3119,2.3291,2.3649,2.3981,2.4282,2.4546,2.4586,2.4592,2.4592,2.4592,2.4592,2.471,2.4991,2.6181,2.7469,2.8716,2.9797,3.1175,3.1944,3.2338,3.2036,3.1708,3.1593,3.141,3.141,3.141,3.141,3.141,3.141,3.141,3.141,3.141,3.141,3.141,3.141,3.1474,3.152,3.1713,3.1975,3.2249,3.2596,3.0733,3.0538,3.0801,3.0928,3.0928,3.0928,3.0928,3.0928,3.0928,3.0928,3.0928,3.0928,3.0928,3.0928,3.0928,3.0928,3.0928,3.0928,3.0928,3.0928,3.0928,3.0928,3.0928,3.0928,3.0343,2.9303,2.7825,2.6529,2.5331,2.4162,2.3281,2.3618,2.3969,2.4287,2.4624,2.4932,2.5093,2.5093,2.5093,2.5093,2.5093,2.5093,2.5093,2.5093,2.5093,2.5093,2.5093,2.5093,2.5093,2.5093,2.5093,2.5093,2.5093,2.5093,2.5093,2.5093,2.5093,2.5093,2.5093,2.5093,2.5093,2.5093,2.5093,2.5093,2.5093,2.5093,2.5093,2.5093,2.5093,2.4984,2.4747,2.4536,2.4095,2.3646,2.3515,2.3533,2.3504,2.3701,2.4108,2.4426,2.4586,2.4592,2.4592,2.4592,2.4636,2.4747,2.5719,2.7012,2.84,2.9782,3.0911,3.1951,3.2194,3.2432,3.1937,3.1607,3.1511,3.141,3.141,3.141,3.141,3.141,3.141,3.141,3.141,3.141,3.141,3.141,3.1419,3.1488,3.1676,3.2007,3.2302,3.2594,3.2992,3.0704,3.045,3.0733,3.0928,3.0928,3.0928,3.0928,3.0928,3.0928,3.0928,3.0928,3.0928,3.0928,3.0928,3.0928,3.0928,3.0928,3.0928,3.0928,3.0928,3.0928,3.0928,3.0928,3.0801,3.0216,2.887,2.7615,2.6346,2.5065,2.4018,2.3523,2.383,2.4177,2.4529,2.4785,2.5005,2.5086,2.5093,2.5093,2.5093,2.5093,2.5093,2.5093,2.5093,2.5093,2.5093,2.5093,2.5093,2.5093,2.5093,2.5093,2.5093,2.5093,2.5093,2.5093,2.5093,2.5093,2.5093,2.5093,2.5093,2.5093,2.5093,2.5093,2.5093,2.5093,2.5093,2.5093,2.5093,2.5093,2.4984,2.4781,2.4536,2.4197,2.3843,2.3646,2.3562,2.3452,2.3701,2.4062,2.4359,2.4512,2.4572,2.4592,2.4703,2.4629,2.4703,2.6005,2.7295,2.8752,3.0159,3.1392,3.2255,3.2435,3.2386,3.1836,3.1533,3.1465,3.141,3.141,3.141,3.141,3.141,3.141,3.141,3.141,3.141,3.141,3.1419,3.1478,3.1708,3.196,3.2316,3.2696,3.3093,3.3484,3.0674,3.0362,3.0733,3.0928,3.0928,3.0928,3.0928,3.0928,3.0928,3.0928,3.0928,3.0928,3.0928,3.0928,3.0928,3.0928,3.0928,3.0928,3.0928,3.0928,3.0928,3.0928,3.0859,3.0489,2.9726,2.8593,2.7525,2.6255,2.4819,2.409,2.373,2.4104,2.4426,2.4712,2.4998,2.5086,2.5093,2.5093,2.5093,2.5093,2.5093,2.5093,2.5093,2.5093,2.5093,2.5093,2.5093,2.5093,2.5093,2.5093,2.5093,2.5093,2.5093,2.5093,2.5093,2.5093,2.5093,2.5093,2.5093,2.5093,2.5093,2.5093,2.5093,2.5093,2.5093,2.5093,2.5093,2.5093,2.5093,2.5093,2.5059,2.4849,2.4435,2.4027,2.3679,2.3433,2.3371,2.3754,2.3988,2.4272,2.4813,2.5194,2.5017,2.4961,2.4777,2.4954,2.6327,2.7658,2.9111,3.0649,3.1981,3.2422,3.2564,3.2282,3.1698,3.1497,3.1419,3.141,3.141,3.141,3.141,3.141,3.141,3.141,3.141,3.141,3.141,3.141,3.1593,3.1891,3.2217,3.2556,3.3025,3.3552,3.3966,3.0557,3.0049,3.0645,3.0928,3.0928,3.0928,3.0928,3.0928,3.0928,3.0928,3.0928,3.0928,3.0928,3.0928,3.0928,3.0928,3.0928,3.0928,3.0928,3.0928,3.0928,3.0928,3.0772,2.9873,2.8692,2.7615,2.6862,2.5676,2.4106,2.353,2.3855,2.414,2.447,2.4793,2.5012,2.5093,2.5093,2.5093,2.5093,2.5093,2.5093,2.5093,2.5093,2.5093,2.5093,2.5093,2.5093,2.5093,2.5093,2.5093,2.5093,2.5093,2.5093,2.5093,2.5093,2.5093,2.5093,2.5093,2.5093,2.5093,2.5093,2.5093,2.5093,2.5093,2.5093,2.5093,2.5093,2.5093,2.5093,2.5093,2.5093,2.4984,2.4638,2.4197,2.3898,2.3611,2.3226,2.3287,2.3801,2.4325,2.513,2.5984,2.5894,2.5803,2.5779,2.621,2.7317,2.8393,2.9532,3.1204,3.2863,3.2858,3.2567,3.2102,3.1575,3.1492,3.141,3.141,3.141,3.141,3.141,3.141,3.141,3.141,3.141,3.141,3.141,3.141,3.1662,3.201,3.2364,3.2734,3.3277,3.3811,3.419,3.0343,2.9981,3.0626,3.0928,3.0928,3.0928,3.0928,3.0928,3.0928,3.0928,3.0928,3.0928,3.0928,3.0928,3.0928,3.0928,3.0928,3.0928,3.0928,3.0928,3.0928,3.0928,3.0733,2.951,2.8245,2.7134,2.6324,2.5183,2.3565,2.373,2.4031,2.4382,2.4697,2.4939,2.5056,2.5093,2.5093,2.5093,2.5093,2.5093,2.5093,2.5093,2.5093,2.5093,2.5093,2.5093,2.5093,2.5093,2.5093,2.5093,2.5093,2.5093,2.5093,2.5093,2.5093,2.5093,2.5093,2.5093,2.5093,2.5093,2.5093,2.5093,2.5093,2.5093,2.5093,2.5093,2.5093,2.5093,2.5093,2.5093,2.5093,2.5093,2.4713,2.4197,2.3959,2.3618,2.3167,2.3082,2.3781,2.4685,2.5719,2.6585,2.7112,2.7038,2.6953,2.7534,2.8341,2.9131,2.996,3.1756,3.3489,3.2872,3.2404,3.1909,3.1511,3.1465,3.141,3.141,3.141,3.141,3.141,3.141,3.141,3.141,3.141,3.141,3.141,3.1419,3.1763,3.2111,3.2438,3.282,3.3508,3.4024,3.4324,3.0206,2.9951,3.0626,3.0928,3.0928,3.0928,3.0928,3.0928,3.0928,3.0928,3.0928,3.0928,3.0928,3.0928,3.0928,3.0928,3.0928,3.0928,3.0928,3.0928,3.0928,3.0928,3.0518,2.9274,2.7915,2.6969,2.543,2.4392,2.3789,2.3881,2.4265,2.4565,2.491,2.5086,2.5093,2.5093,2.5093,2.5093,2.5093,2.5093,2.5093,2.5093,2.5093,2.5093,2.5093,2.5093,2.5093,2.5093,2.5093,2.5093,2.5093,2.5093,2.5093,2.5093,2.5093,2.5093,2.5093,2.5093,2.5093,2.5093,2.5093,2.5093,2.5093,2.5093,2.5093,2.5093,2.5093,2.5093,2.5093,2.5093,2.5059,2.4991,2.4645,2.4197,2.3891,2.3679,2.327,2.3427,2.4439,2.5419,2.6421,2.718,2.776,2.7745,2.7553,2.7335,2.811,2.9059,3.0067,3.2263,3.348,3.2716,3.2129,3.1703,3.1428,3.1437,3.141,3.141,3.141,3.141,3.141,3.141,3.141,3.141,3.141,3.141,3.141,3.1492,3.179,3.212,3.2441,3.2915,3.3562,3.3958,3.4204,3.0216,2.9961,3.0626,3.0928,3.0928,3.0928,3.0928,3.0928,3.0928,3.0928,3.0928,3.0928,3.0928,3.0928,3.0928,3.0928,3.0928,3.0928,3.0928,3.0928,3.0928,3.0928,3.0528,2.8283,2.762,2.6782,2.4984,2.3871,2.3774,2.4005,2.4309,2.4639,2.4932,2.5093,2.5093,2.5093,2.5093,2.5093,2.5093,2.5093,2.5093,2.5093,2.5093,2.5093,2.5093,2.5093,2.5093,2.5093,2.5093,2.5093,2.5093,2.5093,2.5093,2.5093,2.5093,2.5093,2.5093,2.5093,2.5093,2.5093,2.5093,2.5093,2.5093,2.5093,2.5093,2.5093,2.5093,2.5093,2.5093,2.5093,2.5025,2.4781,2.4401,2.4061,2.3713,2.3406,2.3099,2.3911,2.4912,2.6382,2.7503,2.7971,2.8482,2.8297,2.8094,2.7875,2.7939,2.8984,3.0268,3.241,3.3461,3.2707,3.1992,3.1547,3.141,3.141,3.141,3.141,3.141,3.141,3.141,3.141,3.141,3.141,3.141,3.141,3.141,3.1566,3.1859,3.2157,3.2505,3.3046,3.3642,3.3909,3.4094,3.0039,2.9981,3.0626,3.0928,3.0928,3.0928,3.0928,3.0928,3.0928,3.0928,3.0928,3.0928,3.0928,3.0928,3.0928,3.0928,3.0928,3.0928,3.0928,3.0928,3.0928,3.0928,3.0489,2.9025,2.7917,2.6976,2.5665,2.4647,2.4391,2.4342,2.4558,2.4844,2.5005,2.5093,2.5093,2.5093,2.5093,2.5093,2.5093,2.5093,2.5093,2.5093,2.5093,2.5093,2.5093,2.5093,2.5093,2.5093,2.5093,2.5093,2.5093,2.5093,2.5093,2.5093,2.5093,2.5093,2.5093,2.5093,2.5093,2.5093,2.5093,2.5093,2.5093,2.5093,2.5093,2.5093,2.5093,2.5093,2.5093,2.5093,2.5025,2.4706,2.4367,2.3986,2.3577,2.3406,2.3434,2.4406,2.5435,2.7008,2.8469,2.9002,2.9194,2.865,2.8925,2.9591,2.9346,2.962,3.0829,3.2429,3.2939,3.2698,3.2019,3.1437,3.141,3.141,3.141,3.141,3.141,3.141,3.141,3.141,3.141,3.141,3.141,3.141,3.141,3.1538,3.174,3.2139,3.2588,3.3111,3.3596,3.378,3.3955,2.9856,3.0069,3.0645,3.0928,3.0928,3.0928,3.0928,3.0928,3.0928,3.0928,3.0928,3.0928,3.0928,3.0928,3.0928,3.0928,3.0928,3.0928,3.0928,3.0928,3.0928,3.0928,3.0508,2.9565,2.8661,2.7969,2.6482,2.563,2.5214,2.4915,2.4851,2.5086,2.5071,2.5093,2.5093,2.5093,2.5093,2.5093,2.5093,2.5093,2.5093,2.5093,2.5093,2.5093,2.5093,2.5093,2.5093,2.5093,2.5093,2.5093,2.5093,2.5093,2.5093,2.5093,2.5093,2.5093,2.5093,2.5093,2.5093,2.5093,2.5093,2.5093,2.5093,2.5093,2.5093,2.5093,2.5093,2.5093,2.5093,2.5059,2.4883,2.457,2.4197,2.3816,2.3441,2.3406,2.3706,2.5075,2.6437,2.7965,2.9316,3.0222,3.0101,2.9194,2.9564,3.0908,3.1025,3.0556,3.1424,3.2658,3.2655,3.2542,3.1955,3.1437,3.141,3.141,3.141,3.141,3.141,3.141,3.141,3.141,3.141,3.141,3.141,3.141,3.141,3.1501,3.1639,3.2166,3.268,3.3074,3.345,3.3679,3.3817,2.9756,3.0392,3.0772,3.0928,3.0928,3.0928,3.0928,3.0928,3.0928,3.0928,3.0928,3.0928,3.0928,3.0928,3.0928,3.0928,3.0928,3.0928,3.0928,3.0928,3.0928,3.0928,3.0663,3.0173,2.9516,2.9115,2.7842,2.6971,2.6315,2.5583,2.5308,2.5086,2.5093,2.5093,2.5093,2.5093,2.5093,2.5093,2.5093,2.5093,2.5093,2.5093,2.5093,2.5093,2.5093,2.5093,2.5093,2.5093,2.5093,2.5093,2.5093,2.5093,2.5093,2.5093,2.5093,2.5093,2.5093,2.5093,2.5093,2.5093,2.5093,2.5093,2.5093,2.5093,2.5093,2.5093,2.5093,2.5093,2.5093,2.495,2.4645,2.4231,2.3993,2.4115,2.4108,2.4263,2.4899,2.6262,2.7627,2.8994,3.0024,3.0852,3.0691,2.9688,2.9651,3.0879,3.1048,3.0591,3.1676,3.2753,3.2606,3.2368,3.185,3.1483,3.1419,3.141,3.141,3.141,3.141,3.141,3.141,3.141,3.141,3.141,3.141,3.141,3.1446,3.1575,3.1799,3.2313,3.2771,3.3166,3.3477,3.3734,3.3817,3.0036,3.0694,3.0859,3.0928,3.0928,3.0928,3.0928,3.0928,3.0928,3.0928,3.0928,3.0928,3.0928,3.0928,3.0928,3.0928,3.0928,3.0928,3.0928,3.0928,3.0928,3.1045,3.0964,3.0898,3.0583,3.0195,2.9344,2.8133,2.6912,2.6406,2.5749,2.539,2.5093,2.5093,2.5093,2.5093,2.5093,2.5093,2.5093,2.5093,2.5093,2.5093,2.5093,2.5093,2.5093,2.5093,2.5093,2.5093,2.5093,2.5093,2.5093,2.5093,2.5093,2.5093,2.5093,2.5093,2.5093,2.5093,2.5093,2.5093,2.5093,2.5093,2.5093,2.5093,2.5093,2.5093,2.5093,2.5093,2.5093,2.495,2.4883,2.4435,2.4156,2.4583,2.4873,2.5001,2.5961,2.7254,2.8427,2.9624,3.0455,3.124,3.0746,3.0091,3.031,3.0686,3.0678,3.0904,3.1937,3.2606,3.2432,3.2239,3.1758,3.1492,3.1419,3.141,3.141,3.141,3.141,3.141,3.141,3.141,3.141,3.141,3.141,3.141,3.1483,3.1625,3.1964,3.2432,3.2854,3.3205,3.3532,3.3789,3.3817,2.9997,3.0684,3.083,3.0928,3.0928,3.0928,3.0928,3.0928,3.0928,3.0928,3.0928,3.0928,3.0928,3.0928,3.0928,3.0928,3.0928,3.0928,3.0928,3.0928,3.0967,3.1152,3.1435,3.1588,3.1523,3.1271,3.0765,2.9696,2.7883,2.7336,2.6301,2.545,2.5093,2.5093,2.5093,2.5093,2.5093,2.5093,2.5093,2.5093,2.5093,2.5093,2.5093,2.5093,2.5093,2.5093,2.5093,2.5093,2.5093,2.5093,2.5093,2.5093,2.5093,2.5093,2.5093,2.5093,2.5093,2.5093,2.5093,2.5093,2.5093,2.5093,2.5093,2.5093,2.5093,2.5093,2.5093,2.5093,2.5093,2.5059,2.495,2.4401,2.4054,2.4312,2.4805,2.5169,2.6622,2.7957,2.906,3.0163,3.0852,3.141,3.1207,3.0617,3.0319,3.068,3.1091,3.1285,3.1833,3.2276,3.2175,3.1964,3.1713,3.1529,3.141,3.141,3.141,3.141,3.141,3.141,3.141,3.141,3.141,3.141,3.141,3.141,3.1575,3.1799,3.2139,3.2524,3.2982,3.3452,3.3587,3.3817,3.3817,2.9552,3.0244,3.0693,3.0869,3.0918,3.0928,3.0928,3.0928,3.0928,3.0928,3.0928,3.0928,3.0928,3.0928,3.0928,3.0928,3.0928,3.0928,3.0928,3.0928,3.1006,3.1191,3.1582,3.1922,3.228,3.2411,3.1904,3.074,2.9149,2.8031,2.6694,2.5577,2.5255,2.5093,2.5093,2.5093,2.5093,2.5093,2.5093,2.5093,2.5093,2.5093,2.5093,2.5093,2.5093,2.5093,2.5093,2.5093,2.5093,2.5093,2.5093,2.5093,2.5093,2.5093,2.5093,2.5093,2.5093,2.5093,2.5093,2.5093,2.5093,2.5093,2.5093,2.5093,2.5093,2.5093,2.5093,2.5093,2.5093,2.4883,2.457,2.4224,2.4013,2.4609,2.5237,2.6229,2.7751,2.8846,3.0015,3.0584,3.1014,3.141,3.141,3.1175,3.052,3.0662,3.1291,3.1707,3.1926,3.1955,3.1854,3.1763,3.1584,3.152,3.141,3.141,3.141,3.141,3.141,3.141,3.141,3.141,3.141,3.141,3.141,3.141,3.1703,3.2034,3.2432,3.2881,3.334,3.3734,3.3798,3.3817,3.3817,2.9449,3.0205,3.0361,3.0605,3.0898,3.0928,3.0928,3.0928,3.0928,3.0928,3.0928,3.0928,3.0928,3.0928,3.0928,3.0928,3.0928,3.0928,3.0928,3.0947,3.1133,3.1562,3.1973,3.2364,3.2804,3.3031,3.2632,3.1845,3.0572,2.901,2.7709,2.6661,2.5416,2.5127,2.5093,2.5093,2.5093,2.5093,2.5093,2.5093,2.5093,2.5093,2.5093,2.5093,2.5093,2.5093,2.5093,2.5093,2.5093,2.5093,2.5093,2.5093,2.5093,2.5093,2.5093,2.5093,2.5093,2.5093,2.5093,2.5093,2.5093,2.5093,2.5093,2.5093,2.5093,2.5093,2.5093,2.5093,2.5093,2.4883,2.4536,2.4197,2.4386,2.6144,2.7137,2.8188,2.9378,3.021,3.1014,3.1111,3.141,3.141,3.141,3.141,3.0917,3.0788,3.137,3.1486,3.1643,3.1639,3.1566,3.1524,3.1465,3.1437,3.141,3.141,3.141,3.141,3.141,3.141,3.141,3.141,3.141,3.141,3.141,3.1437,3.1814,3.2203,3.2799,3.3294,3.3624,3.3807,3.3817,3.3817,3.3817,2.9336,2.9971,3.0137,3.0459,3.085,3.0928,3.0928,3.0928,3.0928,3.0928,3.0928,3.0928,3.0928,3.0928,3.0928,3.0928,3.0928,3.0928,3.0928,3.0986,3.1328,3.1719,3.2179,3.2638,3.2959,3.3279,3.3155,3.247,3.0387,2.9607,2.804,2.6401,2.5577,2.5187,2.5093,2.5093,2.5093,2.5093,2.5093,2.5093,2.5093,2.5093,2.5093,2.5093,2.5093,2.5093,2.5093,2.5093,2.5093,2.5093,2.5093,2.5093,2.5093,2.5093,2.5093,2.5093,2.5093,2.5093,2.5093,2.5093,2.5093,2.5093,2.5093,2.5093,2.5093,2.5093,2.5093,2.5093,2.5093,2.4849,2.4536,2.4197,2.4955,2.6679,2.7693,2.8682,2.9852,3.0584,3.124,3.1377,3.141,3.141,3.141,3.141,3.124,3.1313,3.1419,3.141,3.141,3.141,3.141,3.141,3.1419,3.141,3.141,3.141,3.141,3.141,3.141,3.141,3.141,3.141,3.141,3.141,3.1428,3.1557,3.1928,3.2395,3.301,3.3422,3.3707,3.3817,3.3817,3.3817,3.3817,2.915,2.9618,3.0,3.043,3.081,3.0859,3.0928,3.0928,3.0928,3.0928,3.0928,3.0928,3.0928,3.0928,3.0928,3.0928,3.0928,3.0928,3.0928,3.1084,3.1426,3.1846,3.2257,3.2687,3.3086,3.3279,3.3219,3.2416,2.9737,2.928,2.785,2.5846,2.5221,2.5093,2.5093,2.5093,2.5093,2.5093,2.5093,2.5093,2.5093,2.5093,2.5093,2.5093,2.5093,2.5093,2.5093,2.5093,2.5093,2.5093,2.5093,2.5093,2.5093,2.5093,2.5093,2.5093,2.5093,2.5093,2.5093,2.5093,2.5093,2.5093,2.5093,2.5093,2.5093,2.5093,2.5093,2.5093,2.5059,2.4815,2.4536,2.4665,2.4854,2.6043,2.7062,2.8254,2.9559,3.0422,3.1143,3.141,3.141,3.141,3.141,3.141,3.141,3.141,3.141,3.141,3.141,3.141,3.141,3.141,3.141,3.141,3.141,3.141,3.141,3.141,3.141,3.141,3.141,3.141,3.141,3.1419,3.1456,3.1694,3.2139,3.267,3.3205,3.3544,3.3789,3.3817,3.3817,3.3817,3.3817,2.873,2.9141,2.957,3.0028,3.042,3.0752,3.0928,3.0928,3.0928,3.0928,3.0928,3.0928,3.0928,3.0928,3.0928,3.0928,3.0928,3.0928,3.0928,3.1172,3.1611,3.1983,3.2413,3.2851,3.3232,3.3338,3.3228,3.2838,3.1758,3.0484,2.7709,2.5551,2.5127,2.5093,2.5093,2.5093,2.5093,2.5093,2.5093,2.5093,2.5093,2.5093,2.5093,2.5093,2.5093,2.5093,2.5093,2.5093,2.5093,2.5093,2.5093,2.5093,2.5093,2.5093,2.5093,2.5093,2.5093,2.5093,2.5093,2.5093,2.5093,2.5093,2.5093,2.5093,2.5093,2.5093,2.5093,2.5093,2.5059,2.4883,2.4875,2.5003,2.5555,2.6571,2.766,2.8887,3.0089,3.0746,3.141,3.141,3.141,3.141,3.141,3.141,3.141,3.141,3.141,3.141,3.141,3.141,3.141,3.141,3.141,3.141,3.141,3.141,3.141,3.141,3.141,3.141,3.141,3.141,3.141,3.1492,3.1639,3.1974,3.2432,3.2955,3.3434,3.3633,3.3817,3.3817,3.3817,3.3817,3.3817,2.8535,2.8935,2.9199,2.9648,3.0225,3.0693,3.0928,3.0928,3.0928,3.0928,3.0928,3.0928,3.0928,3.0928,3.0928,3.0928,3.0928,3.0898,3.0967,3.1357,3.1866,3.2218,3.2607,3.3037,3.3299,3.3386,3.325,3.2934,3.2142,2.9859,2.702,2.5322,2.5093,2.5093,2.5093,2.5093,2.5093,2.5093,2.5093,2.5093,2.5093,2.5093,2.5093,2.5093,2.5093,2.5093,2.5093,2.5093,2.5093,2.5093,2.5093,2.5093,2.5093,2.5093,2.5093,2.5093,2.5093,2.5093,2.5093,2.5093,2.5093,2.5093,2.5093,2.5093,2.5093,2.5093,2.5093,2.5093,2.5052,2.5052,2.518,2.5435,2.6486,2.7535,2.8666,2.9828,3.0552,3.124,3.141,3.141,3.141,3.141,3.141,3.141,3.141,3.141,3.141,3.141,3.141,3.141,3.141,3.141,3.141,3.141,3.141,3.141,3.141,3.141,3.141,3.141,3.141,3.141,3.141,3.1639,3.1882,3.2258,3.2634,3.3147,3.3571,3.3743,3.3817,3.3817,3.3817,3.3817,3.3817,2.8516,2.884,2.8916,2.9434,3.0205,3.0635,3.084,3.0889,3.0928,3.0928,3.0928,3.0928,3.0928,3.0928,3.0928,3.0928,3.0928,3.0928,3.1103,3.1494,3.1964,3.2355,3.2744,3.3203,3.3347,3.3386,3.3219,3.2797,3.0992,2.9141,2.7253,2.5322,2.5093,2.5255,2.5551,2.5194,2.5423,2.6182,2.5551,2.5093,2.5093,2.5093,2.5093,2.5093,2.5093,2.5093,2.5093,2.5093,2.5093,2.5093,2.5093,2.5093,2.5093,2.5093,2.5093,2.5093,2.5093,2.5093,2.5093,2.5093,2.5093,2.5093,2.5093,2.5093,2.5093,2.5093,2.5093,2.5093,2.5059,2.5416,2.5644,2.6427,2.7436,2.8493,2.9591,3.0422,3.0982,3.141,3.141,3.141,3.141,3.141,3.141,3.141,3.141,3.141,3.141,3.141,3.141,3.141,3.141,3.141,3.141,3.141,3.141,3.141,3.141,3.141,3.141,3.141,3.141,3.141,3.1419,3.1708,3.2056,3.2404,3.2808,3.3312,3.367,3.3762,3.3817,3.3817,3.3817,3.3817,3.3817,2.835,2.8476,2.8762,2.9386,3.0156,3.0312,3.0576,3.0918,3.0928,3.0928,3.0928,3.0928,3.0928,3.0928,3.0928,3.0928,3.0928,3.0947,3.1152,3.1533,3.2003,3.2423,3.2803,3.3213,3.3357,3.3386,3.3187,3.2661,3.112,2.9459,2.7941,2.6594,2.5906,2.5584,2.6133,2.5712,2.6141,2.7194,2.6342,2.5618,2.5524,2.5228,2.5093,2.5127,2.5153,2.5093,2.5093,2.5093,2.5093,2.5093,2.5093,2.5093,2.5093,2.5093,2.5093,2.5093,2.5093,2.5093,2.5093,2.5127,2.5161,2.5194,2.5194,2.5127,2.5093,2.5093,2.5161,2.5194,2.5255,2.5685,2.6435,2.7411,2.8361,2.9428,3.0422,3.0917,3.1377,3.1377,3.141,3.141,3.141,3.141,3.141,3.141,3.141,3.141,3.141,3.141,3.141,3.141,3.141,3.141,3.141,3.141,3.141,3.141,3.141,3.141,3.141,3.141,3.141,3.141,3.1423,3.1863,3.2249,3.2579,3.2955,3.3441,3.3725,3.3798,3.3817,3.3817,3.3817,3.3817,3.3817,2.8301,2.834,2.875,2.9152,2.9639,3.0019,3.0351,3.0586,3.083,3.0928,3.0928,3.0928,3.0928,3.0928,3.0928,3.0928,3.0928,3.0928,3.1162,3.1543,3.1963,3.2393,3.2812,3.3213,3.3318,3.3386,3.3292,3.267,3.1378,2.9859,2.8427,2.7352,2.6368,2.6141,2.6627,2.6501,2.7194,2.804,2.7153,2.6961,2.6568,2.5981,2.5678,2.5644,2.5517,2.5322,2.5093,2.5093,2.5093,2.5093,2.5093,2.5093,2.5093,2.5093,2.5093,2.5093,2.5093,2.5093,2.5093,2.5127,2.539,2.5618,2.5947,2.6107,2.7219,2.7286,2.6769,2.6635,2.5322,2.5524,2.7286,2.8493,2.9018,2.9852,3.0788,3.1451,3.1515,3.141,3.141,3.141,3.141,3.141,3.141,3.141,3.141,3.141,3.141,3.141,3.141,3.141,3.141,3.141,3.141,3.141,3.141,3.141,3.141,3.141,3.141,3.141,3.141,3.1419,3.1497,3.1955,3.2368,3.2707,3.312,3.356,3.3743,3.3807,3.3817,3.3817,3.3817,3.3817,3.3817,2.8301,2.835,2.8682,2.8877,2.9033,2.9756,3.0156,3.0283,3.0693,3.0928,3.0928,3.0928,3.0928,3.0928,3.0928,3.0928,3.0928,3.0928,3.1162,3.1543,3.1963,3.2393,3.2812,3.3193,3.3308,3.3386,3.3355,3.2724,3.1803,3.0443,2.9215,2.7908,2.7319,2.6953,2.6861,2.7585,2.8961,2.9018,2.8887,2.928,2.837,2.6994,2.6728,2.646,2.6174,2.5517,2.5551,2.5652,2.5685,2.5618,2.5712,2.5322,2.5161,2.5093,2.5093,2.5093,2.5093,2.5093,2.5093,2.5093,2.5872,2.6561,2.6986,2.7676,2.8723,2.8887,2.8337,2.7841,2.6568,2.6635,2.8394,2.9411,2.9876,3.0349,3.1216,3.175,3.1548,3.141,3.141,3.141,3.141,3.141,3.141,3.141,3.141,3.141,3.141,3.141,3.141,3.141,3.141,3.141,3.141,3.141,3.141,3.141,3.141,3.141,3.141,3.141,3.1437,3.1524,3.1726,3.2084,3.2478,3.2866,3.3196,3.3589,3.3743,3.3817,3.3817,3.3817,3.3817,3.3817,3.3817,2.8301,2.8301,2.8389,2.8603,2.8965,2.9482,2.9901,3.0234,3.0684,3.0928,3.0928,3.0928,3.0928,3.0928,3.0928,3.0928,3.0928,3.0928,3.1152,3.1503,3.1983,3.2413,3.2793,3.3174,3.3328,3.3386,3.3386,3.3187,3.2365,3.1387,3.0766,3.0248,2.9051,2.9084,2.9924,3.0354,3.0127,3.0354,3.0257,3.0331,3.0913,2.9631,2.8031,2.7676,2.7477,2.7709,2.804,2.837,2.8403,2.8106,2.7186,2.62,2.5584,2.5194,2.5093,2.5093,2.5093,2.5093,2.5093,2.5322,2.6133,2.7253,2.7676,2.8295,2.9149,2.9672,2.9639,3.0281,2.9468,2.9239,3.0378,3.054,3.0936,3.1253,3.1901,3.1676,3.1442,3.141,3.141,3.141,3.141,3.141,3.141,3.141,3.141,3.141,3.141,3.141,3.141,3.141,3.141,3.141,3.141,3.141,3.141,3.141,3.141,3.141,3.141,3.141,3.152,3.1753,3.201,3.2304,3.2744,3.3159,3.347,3.3716,3.3752,3.3817,3.3817,3.3817,3.3817,3.3817,3.3817]},{"header":{"parameterUnit":"m.s-1","parameterCategory":1,"la1":31.0,"la2":29.5877,"lo1":-88.7671,"lo2":-86.6584,"dy":0.0162,"dx":0.0185,"nx":115,"ny":88,"refTime":"2023-05-23T12:00:00:Z","depth":0,"parameterNumber":3,"parameterNumberName":"V-component_of_WINDS"},"data":[0.0,0.0,0.0,0.0,0.0,0.0,0.0,0.0,0.0,0.0,0.0,0.0,0.0,0.0,0.0,0.0,0.0,0.0,0.0,0.0,0.0,0.0,0.0,0.0,0.0,0.0,0.0,0.0,0.0,0.0,0.0,0.0,0.0,0.0,0.0,0.0,0.0,0.0,0.0,0.0,0.0,0.0,0.0,0.0,0.0,0.0,0.0,0.0,0.0,0.0,0.0,0.0,0.0,0.0,0.0,0.0,0.0,0.0,0.0,0.0,0.0,0.0,0.0,0.0,0.0,0.0,0.0,0.0,0.0,0.0,0.0,0.0,0.0,0.0,0.0,0.0,0.0,0.0,0.0,0.0,0.0,0.0,0.0,0.0,0.0,0.0,0.0,0.0,0.0,0.0,0.0,0.0,0.0,0.0,0.0,0.0,0.0,0.0,0.0,0.0,0.0,0.0,0.0,0.0,0.0,0.0,0.0,0.0,0.0,0.0,0.0,0.0,0.0,0.0,0.0,0.0,0.0,0.0,0.0,0.0,0.0,0.0,0.0,0.0,0.0,0.0,0.0,0.0,0.0,0.0,0.0,0.0,0.0,0.0,0.0,0.0,0.0,0.0,0.0,0.0,0.0,0.0,0.0,0.0,0.0,0.0,0.0,0.0,0.0,0.0,0.0,0.0,0.0,0.0,0.0,0.0,0.0,0.0,0.0,0.0,0.0,0.0,0.0,0.0,0.0,0.0,0.0,0.0,0.0,0.0,0.0,0.0,0.0,0.0,0.0,0.0,0.0,0.0,0.0,0.0,0.0,0.0,0.0,0.0,0.0,0.0,0.0,0.0,0.0,0.0,0.0,0.0,0.0,0.0,0.0,0.0,0.0,0.0,0.0,0.0,0.0,0.0,0.0,0.0,0.0,0.0,0.0,0.0,0.0,0.0,0.0,0.0,0.0,0.0,0.0,0.0,0.0,0.0,0.0,0.0,0.0,0.0,0.0,0.0,0.0,0.0,0.0,0.0,0.0,0.0,0.0,0.0,0.0,0.0,0.0,0.0,0.0,0.0,0.0,0.0,0.0,0.0,0.0,0.0,0.0,0.0,0.0,0.0,0.0,0.0,0.0,0.0,0.0,0.0,0.0,0.0,0.0,0.0,0.0,0.0,0.0,0.0,0.0,0.0,0.0,0.0,0.0,0.0,0.0,0.0,0.0,0.0,0.0,0.0,0.0,0.0,0.0,0.0,0.0,0.0,0.0,0.0,0.0,0.0,0.0,0.0,0.0,0.0,0.0,0.0,0.0,0.0,0.0,0.0,0.0,0.0,0.0,0.0,0.0,0.0,0.0,0.0,0.0,0.0,0.0,0.0,0.0,0.0,0.0,0.0,0.0,0.0,0.0,0.0,0.0,0.0,0.0,0.0,0.0,0.0,0.0,0.0,0.0,0.0,0.0,0.0,0.0,0.0,0.0,0.0,0.0,0.0,0.0,0.0,0.0,0.0,0.0,0.0,0.0,0.0,0.0,0.0,0.0,0.0,0.0,0.0,0.0,0.0,0.0,0.0,0.0,0.0,0.0,0.0,0.0,0.0,0.0,0.0,0.0,0.0,0.0,0.0,0.0,0.0,0.0,0.0,0.0,0.0,0.0,0.0,0.0,0.0,0.0,0.0,0.0,0.0,0.0,0.0,0.0,0.0,0.0,0.0,0.0,0.0,0.0,0.0,0.0,0.0,0.0,0.0,0.0,0.0,0.0,0.0,0.0,0.0,0.0,0.0,0.0,0.0,0.0,0.0,0.0,0.0,0.0,0.0,0.0,0.0,0.0,0.0,0.0,0.0,0.0,0.0,0.0,0.0,0.0,0.0,0.0,0.0,0.0,0.0,0.0,0.0,0.0,0.0,0.0,0.0,0.0,0.0,0.0,0.0,0.0,0.0,0.0,0.0,0.0,0.0,0.0,0.0,0.0,0.0,0.0,0.0,0.0,0.0,0.0,0.0,0.0,0.0,0.0,0.0,0.0,0.0,0.0,0.0,0.0,0.0,0.0,0.0,0.0,0.0,0.0,0.0,0.0,0.0,0.0,0.0,0.0,0.0,0.0,0.0,0.0,0.0,0.0,0.0,0.0,0.0,0.0,0.0,0.0,0.0,0.0,0.0,0.0,0.0,0.0,0.0,0.0,0.0,0.0,0.0,0.0,0.0,0.0,0.0,0.0,0.0,0.0,0.0,0.0,0.0,0.0,0.0,0.0,0.0,0.0,0.0,0.0,0.0,0.0,0.0,0.0,0.0,0.0,0.0,0.0,0.0,0.0,0.0,0.0,0.0,0.0,0.0,0.0,0.0,0.0,0.0,0.0,0.0,0.0,0.0,0.0,0.0,0.0,0.0,0.0,0.0,0.0,0.0,0.0,0.0,0.0,0.0,0.0,0.0,0.0,0.0,0.0,0.0,0.0,0.0,0.0,0.0,0.0,0.0,0.0,0.0,0.0,0.0,0.0,0.0,0.0,0.0,0.0,0.0,0.0,0.0,0.0,0.0,0.0,0.0,0.0,0.0,0.0,0.0,0.0,0.0,0.0,0.0,0.0,0.0,0.0,0.0,0.0,0.0,0.0,0.0,0.0,0.0,0.0,0.0,0.0,0.0,0.0,0.0,0.0,0.0,0.0,0.0,0.0,0.0,0.0,0.0,0.0,0.0,0.0,0.0,0.0,0.0,0.0,0.0,0.0,0.0,0.0,0.0,0.0,0.0,0.0,0.0,0.0,0.0,0.0,0.0,0.0,0.0,0.0,0.0,0.0,0.0,0.0,0.0,0.0,0.0,0.0,0.0,0.0,0.0,0.0,0.0,0.0,0.0,0.0,0.0,0.0,0.0,0.0,0.0,0.0,0.0,0.0,0.0,0.0,0.0,0.0,0.0,0.0,0.0,0.0,0.0,0.0,0.0,0.0,0.0,0.0,0.0,0.0,0.0,0.0,0.0,0.0,0.0,0.0,0.0,0.0,0.0,0.0,0.0,0.0,0.0,0.0,0.0,0.0,0.0,0.0,0.0,0.0,0.0,0.0,0.0,0.0,0.0,0.0,0.0,0.0,0.0,0.0,0.0,0.0,0.0,0.0,0.0,0.0,0.0,0.0,0.0,0.0,0.0,0.0,0.0,0.0,0.0,0.0,0.0,0.0,0.0,0.0,0.0,0.0,0.0,0.0,0.0,0.0,0.0,0.0,0.0,0.0,0.0,0.0,0.0,0.0,0.0,0.0,0.0,0.0,0.0,0.0,0.0,0.0,0.0,0.0,0.0,0.0,0.0,0.0,0.0,0.0,0.0,0.0,0.0,0.0,0.0,0.0,0.0,0.0,0.0,0.0,0.0,0.0,0.0,0.0,0.0,0.0,0.0,0.0,0.0,0.0,0.0,0.0,0.0,0.0,0.0,0.0,0.0,0.0,0.0,0.0,0.0,0.0,0.0,0.0,0.0,0.0,0.0,0.0,0.0,0.0,0.0,0.0,0.0,0.0,0.0,0.0,0.0,0.0,0.0,0.0,0.0,0.0,0.0,0.0,0.0,0.0,0.0,0.0,0.0,0.0,0.0,0.0,0.0,0.0,0.0,0.0,0.0,0.0,0.0,0.0,0.0,0.0,0.0,0.0,0.0,0.0,0.0,0.0,0.0,0.0,0.0,0.0,0.0,0.0,0.0,0.0,0.0,0.0,0.0,0.0,0.0,0.0,0.0,0.0,0.0,0.0,0.0,0.0,0.0,0.0,0.0,0.0,0.0,0.0,0.0,0.0,0.0,0.0,0.0,0.0,0.0,0.0,0.0,0.0,0.0,0.0,0.0,0.0,0.0,0.0,0.0,0.0,0.0,0.0,0.0,0.0,0.0,0.0,0.0,0.0,0.0,0.0,0.0,0.0,0.0,0.0,0.0,0.0,0.0,0.0,0.0,0.0,0.0,0.0,0.0,0.0,0.0,0.0,0.0,0.0,0.0,0.0,0.0,0.0,0.0,0.0,0.0,0.0,0.0,0.0,0.0,0.0,0.0,0.0,0.0,0.0,0.0,0.0,0.0,0.0,0.0,0.0,0.0,0.0,0.0,0.0,0.0,0.0,0.0,0.0,0.0,0.0,0.0,0.0,0.0,0.0,0.0,0.0,0.0,0.0,0.0,0.0,0.0,0.0,0.0,0.0,0.0,0.0,0.0,0.0,0.0,0.0,0.0,0.0,0.0,0.0,0.0,0.0,0.0,0.0,0.0,0.0,0.0,0.0,0.0,0.0,0.0,0.0,0.0,3.0912,0.0,0.0,0.0,0.0,0.0,0.0,0.0,0.0,0.0,0.0,0.0,0.0,0.0,0.0,0.0,0.0,0.0,0.0,0.0,0.0,0.0,0.0,0.0,0.0,0.0,0.0,0.0,0.0,0.0,0.0,0.0,0.0,0.0,0.0,0.0,0.0,0.0,0.0,0.0,0.0,0.0,0.0,0.0,0.0,0.0,0.0,0.0,0.0,0.0,0.0,0.0,0.0,0.0,0.0,0.0,0.0,0.0,0.0,0.0,0.0,0.0,0.0,0.0,0.0,0.0,0.0,0.0,0.0,0.0,0.0,0.0,0.0,0.0,0.0,0.0,0.0,0.0,0.0,0.0,0.0,0.0,0.0,0.0,0.0,0.0,0.0,0.0,0.0,0.0,0.0,0.0,0.0,0.0,0.0,0.0,0.0,0.0,0.0,0.0,0.0,0.0,0.0,0.0,0.0,0.0,0.0,0.0,0.0,0.0,0.0,3.0681,3.0692,3.0743,3.08,3.08,0.0,0.0,0.0,0.0,0.0,0.0,0.0,0.0,0.0,0.0,0.0,0.0,0.0,0.0,0.0,0.0,0.0,0.0,0.0,0.0,0.0,0.0,0.0,0.0,0.0,0.0,0.0,0.0,0.0,0.0,0.0,0.0,0.0,0.0,0.0,0.0,0.0,0.0,0.0,0.0,0.0,0.0,0.0,0.0,0.0,0.0,0.0,0.0,0.0,0.0,0.0,0.0,0.0,0.0,0.0,0.0,0.0,0.0,0.0,0.0,0.0,0.0,0.0,0.0,0.0,0.0,0.0,0.0,0.0,0.0,0.0,0.0,0.0,0.0,0.0,0.0,0.0,0.0,0.0,0.0,0.0,0.0,0.0,0.0,0.0,0.0,0.0,0.0,0.0,0.0,0.0,0.0,0.0,0.0,0.0,0.0,0.0,0.0,0.0,0.0,0.0,0.0,0.0,0.0,0.0,0.0,0.0,0.0,0.0,0.0,0.0,0.0,3.0651,3.0816,3.1041,0.0,0.0,0.0,0.0,0.0,0.0,0.0,0.0,0.0,0.0,0.0,0.0,0.0,0.0,0.0,0.0,0.0,0.0,0.0,0.0,0.0,0.0,0.0,0.0,0.0,0.0,0.0,0.0,0.0,0.0,0.0,0.0,0.0,0.0,0.0,0.0,0.0,0.0,0.0,0.0,0.0,0.0,0.0,0.0,0.0,0.0,0.0,0.0,0.0,0.0,0.0,0.0,0.0,0.0,0.0,0.0,0.0,0.0,0.0,0.0,0.0,0.0,0.0,0.0,0.0,0.0,0.0,0.0,0.0,0.0,0.0,0.0,0.0,0.0,0.0,0.0,0.0,0.0,0.0,0.0,0.0,0.0,0.0,0.0,0.0,0.0,0.0,0.0,0.0,0.0,0.0,0.0,0.0,0.0,0.0,0.0,0.0,0.0,0.0,0.0,0.0,0.0,0.0,0.0,0.0,0.0,0.0,0.0,0.0,0.0,3.0603,3.0861,3.077,0.0,3.195,0.0,0.0,0.0,0.0,0.0,0.0,0.0,0.0,0.0,0.0,0.0,0.0,0.0,0.0,0.0,0.0,0.0,0.0,0.0,0.0,0.0,0.0,0.0,0.0,0.0,0.0,0.0,0.0,0.0,0.0,0.0,0.0,0.0,0.0,0.0,0.0,0.0,0.0,0.0,0.0,0.0,0.0,0.0,0.0,0.0,0.0,0.0,0.0,0.0,0.0,0.0,0.0,0.0,0.0,0.0,0.0,0.0,0.0,0.0,0.0,0.0,0.0,0.0,0.0,0.0,0.0,0.0,0.0,0.0,0.0,0.0,0.0,0.0,0.0,0.0,0.0,0.0,0.0,0.0,0.0,0.0,0.0,0.0,0.0,0.0,0.0,0.0,0.0,0.0,0.0,0.0,0.0,0.0,0.0,0.0,0.0,0.0,0.0,0.0,0.0,0.0,0.0,0.0,0.0,0.0,0.0,0.0,0.0,0.0,0.0,3.0589,3.0773,3.1273,3.1714,0.0,0.0,0.0,0.0,0.0,0.0,0.0,0.0,0.0,0.0,0.0,0.0,0.0,0.0,0.0,0.0,0.0,0.0,0.0,0.0,0.0,0.0,0.0,0.0,0.0,0.0,0.0,0.0,0.0,0.0,0.0,0.0,0.0,0.0,0.0,0.0,0.0,0.0,0.0,0.0,0.0,0.0,0.0,0.0,0.0,0.0,0.0,0.0,0.0,0.0,0.0,0.0,0.0,0.0,0.0,0.0,0.0,0.0,0.0,0.0,0.0,0.0,0.0,0.0,0.0,0.0,0.0,0.0,0.0,0.0,0.0,0.0,0.0,0.0,0.0,0.0,0.0,0.0,0.0,0.0,0.0,0.0,0.0,0.0,0.0,0.0,0.0,0.0,0.0,0.0,0.0,0.0,0.0,0.0,0.0,0.0,0.0,0.0,0.0,0.0,0.0,0.0,0.0,0.0,0.0,0.0,0.0,0.0,0.0,0.0,3.0526,3.0688,3.106,3.1949,3.2507,3.2767,0.0,0.0,0.0,0.0,0.0,0.0,0.0,0.0,0.0,0.0,0.0,0.0,0.0,0.0,0.0,0.0,0.0,0.0,0.0,0.0,0.0,0.0,0.0,0.0,0.0,0.0,0.0,0.0,0.0,0.0,0.0,0.0,0.0,0.0,0.0,0.0,0.0,0.0,0.0,0.0,0.0,0.0,0.0,0.0,0.0,0.0,0.0,0.0,0.0,0.0,0.0,0.0,0.0,0.0,0.0,0.0,0.0,0.0,0.0,0.0,0.0,0.0,0.0,0.0,0.0,0.0,0.0,0.0,0.0,0.0,0.0,0.0,0.0,0.0,0.0,0.0,0.0,0.0,0.0,0.0,0.0,0.0,0.0,0.0,0.0,0.0,0.0,0.0,0.0,0.0,0.0,0.0,0.0,0.0,0.0,0.0,0.0,0.0,0.0,0.0,0.0,0.0,0.0,0.0,0.0,0.0,0.0,0.0,3.0688,3.0578,3.0979,3.1926,3.2752,3.3532,0.0,0.0,0.0,0.0,0.0,0.0,0.0,0.0,0.0,0.0,0.0,0.0,0.0,0.0,0.0,0.0,0.0,0.0,0.0,0.0,0.0,0.0,0.0,0.0,0.0,0.0,0.0,0.0,0.0,0.0,0.0,0.0,0.0,0.0,0.0,0.0,0.0,0.0,0.0,0.0,0.0,0.0,0.0,0.0,0.0,0.0,0.0,0.0,0.0,0.0,0.0,0.0,0.0,0.0,0.0,0.0,0.0,0.0,0.0,0.0,0.0,0.0,0.0,0.0,0.0,0.0,0.0,0.0,0.0,0.0,0.0,0.0,0.0,0.0,0.0,0.0,0.0,0.0,0.0,0.0,0.0,0.0,0.0,0.0,0.0,0.0,0.0,0.0,0.0,0.0,0.0,0.0,0.0,0.0,0.0,0.0,0.0,0.0,0.0,0.0,0.0,0.0,0.0,0.0,0.0,0.0,0.0,0.0,0.0,3.0584,3.1074,3.1757,3.2679,3.3438,3.4062,0.0,0.0,0.0,0.0,0.0,0.0,0.0,0.0,0.0,0.0,0.0,0.0,0.0,0.0,0.0,0.0,0.0,0.0,0.0,0.0,0.0,0.0,0.0,0.0,0.0,0.0,0.0,0.0,0.0,0.0,0.0,0.0,0.0,0.0,0.0,0.0,0.0,0.0,0.0,0.0,0.0,0.0,0.0,0.0,0.0,0.0,0.0,0.0,0.0,0.0,0.0,0.0,0.0,0.0,0.0,0.0,0.0,0.0,0.0,0.0,0.0,0.0,0.0,0.0,0.0,0.0,0.0,0.0,0.0,0.0,0.0,0.0,0.0,0.0,0.0,0.0,0.0,0.0,0.0,0.0,0.0,0.0,0.0,0.0,0.0,0.0,0.0,0.0,0.0,0.0,0.0,0.0,0.0,0.0,0.0,0.0,0.0,0.0,0.0,0.0,0.0,0.0,0.0,0.0,0.0,0.0,0.0,0.0,0.0,3.1292,0.0,3.2871,3.3433,3.4158,3.4628,0.0,0.0,0.0,0.0,0.0,0.0,0.0,0.0,0.0,0.0,0.0,0.0,0.0,0.0,0.0,0.0,0.0,0.0,0.0,0.0,0.0,0.0,0.0,0.0,0.0,0.0,0.0,0.0,0.0,0.0,0.0,0.0,0.0,0.0,0.0,0.0,0.0,0.0,0.0,0.0,0.0,0.0,0.0,0.0,0.0,0.0,0.0,0.0,0.0,0.0,0.0,0.0,0.0,0.0,0.0,0.0,0.0,0.0,0.0,0.0,0.0,0.0,0.0,0.0,0.0,0.0,0.0,0.0,0.0,0.0,0.0,0.0,0.0,0.0,0.0,0.0,0.0,0.0,0.0,0.0,0.0,0.0,0.0,0.0,0.0,0.0,0.0,0.0,0.0,0.0,0.0,0.0,0.0,0.0,0.0,0.0,0.0,0.0,0.0,0.0,0.0,0.0,0.0,0.0,0.0,0.0,0.0,0.0,3.2038,3.2878,3.3707,3.413,3.4225,3.4889,3.5332,0.0,0.0,0.0,0.0,0.0,0.0,0.0,0.0,0.0,0.0,0.0,0.0,0.0,0.0,0.0,0.0,0.0,0.0,0.0,0.0,0.0,0.0,0.0,0.0,0.0,0.0,0.0,0.0,0.0,0.0,0.0,0.0,0.0,0.0,0.0,0.0,0.0,0.0,0.0,0.0,0.0,0.0,0.0,0.0,0.0,0.0,0.0,0.0,0.0,0.0,0.0,0.0,0.0,0.0,0.0,0.0,0.0,0.0,0.0,0.0,0.0,0.0,0.0,0.0,0.0,0.0,0.0,0.0,0.0,0.0,0.0,0.0,0.0,0.0,0.0,0.0,0.0,0.0,0.0,0.0,0.0,0.0,0.0,0.0,0.0,0.0,0.0,0.0,0.0,0.0,0.0,0.0,0.0,0.0,0.0,0.0,0.0,0.0,0.0,0.0,0.0,0.0,0.0,0.0,0.0,0.0,0.0,0.0,0.0,3.3662,3.3912,3.4398,3.5065,3.5041,3.5193,0.0,0.0,0.0,0.0,0.0,0.0,0.0,0.0,0.0,0.0,0.0,0.0,0.0,0.0,0.0,0.0,0.0,0.0,0.0,0.0,0.0,0.0,0.0,0.0,0.0,0.0,0.0,0.0,0.0,0.0,0.0,0.0,0.0,0.0,0.0,0.0,0.0,0.0,0.0,0.0,0.0,0.0,0.0,0.0,0.0,0.0,0.0,0.0,0.0,0.0,0.0,0.0,0.0,0.0,0.0,0.0,0.0,0.0,0.0,0.0,0.0,0.0,0.0,0.0,0.0,0.0,0.0,0.0,0.0,0.0,0.0,0.0,0.0,0.0,0.0,0.0,0.0,0.0,0.0,0.0,0.0,0.0,0.0,0.0,0.0,0.0,0.0,0.0,0.0,0.0,0.0,0.0,0.0,0.0,0.0,0.0,0.0,0.0,0.0,0.0,0.0,0.0,0.0,0.0,0.0,0.0,0.0,0.0,0.0,3.4565,3.4571,3.4885,3.5475,3.5256,3.5268,3.5537,0.0,0.0,0.0,0.0,0.0,0.0,0.0,0.0,0.0,0.0,0.0,0.0,0.0,0.0,0.0,0.0,0.0,0.0,0.0,0.0,0.0,0.0,0.0,0.0,0.0,0.0,0.0,0.0,0.0,0.0,0.0,0.0,0.0,0.0,0.0,0.0,0.0,0.0,0.0,0.0,0.0,0.0,0.0,0.0,0.0,0.0,0.0,0.0,0.0,0.0,0.0,0.0,0.0,0.0,0.0,0.0,0.0,0.0,0.0,0.0,0.0,0.0,0.0,0.0,0.0,0.0,0.0,0.0,0.0,0.0,0.0,0.0,0.0,0.0,0.0,0.0,0.0,0.0,0.0,0.0,0.0,0.0,0.0,0.0,0.0,0.0,0.0,0.0,0.0,0.0,0.0,0.0,0.0,0.0,0.0,0.0,0.0,0.0,0.0,0.0,0.0,0.0,0.0,0.0,0.0,0.0,0.0,0.0,3.5503,3.5571,3.5554,3.5486,3.5492,3.5492,0.0,0.0,0.0,0.0,0.0,0.0,0.0,0.0,0.0,0.0,0.0,0.0,0.0,0.0,0.0,0.0,0.0,0.0,0.0,0.0,0.0,0.0,0.0,0.0,0.0,0.0,0.0,0.0,0.0,0.0,0.0,0.0,0.0,0.0,0.0,0.0,0.0,0.0,0.0,0.0,0.0,0.0,0.0,0.0,0.0,0.0,0.0,0.0,0.0,0.0,0.0,0.0,0.0,0.0,0.0,0.0,0.0,0.0,0.0,0.0,0.0,0.0,0.0,0.0,0.0,0.0,0.0,0.0,0.0,0.0,0.0,0.0,0.0,0.0,0.0,0.0,0.0,0.0,0.0,0.0,0.0,0.0,0.0,0.0,0.0,0.0,0.0,0.0,0.0,0.0,0.0,0.0,0.0,0.0,0.0,0.0,0.0,0.0,0.0,0.0,0.0,0.0,0.0,0.0,0.0,0.0,0.0,0.0,0.0,3.5571,3.5588,3.5588,3.5583,3.5429,3.5429,0.0,0.0,0.0,0.0,0.0,0.0,0.0,0.0,0.0,0.0,0.0,0.0,0.0,0.0,0.0,0.0,0.0,0.0,0.0,0.0,0.0,0.0,0.0,0.0,0.0,0.0,0.0,0.0,0.0,0.0,0.0,0.0,0.0,0.0,0.0,0.0,0.0,0.0,0.0,0.0,0.0,0.0,0.0,0.0,0.0,0.0,0.0,0.0,0.0,0.0,0.0,0.0,0.0,0.0,0.0,0.0,0.0,0.0,0.0,0.0,0.0,0.0,0.0,0.0,0.0,0.0,0.0,0.0,0.0,0.0,0.0,0.0,0.0,0.0,0.0,0.0,0.0,0.0,0.0,0.0,0.0,0.0,0.0,0.0,0.0,0.0,0.0,0.0,0.0,0.0,0.0,0.0,0.0,0.0,0.0,0.0,0.0,0.0,0.0,0.0,0.0,0.0,0.0,0.0,0.0,0.0,0.0,0.0,3.5383,3.5549,3.5588,3.5628,3.5611,3.5492,3.5475,0.0,0.0,0.0,0.0,0.0,0.0,0.0,0.0,0.0,0.0,0.0,0.0,0.0,0.0,0.0,0.0,0.0,0.0,0.0,0.0,0.0,0.0,0.0,0.0,0.0,0.0,0.0,0.0,0.0,0.0,0.0,0.0,0.0,0.0,0.0,0.0,0.0,0.0,0.0,0.0,0.0,0.0,0.0,0.0,0.0,0.0,0.0,0.0,0.0,0.0,0.0,0.0,0.0,0.0,0.0,0.0,0.0,0.0,0.0,0.0,0.0,0.0,0.0,0.0,0.0,0.0,0.0,0.0,0.0,0.0,0.0,0.0,0.0,0.0,0.0,0.0,0.0,0.0,0.0,0.0,0.0,0.0,0.0,0.0,0.0,0.0,0.0,0.0,0.0,0.0,0.0,0.0,0.0,0.0,0.0,0.0,0.0,0.0,0.0,0.0,0.0,0.0,0.0,0.0,0.0,0.0,0.0,0.0,3.536,3.5514,3.5571,3.5633,3.5718,3.5661,3.5633,0.0,0.0,0.0,0.0,0.0,0.0,0.0,0.0,0.0,0.0,0.0,0.0,0.0,0.0,0.0,0.0,0.0,0.0,0.0,0.0,0.0,0.0,0.0,0.0,0.0,0.0,0.0,0.0,0.0,0.0,0.0,0.0,0.0,0.0,0.0,0.0,0.0,0.0,0.0,0.0,0.0,0.0,0.0,0.0,0.0,0.0,0.0,0.0,0.0,0.0,0.0,0.0,0.0,0.0,0.0,0.0,0.0,0.0,0.0,0.0,0.0,0.0,0.0,0.0,0.0,0.0,0.0,0.0,0.0,0.0,0.0,0.0,0.0,0.0,0.0,0.0,0.0,0.0,0.0,0.0,0.0,0.0,0.0,0.0,0.0,0.0,0.0,0.0,0.0,0.0,0.0,0.0,0.0,0.0,0.0,0.0,0.0,0.0,0.0,0.0,0.0,0.0,0.0,0.0,0.0,0.0,0.0,0.0,3.5389,3.5583,3.5588,3.5898,3.653,3.5932,3.5898,0.0,0.0,0.0,0.0,0.0,0.0,0.0,0.0,0.0,0.0,0.0,0.0,0.0,0.0,0.0,0.0,0.0,0.0,0.0,0.0,0.0,0.0,0.0,0.0,0.0,0.0,0.0,0.0,0.0,0.0,0.0,0.0,0.0,0.0,0.0,0.0,0.0,0.0,0.0,0.0,0.0,0.0,0.0,0.0,0.0,0.0,0.0,0.0,3.6227,0.0,0.0,0.0,0.0,0.0,0.0,0.0,0.0,0.0,0.0,0.0,0.0,0.0,0.0,0.0,0.0,0.0,0.0,0.0,0.0,0.0,0.0,0.0,0.0,0.0,0.0,0.0,0.0,0.0,0.0,0.0,0.0,0.0,0.0,0.0,0.0,0.0,0.0,0.0,0.0,0.0,0.0,0.0,0.0,0.0,0.0,0.0,0.0,0.0,0.0,0.0,0.0,0.0,0.0,0.0,0.0,0.0,0.0,0.0,3.5609,3.6038,3.6129,3.6535,3.7263,3.6907,3.6891,0.0,0.0,0.0,0.0,0.0,0.0,0.0,0.0,0.0,0.0,0.0,0.0,0.0,0.0,0.0,0.0,0.0,0.0,0.0,0.0,0.0,0.0,0.0,0.0,0.0,0.0,0.0,0.0,0.0,0.0,0.0,0.0,0.0,0.0,0.0,0.0,0.0,0.0,0.0,0.0,0.0,0.0,0.0,0.0,0.0,0.0,0.0,0.0,0.0,0.0,0.0,0.0,0.0,0.0,0.0,0.0,0.0,0.0,0.0,0.0,0.0,0.0,0.0,0.0,0.0,0.0,0.0,0.0,0.0,0.0,0.0,0.0,0.0,0.0,0.0,0.0,0.0,0.0,0.0,0.0,0.0,0.0,0.0,0.0,0.0,0.0,0.0,0.0,0.0,0.0,0.0,0.0,0.0,0.0,0.0,0.0,0.0,0.0,0.0,0.0,0.0,0.0,0.0,0.0,0.0,0.0,0.0,3.5466,3.5963,3.661,3.6856,3.7325,3.8046,3.8075,3.813,3.8244,0.0,0.0,0.0,0.0,0.0,0.0,0.0,0.0,0.0,0.0,0.0,0.0,0.0,0.0,0.0,0.0,0.0,0.0,0.0,0.0,0.0,0.0,0.0,0.0,0.0,0.0,0.0,0.0,0.0,0.0,0.0,0.0,0.0,0.0,0.0,0.0,0.0,0.0,3.5765,3.6212,0.0,0.0,0.0,0.0,0.0,0.0,0.0,0.0,3.6631,0.0,0.0,0.0,0.0,0.0,0.0,0.0,0.0,0.0,0.0,0.0,0.0,0.0,0.0,0.0,0.0,0.0,0.0,0.0,0.0,0.0,0.0,0.0,0.0,0.0,0.0,0.0,0.0,0.0,0.0,0.0,0.0,0.0,0.0,0.0,0.0,0.0,0.0,0.0,0.0,0.0,0.0,0.0,0.0,0.0,0.0,0.0,0.0,0.0,0.0,0.0,0.0,0.0,0.0,0.0,0.0,3.5285,3.5912,3.6416,3.6777,3.7386,3.8075,3.8768,3.8819,3.9119,3.9677,0.0,0.0,0.0,0.0,0.0,0.0,0.0,0.0,0.0,0.0,0.0,0.0,0.0,0.0,0.0,0.0,0.0,0.0,0.0,0.0,0.0,0.0,0.0,0.0,0.0,0.0,0.0,0.0,0.0,0.0,0.0,0.0,0.0,0.0,0.0,0.0,0.0,0.0,0.0,3.7192,3.7413,0.0,0.0,0.0,0.0,0.0,0.0,0.0,0.0,3.6753,0.0,0.0,0.0,0.0,0.0,0.0,0.0,0.0,0.0,0.0,0.0,0.0,0.0,0.0,0.0,0.0,0.0,0.0,0.0,0.0,0.0,0.0,0.0,0.0,0.0,0.0,0.0,0.0,0.0,0.0,0.0,0.0,0.0,0.0,0.0,0.0,0.0,0.0,0.0,0.0,0.0,0.0,0.0,0.0,0.0,0.0,0.0,0.0,0.0,0.0,0.0,0.0,0.0,0.0,0.0,3.5867,3.6365,3.705,3.7917,3.8294,3.8814,3.9542,3.9559,3.974,0.0,0.0,0.0,0.0,0.0,0.0,0.0,0.0,0.0,0.0,0.0,0.0,0.0,0.0,0.0,0.0,0.0,0.0,0.0,0.0,0.0,0.0,0.0,0.0,0.0,0.0,0.0,0.0,0.0,0.0,0.0,0.0,0.0,0.0,0.0,0.0,0.0,0.0,0.0,0.0,3.7501,3.7749,3.8416,0.0,0.0,0.0,0.0,0.0,0.0,3.8251,3.809,0.0,0.0,0.0,0.0,0.0,0.0,0.0,0.0,0.0,0.0,0.0,0.0,0.0,0.0,0.0,0.0,0.0,0.0,0.0,0.0,0.0,0.0,0.0,0.0,0.0,0.0,0.0,0.0,0.0,0.0,0.0,0.0,0.0,0.0,0.0,0.0,0.0,0.0,0.0,0.0,0.0,0.0,0.0,0.0,0.0,0.0,0.0,0.0,0.0,0.0,0.0,0.0,0.0,0.0,0.0,3.6398,3.6914,3.7775,3.8933,3.9153,3.9508,4.0096,4.0113,4.0113,0.0,0.0,0.0,0.0,0.0,0.0,0.0,0.0,0.0,0.0,0.0,0.0,0.0,0.0,0.0,0.0,0.0,0.0,0.0,0.0,0.0,0.0,0.0,0.0,0.0,0.0,0.0,0.0,0.0,0.0,0.0,0.0,0.0,0.0,0.0,0.0,0.0,0.0,0.0,0.0,0.0,3.8375,3.8806,3.9067,0.0,0.0,0.0,0.0,3.9525,3.9503,0.0,0.0,0.0,0.0,0.0,0.0,0.0,0.0,0.0,0.0,0.0,0.0,0.0,0.0,0.0,0.0,0.0,0.0,0.0,0.0,0.0,0.0,0.0,0.0,0.0,0.0,0.0,0.0,0.0,0.0,0.0,0.0,0.0,0.0,0.0,0.0,0.0,0.0,0.0,0.0,0.0,0.0,0.0,0.0,0.0,0.0,0.0,0.0,0.0,0.0,0.0,0.0,0.0,0.0,0.0,0.0,3.6437,3.7852,3.8704,3.9005,3.9626,4.0015,4.0113,4.0113,4.0113,0.0,0.0,0.0,0.0,0.0,0.0,0.0,0.0,0.0,0.0,0.0,0.0,0.0,0.0,0.0,0.0,0.0,0.0,0.0,0.0,0.0,0.0,0.0,0.0,0.0,0.0,0.0,0.0,0.0,0.0,0.0,0.0,0.0,0.0,0.0,0.0,0.0,0.0,0.0,0.0,0.0,4.0073,3.9572,4.0641,4.1466,0.0,0.0,4.1723,4.172,4.1281,0.0,0.0,0.0,0.0,0.0,0.0,0.0,0.0,0.0,0.0,0.0,0.0,0.0,0.0,0.0,0.0,0.0,0.0,0.0,0.0,0.0,0.0,0.0,0.0,0.0,0.0,0.0,0.0,0.0,0.0,0.0,0.0,0.0,0.0,0.0,0.0,0.0,0.0,0.0,0.0,0.0,0.0,0.0,0.0,0.0,0.0,0.0,0.0,0.0,0.0,0.0,0.0,0.0,0.0,0.0,3.6757,3.763,3.8495,3.9125,3.9609,3.9943,4.0113,4.0113,4.0113,4.0113,0.0,0.0,0.0,0.0,0.0,0.0,0.0,0.0,0.0,0.0,0.0,0.0,0.0,0.0,0.0,0.0,0.0,0.0,0.0,0.0,0.0,0.0,0.0,0.0,0.0,0.0,0.0,0.0,0.0,0.0,0.0,0.0,0.0,0.0,0.0,0.0,0.0,0.0,0.0,0.0,0.0,0.0,4.0978,4.1358,0.0,0.0,0.0,4.2216,4.2216,0.0,0.0,0.0,0.0,0.0,0.0,0.0,0.0,0.0,0.0,0.0,0.0,0.0,0.0,0.0,0.0,0.0,0.0,0.0,0.0,0.0,0.0,0.0,0.0,0.0,0.0,0.0,0.0,0.0,0.0,0.0,0.0,0.0,0.0,0.0,0.0,0.0,0.0,0.0,0.0,0.0,0.0,0.0,0.0,0.0,0.0,0.0,0.0,0.0,0.0,0.0,0.0,0.0,0.0,0.0,0.0,0.0,3.8623,3.9063,3.9554,4.0079,4.0113,4.0113,4.0113,4.0113,0.0,0.0,0.0,0.0,0.0,0.0,0.0,0.0,0.0,0.0,0.0,0.0,0.0,0.0,0.0,0.0,0.0,0.0,0.0,0.0,0.0,0.0,0.0,0.0,0.0,0.0,0.0,3.6646,0.0,0.0,0.0,0.0,0.0,0.0,0.0,0.0,0.0,0.0,0.0,0.0,0.0,0.0,4.0651,4.2104,4.2175,4.205,0.0,0.0,4.2876,4.2893,4.3386,4.3781,0.0,0.0,0.0,0.0,0.0,0.0,0.0,0.0,0.0,0.0,0.0,0.0,0.0,0.0,0.0,0.0,0.0,0.0,0.0,0.0,0.0,0.0,0.0,0.0,0.0,0.0,0.0,0.0,0.0,0.0,0.0,0.0,0.0,0.0,0.0,0.0,0.0,0.0,0.0,0.0,0.0,0.0,0.0,0.0,0.0,0.0,0.0,0.0,0.0,0.0,0.0,0.0,0.0,0.0,0.0,3.8803,3.9598,4.0045,4.0113,4.0113,4.0113,4.0113,4.0113,4.0113,0.0,0.0,0.0,0.0,0.0,0.0,0.0,0.0,0.0,0.0,0.0,0.0,0.0,0.0,0.0,0.0,0.0,0.0,0.0,0.0,0.0,0.0,0.0,0.0,0.0,0.0,0.0,0.0,0.0,0.0,0.0,0.0,0.0,0.0,0.0,0.0,0.0,0.0,0.0,0.0,0.0,4.2777,4.2367,4.3489,4.4345,0.0,0.0,4.4443,4.4429,4.448,4.4511,4.4528,0.0,0.0,0.0,0.0,0.0,0.0,0.0,0.0,0.0,0.0,0.0,0.0,0.0,0.0,0.0,0.0,0.0,0.0,0.0,0.0,0.0,0.0,0.0,0.0,0.0,0.0,0.0,0.0,0.0,0.0,0.0,0.0,0.0,0.0,0.0,0.0,0.0,0.0,0.0,0.0,0.0,0.0,0.0,0.0,0.0,0.0,0.0,0.0,0.0,0.0,0.0,0.0,0.0,3.887,3.9476,3.9897,4.0113,4.0113,4.0113,4.0113,4.0113,4.0113,4.0113,0.0,0.0,0.0,0.0,0.0,0.0,0.0,0.0,0.0,0.0,0.0,0.0,0.0,0.0,0.0,0.0,0.0,0.0,0.0,0.0,0.0,0.0,0.0,0.0,0.0,0.0,0.0,0.0,3.9604,4.0451,4.0852,0.0,0.0,0.0,0.0,0.0,0.0,0.0,0.0,0.0,0.0,4.2993,4.3618,4.4226,0.0,0.0,4.4584,4.4584,4.4584,4.4584,4.4584,4.4584,4.4584,0.0,0.0,0.0,0.0,0.0,0.0,0.0,0.0,0.0,0.0,0.0,0.0,0.0,0.0,0.0,0.0,0.0,0.0,0.0,0.0,0.0,0.0,0.0,0.0,0.0,0.0,0.0,0.0,0.0,0.0,0.0,0.0,0.0,0.0,0.0,0.0,0.0,0.0,0.0,0.0,0.0,0.0,0.0,0.0,0.0,0.0,0.0,0.0,0.0,0.0,0.0,0.0,3.9277,3.9948,4.0282,4.0434,4.0422,4.0625,4.0743,4.0743,4.076,4.076,0.0,0.0,0.0,0.0,0.0,0.0,0.0,0.0,0.0,0.0,0.0,0.0,0.0,0.0,0.0,0.0,0.0,0.0,0.0,0.0,0.0,0.0,0.0,0.0,0.0,0.0,0.0,0.0,4.1191,4.2094,4.244,0.0,0.0,0.0,0.0,0.0,0.0,0.0,0.0,0.0,0.0,4.3489,4.4457,4.4584,4.4584,4.4584,4.4584,4.4584,4.4584,4.4584,4.4584,4.4584,0.0,0.0,0.0,0.0,0.0,0.0,0.0,0.0,0.0,0.0,0.0,0.0,0.0,0.0,0.0,0.0,0.0,0.0,0.0,0.0,0.0,0.0,0.0,0.0,0.0,0.0,0.0,0.0,0.0,0.0,3.1538,0.0,0.0,0.0,0.0,0.0,0.0,0.0,0.0,0.0,0.0,0.0,0.0,0.0,0.0,0.0,0.0,0.0,0.0,0.0,0.0,0.0,0.0,3.9816,4.0104,4.0781,4.117,4.1174,4.1877,4.2219,4.2202,4.2236,4.2236,4.2249,0.0,0.0,0.0,0.0,0.0,0.0,0.0,0.0,0.0,0.0,0.0,0.0,0.0,0.0,0.0,0.0,0.0,0.0,0.0,0.0,0.0,0.0,0.0,0.0,0.0,0.0,4.1669,4.2548,4.3438,0.0,0.0,0.0,0.0,0.0,0.0,0.0,0.0,0.0,0.0,4.455,4.4553,4.4584,4.4584,4.4584,4.4584,4.4584,4.4584,4.4584,4.4584,4.4584,0.0,0.0,0.0,0.0,0.0,0.0,0.0,0.0,0.0,0.0,0.0,0.0,0.0,0.0,0.0,0.0,0.0,0.0,0.0,0.0,0.0,0.0,0.0,0.0,0.0,0.0,0.0,3.2107,3.2106,0.0,0.0,0.0,0.0,0.0,0.0,0.0,0.0,0.0,0.0,0.0,3.3216,3.4031,0.0,0.0,0.0,0.0,0.0,0.0,0.0,0.0,0.0,0.0,0.0,0.0,4.0085,4.0802,4.1068,4.1441,4.1914,4.2164,4.2303,4.2303,4.2303,4.2523,4.3017,0.0,0.0,0.0,0.0,0.0,0.0,0.0,0.0,0.0,0.0,0.0,0.0,0.0,0.0,0.0,0.0,0.0,0.0,0.0,0.0,0.0,0.0,0.0,0.0,0.0,4.2752,0.0,0.0,0.0,0.0,0.0,0.0,0.0,0.0,0.0,0.0,0.0,4.4584,4.4584,4.4584,4.4584,4.4584,4.4584,4.4584,0.0,0.0,0.0,0.0,0.0,0.0,0.0,0.0,0.0,0.0,0.0,0.0,0.0,0.0,4.3902,4.3902,4.3902,4.3754,4.3258,0.0,0.0,0.0,0.0,0.0,0.0,0.0,0.0,0.0,0.0,0.0,0.0,0.0,0.0,3.3089,0.0,3.3546,0.0,0.0,0.0,0.0,0.0,0.0,0.0,0.0,3.4334,3.4592,3.4909,3.5506,3.5929,0.0,3.5692,3.5799,0.0,0.0,0.0,0.0,0.0,0.0,0.0,0.0,4.0624,4.1529,4.1847,4.2188,4.2658,4.2959,4.3095,4.3095,4.3095,4.3318,4.3809,4.3826,4.4045,0.0,0.0,0.0,0.0,0.0,0.0,0.0,0.0,0.0,0.0,0.0,0.0,0.0,0.0,0.0,0.0,0.0,0.0,0.0,0.0,0.0,0.0,0.0,4.3661,0.0,0.0,0.0,0.0,0.0,0.0,0.0,0.0,0.0,4.4584,4.4584,4.4584,4.4584,4.4584,4.4584,4.4584,0.0,0.0,0.0,0.0,0.0,0.0,0.0,4.4584,4.4584,4.4584,4.4584,4.4584,4.4584,4.4584,4.4584,0.0,0.0,4.4584,4.4584,4.4454,4.3972,4.3883,4.3752,4.332,4.3573,4.3752,0.0,0.0,0.0,0.0,0.0,0.0,0.0,0.0,3.4236,3.4514,0.0,3.573,0.0,0.0,0.0,0.0,0.0,3.4564,0.0,0.0,3.5047,3.5715,3.7417,3.6961,3.7671,3.9376,3.8124,3.8517,4.0255,3.7956,0.0,0.0,0.0,0.0,0.0,0.0,4.1474,4.232,4.3,4.3389,4.3457,4.4164,4.4567,4.455,4.455,4.455,4.4584,4.4581,4.4584,4.4584,4.4584,0.0,0.0,0.0,0.0,0.0,0.0,0.0,0.0,0.0,0.0,0.0,0.0,0.0,0.0,0.0,0.0,0.0,0.0,0.0,0.0,4.3818,0.0,0.0,0.0,0.0,0.0,0.0,0.0,0.0,0.0,0.0,4.4584,4.4584,4.4584,4.4584,0.0,0.0,0.0,0.0,4.4682,4.4685,4.4668,4.4668,4.4685,4.4685,4.4668,4.4685,0.0,0.0,4.4685,4.4685,4.4716,4.4682,4.4719,4.4651,4.4719,4.4716,4.4685,4.4705,4.4711,4.4671,4.4654,4.4719,4.4713,3.5213,0.0,0.0,0.0,0.0,3.3878,3.4398,3.4878,3.5973,3.6462,3.6522,3.7383,0.0,0.0,0.0,0.0,0.0,0.0,3.7725,3.8339,3.863,3.8836,3.8936,3.9675,4.0073,4.0191,3.9796,4.0131,4.1046,4.0051,3.9858,4.047,0.0,0.0,0.0,0.0,4.2206,4.3034,4.3288,4.3676,4.4245,4.4482,4.4584,4.4584,4.4584,4.4584,4.4584,4.4584,4.4584,4.4584,4.4584,0.0,0.0,0.0,0.0,0.0,0.0,0.0,0.0,0.0,0.0,0.0,0.0,0.0,0.0,0.0,0.0,0.0,0.0,0.0,4.4136,4.4381,4.4511,0.0,0.0,0.0,0.0,0.0,0.0,0.0,0.0,0.0,4.4584,4.4584,4.4584,0.0,0.0,4.5382,4.5382,4.5836,4.6174,4.6174,4.6157,0.0,0.0,4.6174,4.6157,4.6174,4.6174,4.6174,4.6174,4.6174,4.6174,4.6157,4.6174,4.6174,4.6157,4.5734,4.5602,4.6039,4.6174,4.6174,4.6157,4.6157,4.6157,3.7219,3.5675,3.569,3.546,3.52,3.6118,3.6705,3.7031,3.8112,3.8576,3.8606,3.9271,3.9412,3.9111,3.9111,0.0,0.0,0.0,3.9694,4.0303,4.0442,4.0571,4.0781,4.1228,4.1546,4.1697,4.1152,4.1411,4.2389,4.1799,4.1843,4.2442,0.0,0.0,4.2419,4.2557,4.3037,4.3829,4.3876,4.4113,4.4584,4.4584,4.4584,4.4584,4.4584,4.4584,4.4584,4.4584,4.4584,4.4584,4.4584,4.4584,0.0,0.0,0.0,0.0,0.0,0.0,0.0,0.0,0.0,0.0,0.0,4.4284,0.0,0.0,0.0,0.0,4.4409,4.4468,4.4584,4.4584,0.0,0.0,0.0,0.0,0.0,0.0,0.0,4.4584,4.4871,4.5041,4.5041,4.5294,4.5362,4.506,4.5669,4.6143,4.6126,0.0,4.6786,4.6786,4.6786,4.6786,4.6786,4.6786,4.6786,4.6786,4.6786,4.6786,4.6786,4.6786,4.6786,4.6786,4.6786,4.6904,4.7192,4.6855,4.6566,4.6752,4.6786,4.6786,4.6786,4.6786,4.6786,3.9218,3.925,3.9314,3.8716,3.7856,3.9263,3.9779,3.9688,4.0361,4.0663,4.0723,4.1315,4.1577,4.1577,4.1577,0.0,4.076,4.0744,4.1102,4.1627,4.1022,4.1437,4.2632,4.1981,4.2349,4.3568,4.2301,4.2443,4.3807,4.3232,4.3306,4.4047,4.2878,4.2624,4.3247,4.3435,4.3859,4.4584,4.4567,4.4584,4.4584,4.4584,4.4584,4.4584,4.4584,4.4584,4.4584,4.4584,4.4584,4.4584,4.4584,4.4584,4.4584,0.0,0.0,0.0,0.0,0.0,0.0,0.0,0.0,0.0,0.0,0.0,0.0,0.0,0.0,0.0,4.4584,0.0,4.4584,4.4584,0.0,0.0,0.0,4.4584,4.4584,4.4649,4.4699,4.4668,0.0,0.0,4.5805,4.6496,4.6747,4.6073,4.6496,4.6902,4.69,4.7037,4.7071,4.7251,4.7202,4.7204,4.752,4.7469,4.7518,4.7518,4.7202,4.734,4.7357,4.731,4.7208,4.7327,4.7173,4.7411,4.8073,4.8242,4.7954,4.7394,4.7208,4.7141,4.7344,4.7378,4.7428,4.0971,4.1358,4.2109,4.1273,3.9462,4.0184,4.0547,4.073,4.1641,4.2109,4.2289,4.2851,4.3083,4.31,4.3069,4.301,4.2876,4.2876,4.2959,4.3077,4.2942,4.3039,4.334,4.3189,4.3265,4.3568,4.3417,4.3524,4.3883,4.3835,4.3948,4.4222,4.3942,4.3872,4.4038,4.4229,4.4398,4.4584,4.4584,4.4584,4.4584,4.4584,4.4584,4.4584,4.4584,4.4584,4.4584,4.4584,4.4584,4.4584,4.4584,4.4584,4.4584,4.4556,0.0,0.0,0.0,0.0,0.0,0.0,0.0,0.0,0.0,4.4584,4.4584,0.0,4.4584,0.0,4.4584,4.4584,4.4584,4.4584,0.0,0.0,4.4584,4.4584,4.4584,4.5108,4.5449,4.5449,4.6191,4.6663,4.6561,4.7753,4.8591,4.8451,4.7975,4.7676,4.7795,4.8689,4.9414,4.9629,4.9991,5.0435,5.0474,5.0607,5.0506,5.059,5.0449,5.0373,5.0371,5.0247,5.0153,5.0153,5.0168,5.0253,5.0322,5.0423,5.0339,5.0153,4.9712,4.9507,5.0016,5.0119,5.0135,4.3444,4.3762,4.4595,4.4205,4.3006,4.2512,4.2322,4.2431,4.2962,4.325,4.3331,4.3852,4.4122,4.42,4.4562,4.4649,4.4589,4.4681,4.4681,4.4573,4.4573,4.4636,4.4711,4.4711,4.4757,4.48,4.4922,4.5013,4.5055,4.5142,4.5259,4.5387,4.5419,4.5436,4.5385,4.4863,4.4584,4.4584,4.4584,4.4584,4.4584,4.4584,4.4584,4.4584,4.4584,4.4584,4.4584,4.4584,4.4584,4.4584,4.4584,4.4584,4.4584,4.4584,4.4584,0.0,0.0,0.0,0.0,0.0,0.0,0.0,0.0,0.0,0.0,0.0,4.4584,4.4584,4.4584,4.4584,4.4584,4.4584,4.4719,4.5058,4.5091,4.521,4.5531,4.5998,4.6266,4.6208,4.724,4.7961,4.7967,4.9253,5.0296,5.0388,4.9971,4.9668,4.9778,5.043,5.0923,5.1128,5.1422,5.1664,5.1774,5.1789,5.1789,5.1789,5.1711,5.1633,5.1617,5.1474,5.133,5.133,5.1249,5.1218,5.1218,5.1218,5.1286,5.1556,5.1369,5.115,5.1184,5.1218,5.1218,4.584,4.5965,4.6561,4.6786,4.6701,4.5238,4.4553,4.444,4.438,4.4326,4.4243,4.4708,4.4974,4.513,4.581,4.6016,4.586,4.6033,4.6017,4.5845,4.5845,4.5938,4.6125,4.6109,4.6202,4.629,4.6321,4.6379,4.6514,4.6513,4.6636,4.6786,4.6786,4.6786,4.6735,4.5514,4.4902,4.4886,4.4886,4.4886,4.4871,4.4871,4.4871,4.4886,4.4886,4.4914,4.4981,4.4981,4.4972,4.4939,4.4901,4.4794,4.4679,4.464,4.4584,0.0,4.4584,0.0,0.0,0.0,0.0,0.0,0.0,0.0,0.0,4.4584,4.466,4.4845,4.4775,4.4812,4.4981,4.4928,4.5142,4.5739,4.5855,4.6126,4.6834,4.7153,4.7299,4.7251,4.8681,4.9669,4.968,5.0884,5.1893,5.1908,5.1993,5.2027,5.2093,5.1993,5.1928,5.199,5.2091,5.2347,5.2312,5.2244,5.2244,5.2194,5.2247,5.2111,5.2181,5.2005,5.1844,5.1845,5.1817,5.1653,5.1537,5.1672,5.196,5.2586,5.2789,5.257,5.1843,5.1641,5.1488,4.612,4.6621,4.6741,4.6786,4.6769,4.6452,4.6319,4.626,4.6008,4.5872,4.5858,4.5962,4.5997,4.6044,4.6195,4.6168,4.6048,4.6094,4.6079,4.6047,4.6032,4.6124,4.6261,4.6277,4.6275,4.6305,4.6426,4.6484,4.6514,4.6665,4.6771,4.6786,4.6786,4.6786,4.6786,0.0,0.0,0.0,4.6394,4.6394,4.6394,4.6394,4.6394,4.6377,4.6377,0.0,4.6997,4.7024,4.6967,4.6799,4.6367,0.0,0.0,0.0,0.0,0.0,0.0,0.0,0.0,0.0,0.0,0.0,4.4584,4.4584,4.4584,4.4584,4.5044,4.6007,4.5761,4.5915,4.6917,4.6629,4.643,4.658,4.6597,4.6887,4.7614,4.8389,4.9059,4.969,5.1183,5.1971,5.1502,5.2606,5.3337,5.2994,5.3368,5.3776,5.3934,5.3231,5.2826,5.3046,5.3506,5.3934,5.3986,5.3919,5.3886,5.397,5.3842,5.3762,5.373,5.3635,5.3554,5.3521,5.3505,5.339,5.3276,5.3834,5.4259,5.438,5.4839,5.4856,5.3399,5.3061,5.3044,4.7578,0.0,4.7868,4.7885,0.0,4.7885,4.7885,4.7802,4.6926,4.6563,4.6565,4.6768,4.6872,4.695,4.7351,4.7442,4.7302,4.738,4.7364,4.7286,4.7302,4.738,4.7534,4.7534,4.7565,4.7625,4.7701,4.7747,4.7747,4.7823,4.7885,4.7885,4.7885,4.7885,4.7868,4.7885,4.7513,4.6802,4.6786,4.6786,4.6786,4.6786,4.6786,4.6786,0.0,0.0,0.0,0.0,0.0,0.0,0.0,0.0,0.0,0.0,0.0,4.6529,4.6529,4.6529,4.6512,4.6529,4.6516,4.6512,4.6516,4.6134,4.5233,4.5713,4.6236,4.6595,4.6632,4.6895,4.751,4.7962,4.8401,4.882,4.9229,4.9677,5.0201,5.0951,5.1448,5.1605,5.2895,5.3626,5.2991,5.4122,5.4738,5.4348,5.4539,5.4834,5.4846,5.4229,5.3787,5.3911,5.422,5.4494,5.4546,5.4858,5.5047,5.5049,5.5293,5.5468,5.5487,5.5356,5.5223,5.5241,5.5191,5.5057,5.4907,5.5247,5.5485,5.5382,5.5585,5.5635,5.4718,5.46,5.46,4.9018,4.9018,4.9018,4.9018,4.9018,4.9018,4.9018,4.8917,0.0,0.0,0.0,4.7546,4.7751,4.7893,4.8547,4.8721,4.8563,4.8722,4.869,4.8547,4.8547,4.8658,4.8816,4.8832,4.8894,4.9001,4.9018,4.9018,4.9018,4.9018,4.9018,4.9018,4.9018,4.9018,4.9018,4.9018,4.8392,4.7259,4.7175,4.7234,4.7352,4.7335,4.7393,4.7493,4.7493,4.7536,4.7649,4.8073,4.8286,4.8267,4.8639,4.8778,4.8655,4.8548,4.8497,4.8497,4.8497,4.8497,4.8497,4.8497,4.8497,4.8497,4.8727,4.8107,4.6334,4.7152,4.7741,4.7675,4.7979,4.8324,4.8694,4.9638,5.0576,5.1304,5.1979,5.2482,5.2865,5.3498,5.3657,5.3436,5.4445,5.5073,5.4545,5.5418,5.6047,5.5661,5.5537,5.5665,5.5679,5.5162,5.4669,5.4685,5.4927,5.4961,5.5012,5.5409,5.5789,5.584,5.6357,5.6771,5.6772,5.6656,5.6555,5.6418,5.6421,5.6201,5.6064,5.6132,5.6148,5.599,5.6056,5.6141,5.6141,5.6105,5.5969,4.9018,4.9018,4.9018,4.9018,4.9018,4.9018,4.9018,4.8984,4.8781,4.868,4.8682,4.8752,4.8771,4.8803,4.8921,4.8877,4.8754,4.8802,4.8786,4.8754,4.8754,4.8832,4.897,4.897,4.897,4.9018,4.9018,4.9018,4.9018,4.9018,4.9018,4.9018,4.9018,4.9018,4.9018,4.9018,4.89,4.8697,4.8697,4.8937,4.9449,4.9464,4.9688,5.0124,5.012,5.0395,5.0907,5.0984,5.0959,5.0782,5.0426,4.9893,4.9239,4.8816,4.8497,4.8497,4.8497,4.8497,4.8515,4.8497,4.8497,4.8558,4.9545,4.9628,4.8259,4.8277,4.9111,5.0743,5.0559,5.1122,5.2785,5.2744,5.2668,5.2827,5.3033,5.3417,5.4102,5.4542,5.4986,5.5371,5.6254,5.6554,5.6124,5.6554,5.6829,5.6373,5.6499,5.6606,5.6906,5.6253,5.5527,5.553,5.603,5.6426,5.634,5.6529,5.6615,5.6633,5.6771,5.6978,5.6995,5.6962,5.6911,5.6807,5.6761,5.6524,5.6321,5.6713,5.6968,5.6946,5.7285,5.7658,5.7641,5.7568,5.7155,4.9018,4.9018,4.9018,4.9018,4.9018,4.9018,4.9018,4.9018,4.9018,4.9018,4.9018,4.9018,4.9018,4.9018,4.9018,4.8955,4.891,4.891,4.891,4.891,4.891,4.8941,4.9001,4.9018,4.9018,4.9018,4.9018,4.9018,4.9018,4.9018,4.9018,4.9035,4.939,4.9593,4.9627,4.9999,5.0186,5.017,4.9796,4.9899,5.054,5.0934,5.1431,5.1971,5.1985,5.2144,5.2418,5.2739,5.2865,5.2779,5.2426,5.2066,5.1694,5.1042,5.0676,5.0658,5.0658,5.0658,5.0688,5.1082,5.1511,5.1922,5.2526,5.2635,5.2036,5.1272,5.1292,5.2343,5.2484,5.2896,5.3924,5.447,5.4789,5.4879,5.5384,5.5767,5.5891,5.6309,5.6592,5.6662,5.7179,5.754,5.7411,5.7887,5.823,5.8087,5.814,5.8143,5.7819,5.7573,5.723,5.6852,5.6789,5.677,5.684,5.7167,5.7357,5.7391,5.7736,5.7961,5.8012,5.7995,5.7978,5.7995,5.7843,5.7724,5.7587,5.7652,5.7803,5.7889,5.7987,5.8225,5.8295,5.8206,5.7789,4.9018,4.9018,4.9018,4.9018,4.9018,4.9018,4.9018,4.9018,4.9018,4.9018,4.9018,4.9018,4.9018,4.9018,4.9018,4.9018,4.9018,4.9018,4.9001,4.9018,4.9018,4.9018,4.9018,4.9018,4.9086,4.9238,4.9238,4.934,4.9475,4.9509,4.9476,4.956,5.0067,5.0338,5.037,5.1072,5.144,5.1406,5.1155,5.1186,5.1523,5.2221,5.289,5.3452,5.352,5.3507,5.3534,5.3956,5.4207,5.4184,5.4049,5.3965,5.3935,5.3385,5.3041,5.3041,5.3041,5.3041,5.3078,5.3603,5.4225,5.4834,5.4907,5.4967,5.5045,5.4171,5.3585,5.3766,5.4166,5.4494,5.4894,5.5742,5.6509,5.6654,5.7307,5.7497,5.7376,5.7849,5.8113,5.771,5.8147,5.8621,5.881,5.9176,5.9505,5.9714,5.995,5.9592,5.8739,5.9095,5.9221,5.853,5.7789,5.7407,5.7322,5.7771,5.8099,5.8151,5.8547,5.8788,5.8857,5.8944,5.8961,5.8858,5.8806,5.8668,5.8719,5.8491,5.8332,5.8369,5.835,5.8313,5.8366,5.8295,5.8134,4.9018,4.9018,4.9018,4.9018,4.9018,4.9018,4.9018,4.9018,4.9018,4.9018,4.9018,4.9018,4.9018,4.9018,4.9018,4.9018,4.9018,4.9018,4.9018,4.9018,4.9018,4.9018,4.9052,4.9035,4.9357,4.993,5.0015,5.0304,5.0846,5.0914,5.0947,5.0998,5.1066,5.1116,5.1197,5.178,5.2136,5.2136,5.3244,5.35,5.2891,5.3499,5.4148,5.4712,5.473,5.4724,5.4753,5.4773,5.4834,5.4816,5.4816,5.4798,5.4768,5.4695,5.4671,5.4653,5.4653,5.4677,5.4671,5.4731,5.484,5.4888,5.4997,5.5251,5.5812,5.5757,5.5702,5.5687,5.5755,5.6057,5.6812,5.7107,5.7231,5.7249,5.7643,5.778,5.7884,5.8552,5.9062,5.9027,5.9571,6.0163,6.0139,6.0298,6.0438,6.0679,6.1047,6.1095,6.0558,6.0866,6.1135,6.0487,5.9612,5.8855,5.8736,5.8788,5.884,5.8875,5.8944,5.9133,5.9202,5.9168,5.9013,5.922,5.8875,5.8805,5.8788,5.8631,5.849,5.8526,5.8491,5.8437,5.8295,5.8224,5.8116,4.9018,4.9018,4.9018,4.9018,4.9018,4.9018,4.9018,4.9018,4.9018,4.9018,4.9018,4.9018,4.9018,4.9018,4.9018,4.9018,4.9018,4.9018,4.9018,4.9052,4.9441,4.9644,4.9678,5.0118,5.0474,5.0727,5.076,5.0914,5.115,5.1218,5.1218,5.1269,5.1607,5.2038,5.2454,5.3144,5.3675,5.4099,5.498,5.5277,5.5038,5.5208,5.5644,5.6184,5.6265,5.6265,5.6265,5.6265,5.6265,5.6228,5.5812,5.5553,5.554,5.5142,5.4907,5.4907,5.4907,5.5106,5.5504,5.5558,5.5758,5.621,5.6247,5.641,5.6663,5.6699,5.6699,5.6699,5.673,5.6875,5.7183,5.7332,5.7443,5.7583,5.8105,5.8529,5.8637,5.9399,5.9912,5.993,6.0205,6.0621,6.1062,6.152,6.1825,6.1934,6.2167,6.2047,6.1632,6.1741,6.1818,6.1596,6.0827,6.0117,5.9706,5.9216,5.9254,5.9564,5.9702,5.9771,6.0151,5.9909,5.972,5.9685,5.9185,5.8857,5.8909,5.8701,5.8526,5.8631,5.8684,5.8613,5.8437,5.8277,5.8117,4.961,4.961,4.961,4.961,4.961,4.961,4.9595,4.9595,4.961,4.961,4.961,4.961,4.961,4.9578,4.9407,4.9306,4.9323,4.9526,4.9595,4.9661,5.0168,5.0405,5.0473,5.093,5.1319,5.1472,5.1505,5.1624,5.1793,5.181,5.1907,5.2137,5.2628,5.3204,5.3879,5.4583,5.5142,5.5629,5.6243,5.6541,5.6524,5.6541,5.6758,5.715,5.7188,5.7188,5.7188,5.7188,5.7188,5.717,5.6627,5.6331,5.6301,5.5812,5.5522,5.554,5.554,5.5758,5.6313,5.6319,5.6585,5.7098,5.7188,5.7188,5.7224,5.7406,5.7514,5.7532,5.7732,5.7786,5.7237,5.7538,5.7813,5.7954,5.8793,5.9413,5.9558,6.0224,6.0731,6.0731,6.1025,6.1233,6.1851,6.2383,6.2694,6.2713,6.2749,6.2731,6.239,6.2404,6.2617,6.2712,6.2173,6.1456,6.0739,6.0181,6.0048,6.0133,6.0375,6.0306,6.084,6.0306,5.984,5.934,5.9047,5.8944,5.8944,5.8788,5.8666,5.8858,5.8892,5.8736,5.8525,5.8367,5.8188,5.11,5.1066,5.11,5.1015,5.1083,5.1049,5.1066,5.0947,5.1032,5.1066,5.0998,5.1015,5.1066,5.0981,5.0371,5.0067,5.015,5.071,5.0964,5.0981,5.11,5.115,5.115,5.1218,5.159,5.2232,5.2283,5.2621,5.3297,5.3365,5.3698,5.419,5.4221,5.4584,5.5217,5.5812,5.6215,5.6311,5.6865,5.7161,5.7192,5.7192,5.7264,5.7333,5.7188,5.7188,5.7188,5.7188,5.7188,5.7188,5.7116,5.7116,5.7116,5.7062,5.6989,5.7007,5.7043,5.708,5.7134,5.7188,5.7261,5.7279,5.7387,5.7261,5.7478,5.7985,5.8329,5.8347,5.8927,5.8764,5.7703,5.8224,5.8713,5.8829,5.9682,6.0273,6.0352,6.1062,6.1484,6.163,6.2089,6.2426,6.2664,6.2774,6.2848,6.2866,6.2848,6.2922,6.322,6.3612,6.3963,6.4003,6.3615,6.2953,6.2309,6.1292,6.1032,6.1013,6.0651,6.0323,5.9961,5.9685,5.9392,5.915,5.9047,5.8996,5.8995,5.8978,5.8927,5.8978,5.8961,5.8823,5.8543,5.8508,5.8312,5.1218,5.1218,5.1218,5.1218,5.1218,5.1218,5.1218,5.1218,5.1218,5.1218,5.1218,5.1218,5.1218,5.1201,5.1437,5.1251,5.0846,5.1083,5.1218,5.1269,5.1674,5.1894,5.1961,5.2418,5.279,5.3027,5.3061,5.3412,5.4008,5.4075,5.4392,5.495,5.5056,5.537,5.5922,5.617,5.6492,5.6917,5.7588,5.7949,5.8021,5.8474,5.8728,5.8673,5.7713,5.7188,5.7188,5.7188,5.7188,5.7188,5.7188,5.7188,5.7188,5.7188,5.7188,5.7243,5.7677,5.7967,5.8021,5.8438,5.8746,5.8746,5.8746,5.8691,5.8782,5.8999,5.9162,5.9235,5.9398,5.9222,5.9025,5.9198,5.952,5.9773,6.0475,6.1098,6.1276,6.1869,6.2352,6.242,6.2664,6.2793,6.2848,6.2811,6.3013,6.3521,6.3631,6.3877,6.4391,6.4739,6.5014,6.5355,6.4768,6.4122,6.4497,6.2472,6.1307,6.1237,6.1047,6.0927,6.0668,6.0047,5.9702,5.9495,5.9306,5.8995,5.8995,5.8995,5.8995,5.8995,5.8961,5.8806,5.8526,5.8438,5.8242,5.1945,5.1945,5.1945,5.1945,5.1945,5.1928,5.1945,5.1928,5.1945,5.1945,5.1928,5.1928,5.1928,5.2013,5.2469,5.2435,5.1962,5.1945,5.1928,5.1979,5.2469,5.2689,5.2773,5.3247,5.3501,5.3484,5.3501,5.3799,5.4345,5.4424,5.4872,5.5665,5.5708,5.6007,5.6524,5.6846,5.722,5.7681,5.8383,5.88,5.8872,5.9307,5.9602,5.9457,5.8528,5.7985,5.7985,5.7967,5.7985,5.7967,5.7985,5.7967,5.7967,5.7967,5.7967,5.8039,5.8492,5.8782,5.8854,5.9289,5.9584,5.9602,5.9584,5.9602,5.9602,5.985,5.9977,6.0031,6.0285,6.0394,6.0455,6.0547,6.0562,6.0674,6.1279,6.1824,6.1991,6.2456,6.2738,6.2756,6.2774,6.2903,6.3172,6.3227,6.3649,6.4396,6.4475,6.4824,6.5503,6.5723,6.5962,6.6603,6.5651,6.4981,6.4607,6.2993,6.1879,6.172,6.0892,6.0944,6.0789,6.0237,5.9892,5.9754,5.953,5.9151,5.8995,5.8995,5.8995,5.8995,5.8892,5.8753,5.8526,5.8331,5.817,5.345,5.3365,5.3467,5.3332,5.3281,5.3281,5.3433,5.3331,5.3349,5.3247,5.3179,5.3349,5.323,5.3399,5.3315,5.3399,5.3298,5.3264,5.3247,5.3281,5.3365,5.3399,5.3399,5.345,5.3501,5.3501,5.3501,5.3849,5.4471,5.4548,5.5112,5.6101,5.6311,5.6622,5.7217,5.7854,5.8309,5.8565,5.9185,5.9615,5.962,5.976,5.9837,5.9783,5.9656,5.9615,5.9615,5.9524,5.9398,5.9439,5.9439,5.9566,5.9416,5.9384,5.9493,5.9416,5.9561,5.9615,5.9602,5.9742,5.9891,5.9891,5.9747,5.9873,6.0036,6.0453,6.0815,6.0887,6.139,6.1883,6.1937,6.1954,6.1761,6.1417,6.1973,6.2508,6.2682,6.2774,6.2829,6.2884,6.2958,6.3227,6.3833,6.4108,6.4439,6.5063,6.5307,6.5595,6.6329,6.6512,6.6861,6.7072,6.627,6.5282,6.4378,6.3408,6.2805,6.2151,6.0996,6.0375,6.0099,5.9668,5.9444,5.9288,5.9306,5.8995,5.8995,5.8995,5.8995,5.8961,5.884,5.8753,5.8613,5.842,5.8224,5.3501,5.3501,5.3501,5.3501,5.3501,5.3501,5.3501,5.3501,5.3501,5.3501,5.3501,5.3501,5.3501,5.3501,5.3501,5.3501,5.3501,5.3501,5.3501,5.3501,5.3501,5.3501,5.3501,5.3501,5.3501,5.3501,5.3501,5.4044,5.4837,5.5052,5.5733,5.6701,5.6902,5.7317,5.7972,5.8293,5.8637,5.9271,6.0031,6.0435,6.0489,6.096,6.1231,6.1267,6.1267,6.1249,6.1213,6.0181,5.962,5.9638,5.9602,5.9602,5.962,5.9602,5.9602,5.9656,6.0145,6.0416,6.0507,6.0923,6.1195,6.1231,6.1231,6.1249,6.1249,6.1448,6.1593,6.1611,6.1883,6.2037,6.206,6.215,6.2133,6.2166,6.2413,6.2672,6.2841,6.2848,6.3086,6.3594,6.3686,6.4071,6.4677,6.4934,6.5264,6.5962,6.6127,6.6439,6.7076,6.7202,6.7117,6.6978,6.6053,6.5023,6.3882,6.2661,6.1779,6.1306,6.0478,5.9858,5.9547,5.934,5.9099,5.8995,5.8995,5.8995,5.8995,5.8995,5.8995,5.8995,5.8944,5.8823,5.8718,5.8543,5.8348,5.3501,5.3501,5.3501,5.3501,5.3501,5.3501,5.3501,5.3501,5.3501,5.3501,5.3501,5.3501,5.3501,5.3501,5.3501,5.3501,5.3501,5.3501,5.3501,5.3501,5.3501,5.3501,5.3501,5.3501,5.3501,5.3551,5.3717,5.4362,5.5305,5.5629,5.6243,5.7079,5.7478,5.7876,5.8456,5.9017,5.9579,6.0109,6.0833,6.1249,6.1358,6.1738,6.201,6.201,6.201,6.201,6.1919,6.0996,6.0489,6.0489,6.0489,6.0489,6.0489,6.0525,6.0489,6.0579,6.0905,6.1249,6.1322,6.1666,6.201,6.201,6.201,6.1992,6.1992,6.201,6.201,6.201,6.201,6.201,6.2037,6.2128,6.2291,6.2506,6.2547,6.2801,6.3134,6.3301,6.3668,6.4273,6.453,6.4934,6.5485,6.576,6.609,6.6733,6.6953,6.7026,6.75,6.7424,6.7075,6.6415,6.5374,6.4303,6.3174,6.1968,6.0722,6.022,5.9754,5.9444,5.9185,5.9133,5.8995,5.8995,5.8995,5.8995,5.8995,5.8995,5.8995,5.8995,5.8995,5.8875,5.8736,5.8648,5.8472,5.3501,5.3501,5.3501,5.3501,5.3501,5.3501,5.3501,5.3501,5.3501,5.3501,5.3501,5.3501,5.3501,5.3501,5.3501,5.3501,5.3501,5.3501,5.3501,5.3501,5.3501,5.3501,5.3501,5.3501,5.3501,5.3568,5.4059,5.4736,5.5385,5.5947,5.6595,5.7192,5.7913,5.8438,5.8782,6.0018,6.067,6.0942,6.1593,6.1919,6.1919,6.1973,6.201,6.201,6.201,6.201,6.1973,6.1829,6.1865,6.1955,6.1792,6.1756,6.1919,6.1992,6.1811,6.1792,6.1955,6.1937,6.1973,6.1955,6.201,6.201,6.201,6.201,6.201,6.201,6.201,6.201,6.201,6.201,6.2019,6.2136,6.2296,6.241,6.2565,6.3022,6.3894,6.4029,6.4383,6.5086,6.5398,6.5655,6.6439,6.6549,6.6916,6.7352,6.7572,6.7582,6.7378,6.7132,6.6751,6.5866,6.4738,6.3606,6.2506,6.1484,6.0289,5.9702,5.934,5.9202,5.903,5.9013,5.8995,5.8995,5.8995,5.8995,5.8995,5.8995,5.8995,5.8995,5.8944,5.8857,5.8839,5.8839,5.8957,5.3501,5.3501,5.3501,5.3501,5.3501,5.3501,5.3501,5.3501,5.3501,5.3501,5.3501,5.3501,5.3501,5.3501,5.3501,5.3501,5.3501,5.3501,5.3501,5.3501,5.3501,5.3501,5.3501,5.3501,5.3501,5.3601,5.4172,5.4749,5.5399,5.6049,5.6639,5.723,5.8058,5.8733,5.9348,6.0308,6.1086,6.1611,6.1847,6.201,6.201,6.201,6.201,6.201,6.201,6.201,6.201,6.201,6.201,6.201,6.201,6.201,6.201,6.201,6.201,6.201,6.201,6.201,6.201,6.201,6.201,6.201,6.201,6.201,6.201,6.201,6.201,6.201,6.201,6.201,6.2033,6.2222,6.2428,6.2641,6.2705,6.3104,6.3894,6.4139,6.4604,6.587,6.6164,6.6568,6.7045,6.7333,6.7407,6.7627,6.7674,6.752,6.7192,6.6776,6.6404,6.5234,6.4105,6.296,6.1884,6.0895,6.0013,5.934,5.9082,5.9099,5.9013,5.8995,5.8995,5.8995,5.8995,5.8995,5.8995,5.8995,5.8995,5.8995,5.8961,5.8927,5.9202,5.9305,5.9579,5.3501,5.3501,5.3501,5.3501,5.3501,5.3501,5.3501,5.3501,5.3501,5.3501,5.3501,5.3501,5.3501,5.3501,5.3501,5.3501,5.3501,5.3501,5.3501,5.3501,5.3501,5.3501,5.3501,5.3501,5.3501,5.3618,5.441,5.4978,5.5484,5.6207,5.6999,5.7758,5.851,5.9307,6.0091,6.0887,6.1503,6.1919,6.201,6.201,6.201,6.201,6.201,6.201,6.201,6.201,6.201,6.201,6.201,6.201,6.201,6.201,6.201,6.201,6.201,6.201,6.201,6.201,6.201,6.201,6.201,6.201,6.201,6.201,6.201,6.201,6.201,6.201,6.201,6.201,6.2051,6.2248,6.248,6.2654,6.2755,6.3306,6.4457,6.4971,6.5668,6.6586,6.7026,6.7118,6.7664,6.7682,6.7682,6.7682,6.7682,6.7318,6.6885,6.6478,6.5763,6.453,6.3292,6.2127,6.119,6.0255,5.9771,5.9133,5.8995,5.8995,5.8995,5.8995,5.8995,5.8995,5.8995,5.8995,5.8995,5.8995,5.8995,5.8995,5.8995,5.9202,5.9495,6.0013,6.027,5.3501,5.3517,5.3501,5.3501,5.3501,5.3501,5.3501,5.3501,5.3501,5.3501,5.3501,5.3501,5.3501,5.3501,5.3501,5.3501,5.3501,5.3501,5.3501,5.3501,5.3501,5.3501,5.3501,5.3501,5.3585,5.3833,5.4861,5.5323,5.5741,5.6643,5.7559,5.8275,5.9126,5.9964,6.067,6.1503,6.1955,6.1992,6.201,6.201,6.201,6.201,6.201,6.201,6.201,6.201,6.201,6.201,6.201,6.201,6.201,6.201,6.201,6.201,6.201,6.201,6.201,6.201,6.201,6.201,6.201,6.201,6.201,6.201,6.201,6.201,6.201,6.201,6.201,6.2023,6.2073,6.2262,6.2441,6.2627,6.2772,6.3666,6.4866,6.5888,6.6714,6.7554,6.7664,6.7682,6.7682,6.7682,6.7682,6.766,6.7515,6.7,6.6419,6.5846,6.4914,6.3654,6.244,6.1222,6.041,5.9633,5.934,5.8995,5.8995,5.8995,5.8995,5.8995,5.8995,5.8995,5.8995,5.8995,5.8995,5.8995,5.8995,5.9116,5.9202,5.9564,5.9978,6.0651,6.1063,5.3568,5.3634,5.3551,5.3501,5.3501,5.3501,5.3501,5.3501,5.3501,5.3501,5.3501,5.3501,5.3501,5.3501,5.3501,5.3501,5.3501,5.3501,5.3501,5.3501,5.3501,5.3501,5.3501,5.3501,5.3767,5.4252,5.4981,5.5618,5.6152,5.6835,5.7623,5.8456,5.9325,6.0018,6.0851,6.1611,6.201,6.201,6.201,6.201,6.201,6.201,6.201,6.201,6.201,6.201,6.201,6.201,6.201,6.201,6.201,6.201,6.201,6.201,6.201,6.201,6.201,6.201,6.201,6.201,6.201,6.201,6.201,6.201,6.201,6.201,6.201,6.201,6.201,6.2033,6.2128,6.219,6.2362,6.2618,6.3105,6.3681,6.4358,6.5118,6.6237,6.7223,6.7664,6.7682,6.7682,6.7682,6.7687,6.7647,6.722,6.6648,6.6005,6.535,6.4174,6.2962,6.2091,6.0996,6.0064,5.9444,5.9185,5.8995,5.8995,5.8995,5.8995,5.8995,5.8995,5.8995,5.8995,5.8995,5.8995,5.8995,5.9013,5.9219,5.9495,5.996,6.0512,6.1219,6.1804,5.3584,5.3684,5.3568,5.3501,5.3501,5.3501,5.3501,5.3501,5.3501,5.3501,5.3501,5.3501,5.3501,5.3501,5.3501,5.3501,5.3501,5.3501,5.3501,5.3501,5.3501,5.3501,5.3501,5.3551,5.3816,5.444,5.5087,5.5705,5.6379,5.7277,5.822,5.8981,5.9747,6.0616,6.1249,6.1792,6.1992,6.201,6.201,6.201,6.201,6.201,6.201,6.201,6.201,6.201,6.201,6.201,6.201,6.201,6.201,6.201,6.201,6.201,6.201,6.201,6.201,6.201,6.201,6.201,6.201,6.201,6.201,6.201,6.201,6.201,6.201,6.201,6.201,6.2033,6.2114,6.219,6.2323,6.2522,6.2931,6.3441,6.4107,6.5118,6.6109,6.704,6.7462,6.7627,6.7682,6.7642,6.7669,6.7642,6.7089,6.6511,6.5831,6.5047,6.3657,6.2543,6.1812,6.0909,5.9875,5.9306,5.9099,5.8995,5.8995,5.8995,5.8995,5.8995,5.8995,5.8995,5.8995,5.8995,5.8995,5.9013,5.9202,5.9633,6.003,6.046,6.101,6.175,6.2316,5.3601,5.3734,5.3568,5.3501,5.3501,5.3501,5.3501,5.3501,5.3501,5.3501,5.3501,5.3501,5.3501,5.3501,5.3501,5.3501,5.3501,5.3501,5.3501,5.3501,5.3501,5.3501,5.3517,5.3684,5.4044,5.4563,5.5132,5.5748,5.6658,5.7713,5.8642,5.9566,6.0362,6.1068,6.1774,6.1992,6.201,6.201,6.201,6.201,6.201,6.201,6.201,6.201,6.201,6.201,6.201,6.201,6.201,6.201,6.201,6.201,6.201,6.201,6.201,6.201,6.201,6.201,6.201,6.201,6.201,6.201,6.201,6.201,6.201,6.201,6.201,6.201,6.201,6.201,6.2023,6.2087,6.223,6.2389,6.25,6.2989,6.3886,6.5264,6.5907,6.6573,6.681,6.6939,6.736,6.7547,6.7615,6.7529,6.6942,6.6362,6.5673,6.471,6.3363,6.2281,6.1567,6.0633,5.9616,5.9237,5.9013,5.8995,5.8995,5.8995,5.8995,5.8995,5.8995,5.8995,5.8995,5.8995,5.8995,5.8995,5.934,5.9978,6.0512,6.0908,6.1543,6.2279,6.2721,5.3668,5.3932,5.3618,5.3501,5.3501,5.3501,5.3501,5.3501,5.3501,5.3501,5.3501,5.3501,5.3501,5.3501,5.3501,5.3501,5.3501,5.3501,5.3501,5.3501,5.3501,5.3501,5.3568,5.3962,5.4534,5.5087,5.5458,5.6017,5.705,5.7965,5.895,5.9656,6.0471,6.1267,6.1811,6.201,6.201,6.201,6.201,6.201,6.201,6.201,6.201,6.201,6.201,6.201,6.201,6.201,6.201,6.201,6.201,6.201,6.201,6.201,6.201,6.201,6.201,6.201,6.201,6.201,6.201,6.201,6.201,6.201,6.201,6.201,6.201,6.201,6.201,6.201,6.201,6.2033,6.215,6.2323,6.2459,6.2631,6.317,6.398,6.506,6.5825,6.6003,6.6175,6.6587,6.7,6.7156,6.6967,6.646,6.5987,6.5463,6.4423,6.313,6.2206,6.1411,6.0375,5.9306,5.9151,5.8995,5.8995,5.8995,5.8995,5.8995,5.8995,5.8995,5.8995,5.8995,5.8995,5.8995,5.8995,5.9547,6.0202,6.0788,6.1322,6.2094,6.2761,6.2889,5.3767,5.3948,5.3652,5.3501,5.3501,5.3501,5.3501,5.3501,5.3501,5.3501,5.3501,5.3501,5.3501,5.3501,5.3501,5.3501,5.3501,5.3501,5.3501,5.3501,5.3501,5.3501,5.3568,5.414,5.4767,5.5325,5.5737,5.6561,5.7782,5.8642,5.9384,6.0254,6.1032,6.163,6.1919,6.201,6.201,6.201,6.201,6.201,6.201,6.201,6.201,6.201,6.201,6.201,6.201,6.201,6.201,6.201,6.201,6.201,6.201,6.201,6.201,6.201,6.201,6.201,6.201,6.201,6.201,6.201,6.201,6.201,6.201,6.201,6.201,6.201,6.201,6.201,6.201,6.201,6.2141,6.2323,6.2415,6.2545,6.2796,6.3202,6.3923,6.4835,6.5188,6.5388,6.5657,6.6089,6.6503,6.6371,6.5966,6.5621,6.5269,6.4218,6.3066,6.1823,6.0944,6.0013,5.9185,5.9099,5.8995,5.8995,5.8995,5.8995,5.8995,5.8995,5.8995,5.8995,5.8995,5.8995,5.8995,5.9013,5.9737,6.0392,6.0926,6.1563,6.2525,6.3156,6.3216,5.3799,5.3964,5.3652,5.3501,5.3501,5.3501,5.3501,5.3501,5.3501,5.3501,5.3501,5.3501,5.3501,5.3501,5.3501,5.3501,5.3501,5.3501,5.3501,5.3501,5.3501,5.3501,5.3668,5.4268,5.4935,5.5449,5.6536,5.7289,5.8239,5.9108,5.9964,6.0706,6.1557,6.1992,6.201,6.201,6.201,6.201,6.201,6.201,6.201,6.201,6.201,6.201,6.201,6.201,6.201,6.201,6.201,6.201,6.201,6.201,6.201,6.201,6.201,6.201,6.201,6.201,6.201,6.201,6.201,6.201,6.201,6.201,6.201,6.201,6.201,6.201,6.201,6.201,6.2023,6.2051,6.2168,6.2323,6.2441,6.25,6.2654,6.2762,6.2543,6.331,6.4083,6.4423,6.4515,6.5265,6.5707,6.6094,6.5725,6.5653,6.5219,6.427,6.3049,6.153,6.0427,5.9547,5.903,5.9047,5.8995,5.8995,5.8995,5.8995,5.8995,5.8995,5.8995,5.8995,5.8995,5.8995,5.8995,5.9151,5.9789,6.0409,6.1013,6.1823,6.2872,6.3281,6.3325,5.3816,5.3981,5.3652,5.3501,5.3501,5.3501,5.3501,5.3501,5.3501,5.3501,5.3501,5.3501,5.3501,5.3501,5.3501,5.3501,5.3501,5.3501,5.3501,5.3501,5.3501,5.3501,5.3685,5.4769,5.5171,5.5757,5.7204,5.8078,5.8751,5.9416,6.0072,6.0887,6.1611,6.201,6.201,6.201,6.201,6.201,6.201,6.201,6.201,6.201,6.201,6.201,6.201,6.201,6.201,6.201,6.201,6.201,6.201,6.201,6.201,6.201,6.201,6.201,6.201,6.201,6.201,6.201,6.201,6.201,6.201,6.201,6.201,6.201,6.201,6.201,6.201,6.201,6.2037,6.2114,6.2243,6.2376,6.2488,6.2603,6.2717,6.2391,6.2146,6.1685,6.2412,6.2824,6.3044,6.4025,6.4903,6.5273,6.5522,6.5387,6.4911,6.3781,6.3014,6.1513,6.0168,5.9254,5.8995,5.8995,5.8995,5.8995,5.8995,5.8995,5.8995,5.8995,5.8995,5.8995,5.8995,5.8995,5.8995,5.9288,5.984,6.0478,6.1134,6.2151,6.3272,6.344,6.3452,5.3915,5.3948,5.3652,5.3501,5.3501,5.3501,5.3501,5.3501,5.3501,5.3501,5.3501,5.3501,5.3501,5.3501,5.3501,5.3501,5.3501,5.3501,5.3501,5.3501,5.3501,5.3501,5.3684,5.4445,5.5088,5.6162,5.7308,5.8687,5.9343,6.0059,6.0688,6.1394,6.1792,6.201,6.201,6.201,6.201,6.201,6.201,6.201,6.201,6.201,6.201,6.201,6.201,6.201,6.201,6.201,6.201,6.201,6.201,6.201,6.201,6.201,6.201,6.201,6.201,6.201,6.201,6.201,6.201,6.201,6.201,6.201,6.201,6.201,6.201,6.201,6.201,6.201,6.2037,6.2123,6.2257,6.2384,6.2539,6.2603,6.2572,6.2157,6.1786,6.12,6.0707,6.1146,6.1725,6.2775,6.3379,6.3459,6.4024,6.4436,6.3736,6.2629,6.2031,6.1496,6.022,5.9047,5.8995,5.8995,5.8995,5.8995,5.8995,5.8995,5.8995,5.8995,5.8995,5.8995,5.8995,5.8995,5.8995,5.9237,5.9616,6.0444,6.1289,6.2272,6.3186,6.3531,6.3526,5.3793,5.3899,5.3618,5.3501,5.3501,5.3501,5.3501,5.3501,5.3501,5.3501,5.3501,5.3501,5.3501,5.3501,5.3501,5.3501,5.3501,5.3501,5.3501,5.3501,5.3501,5.3501,5.3786,5.431,5.5277,5.6329,5.7775,5.8946,6.0037,6.0901,6.1412,6.1992,6.1955,6.201,6.201,6.201,6.201,6.201,6.201,6.201,6.201,6.201,6.201,6.201,6.201,6.201,6.201,6.201,6.201,6.201,6.201,6.201,6.201,6.201,6.201,6.201,6.201,6.201,6.201,6.201,6.201,6.201,6.201,6.201,6.201,6.201,6.201,6.201,6.201,6.2023,6.2073,6.2177,6.2323,6.2449,6.259,6.2603,6.2469,6.1869,6.1257,6.0661,6.0107,5.9635,6.0373,6.1466,6.1895,6.1738,6.2313,6.3261,6.2769,6.1827,6.1496,6.1203,6.0099,5.9047,5.8995,5.8995,5.8995,5.8995,5.8995,5.8995,5.8995,5.8995,5.8995,5.8995,5.8995,5.8995,5.8995,5.9168,5.9426,6.0496,6.1461,6.2203,6.291,6.3341,6.36,5.3201,5.3717,5.3568,5.3501,5.3501,5.3501,5.3501,5.3501,5.3501,5.3501,5.3501,5.3501,5.3501,5.3501,5.3501,5.3501,5.3501,5.3501,5.3501,5.3501,5.3501,5.3568,5.3922,5.4645,5.5512,5.6229,5.7804,5.9183,6.016,6.1196,6.1669,6.1992,6.201,6.201,6.201,6.201,6.201,6.201,6.201,6.201,6.201,6.201,6.201,6.201,6.201,6.201,6.201,6.201,6.201,6.201,6.201,6.201,6.201,6.201,6.201,6.201,6.201,6.201,6.201,6.201,6.201,6.201,6.201,6.201,6.201,6.201,6.201,6.201,6.201,6.2046,6.2168,6.231,6.2402,6.2313,6.2295,6.2192,6.1919,6.1311,6.0709,6.0111,5.9647,5.9267,5.9351,6.0534,6.0878,6.0768,6.1515,6.2462,6.2335,6.1599,6.1323,6.0875,5.9823,5.9133,5.9013,5.8995,5.8995,5.8995,5.8995,5.8995,5.8995,5.8995,5.8995,5.8995,5.8995,5.8995,5.9064,5.9306,5.9806,6.0771,6.1634,6.2375,6.2962,6.3444,6.36,5.3021,5.3568,5.3517,5.3501,5.3501,5.3501,5.3501,5.3501,5.3501,5.3501,5.3501,5.3501,5.3501,5.3501,5.3501,5.3501,5.3501,5.3501,5.3501,5.3501,5.3501,5.3771,5.4245,5.4822,5.5601,5.6788,5.8218,5.9483,6.0623,6.1186,6.1592,6.1868,6.201,6.201,6.201,6.201,6.201,6.201,6.201,6.201,6.201,6.201,6.201,6.201,6.201,6.201,6.201,6.201,6.201,6.201,6.201,6.201,6.201,6.201,6.201,6.201,6.201,6.201,6.201,6.201,6.201,6.201,6.201,6.201,6.201,6.201,6.201,6.201,6.201,6.2046,6.2073,6.223,6.2318,6.2109,6.1951,6.1879,6.1439,6.0855,6.0359,5.9825,5.945,5.9064,5.93,5.97,5.9809,5.9902,6.0782,6.1478,6.1432,6.1323,6.0996,6.0634,5.965,5.9151,5.9013,5.8995,5.8995,5.8995,5.8995,5.8995,5.8995,5.8995,5.8995,5.8995,5.8995,5.8995,5.9133,5.9478,6.0116,6.0996,6.1789,6.2531,6.3065,6.3548,6.36,5.2616,5.3145,5.3399,5.3501,5.3501,5.3501,5.3501,5.3501,5.3501,5.3501,5.3501,5.3501,5.3501,5.3501,5.3501,5.3501,5.3501,5.3501,5.3501,5.3501,5.3568,5.3957,5.4448,5.5059,5.5859,5.7295,5.8166,5.9156,6.0484,6.0861,6.1401,6.1822,6.201,6.201,6.201,6.201,6.201,6.201,6.201,6.201,6.201,6.201,6.201,6.201,6.201,6.201,6.201,6.201,6.201,6.201,6.201,6.201,6.201,6.201,6.201,6.201,6.201,6.201,6.201,6.201,6.201,6.201,6.201,6.201,6.201,6.201,6.201,6.201,6.201,6.2023,6.2046,6.2243,6.2357,6.2215,6.1978,6.181,6.1135,6.0557,6.0079,5.9599,5.9267,5.8995,5.9081,5.9367,5.9585,5.9729,6.0287,6.0824,6.0826,6.0703,6.0513,6.0116,5.9564,5.9219,5.8995,5.8995,5.8995,5.8995,5.8995,5.8995,5.8995,5.8995,5.8995,5.8995,5.8995,5.8995,5.9306,5.9806,6.0444,6.1168,6.203,6.2997,6.3169,6.36,6.36,5.1836,5.2384,5.3162,5.3467,5.3484,5.3501,5.3501,5.3501,5.3501,5.3501,5.3501,5.3501,5.3501,5.3501,5.3501,5.3501,5.3501,5.3501,5.3501,5.3501,5.3704,5.4025,5.4702,5.543,5.6193,5.6995,5.7928,5.8973,6.0014,6.0544,6.121,6.1748,6.1923,6.201,6.201,6.201,6.201,6.201,6.201,6.201,6.201,6.201,6.201,6.201,6.201,6.201,6.201,6.201,6.201,6.201,6.201,6.201,6.201,6.201,6.201,6.201,6.201,6.201,6.201,6.201,6.201,6.201,6.201,6.201,6.201,6.201,6.201,6.201,6.201,6.2073,6.2177,6.2291,6.2352,6.2077,6.1783,6.1326,6.063,6.0139,5.963,5.9383,5.9182,5.8995,5.8995,5.9098,5.9417,5.9695,6.0029,6.0186,6.0203,6.0099,5.9909,5.9737,5.9323,5.9202,5.8995,5.8995,5.8995,5.8995,5.8995,5.8995,5.8995,5.8995,5.8995,5.8995,5.8995,5.8995,5.9547,6.0168,6.0996,6.1841,6.2703,6.3444,6.3565,6.36,6.36,5.1265,5.2317,5.2587,5.301,5.345,5.3501,5.3501,5.3501,5.3501,5.3501,5.3501,5.3501,5.3501,5.3501,5.3501,5.3501,5.3501,5.3501,5.3501,5.3534,5.3923,5.4668,5.531,5.5986,5.6747,5.7428,5.8194,5.8651,5.928,6.006,6.0714,6.1224,6.1836,6.1996,6.201,6.201,6.201,6.201,6.201,6.201,6.201,6.201,6.201,6.201,6.201,6.201,6.201,6.201,6.201,6.201,6.201,6.201,6.201,6.201,6.201,6.201,6.201,6.201,6.201,6.201,6.201,6.201,6.201,6.201,6.201,6.201,6.201,6.201,6.201,6.2073,6.219,6.2323,6.2207,6.1404,6.095,6.045,5.9902,5.9531,5.9182,5.9132,5.8995,5.8995,5.8995,5.8995,5.9233,5.93,5.9547,5.953,5.9513,5.9426,5.9288,5.9288,5.9099,5.9047,5.8995,5.8995,5.8995,5.8995,5.8995,5.8995,5.8995,5.8995,5.8995,5.8995,5.8995,5.9047,5.9754,6.0565,6.1685,6.2617,6.3238,6.3582,6.36,6.36,6.36,5.0811,5.1911,5.2198,5.2756,5.3433,5.3501,5.3501,5.3501,5.3501,5.3501,5.3501,5.3501,5.3501,5.3501,5.3501,5.3501,5.3501,5.3501,5.3501,5.3602,5.4262,5.4938,5.5665,5.646,5.7087,5.7714,5.801,5.8352,5.9397,5.979,6.0562,6.1358,6.1748,6.195,6.201,6.201,6.201,6.201,6.201,6.201,6.201,6.201,6.201,6.201,6.201,6.201,6.201,6.201,6.201,6.201,6.201,6.201,6.201,6.201,6.201,6.201,6.201,6.201,6.201,6.201,6.201,6.201,6.201,6.201,6.201,6.201,6.201,6.201,6.201,6.2087,6.219,6.2323,6.196,6.1174,6.0678,6.0217,5.9711,5.9383,5.9064,5.9012,5.8995,5.8995,5.8995,5.8995,5.9064,5.9047,5.9013,5.8995,5.8995,5.8995,5.8995,5.8995,5.9013,5.8995,5.8995,5.8995,5.8995,5.8995,5.8995,5.8995,5.8995,5.8995,5.8995,5.8995,5.903,5.9271,6.0047,6.0927,6.2082,6.2858,6.3393,6.36,6.36,6.36,6.36,5.049,5.1235,5.1961,5.2706,5.3365,5.345,5.3501,5.3501,5.3501,5.3501,5.3501,5.3501,5.3501,5.3501,5.3501,5.3501,5.3501,5.3501,5.3501,5.3771,5.4431,5.509,5.58,5.6544,5.7306,5.7714,5.7974,5.8404,5.9725,5.995,6.0671,6.1636,6.1937,6.201,6.201,6.201,6.201,6.201,6.201,6.201,6.201,6.201,6.201,6.201,6.201,6.201,6.201,6.201,6.201,6.201,6.201,6.201,6.201,6.201,6.201,6.201,6.201,6.201,6.201,6.201,6.201,6.201,6.201,6.201,6.201,6.201,6.201,6.201,6.2023,6.21,6.219,6.2118,6.2001,6.1447,6.0962,6.0419,5.9857,5.9467,5.9115,5.8995,5.8995,5.8995,5.8995,5.8995,5.8995,5.8995,5.8995,5.8995,5.8995,5.8995,5.8995,5.8995,5.8995,5.8995,5.8995,5.8995,5.8995,5.8995,5.8995,5.8995,5.8995,5.8995,5.8995,5.9013,5.9082,5.953,6.0444,6.1444,6.2531,6.317,6.3548,6.36,6.36,6.36,6.36,4.9763,5.0473,5.1217,5.1945,5.2689,5.3264,5.3501,5.3501,5.3501,5.3501,5.3501,5.3501,5.3501,5.3501,5.3501,5.3501,5.3501,5.3501,5.3501,5.3923,5.4752,5.5327,5.6071,5.69,5.756,5.7815,5.7991,5.819,5.872,5.9347,6.0714,6.178,6.1996,6.201,6.201,6.201,6.201,6.201,6.201,6.201,6.201,6.201,6.201,6.201,6.201,6.201,6.201,6.201,6.201,6.201,6.201,6.201,6.201,6.201,6.201,6.201,6.201,6.201,6.201,6.201,6.201,6.201,6.201,6.201,6.201,6.201,6.201,6.201,6.2023,6.2073,6.2055,6.1983,6.1694,6.1199,6.0694,6.0141,5.9614,5.93,5.8995,5.8995,5.8995,5.8995,5.8995,5.8995,5.8995,5.8995,5.8995,5.8995,5.8995,5.8995,5.8995,5.8995,5.8995,5.8995,5.8995,5.8995,5.8995,5.8995,5.8995,5.8995,5.8995,5.8995,5.8995,5.9151,5.9426,6.0133,6.0996,6.1979,6.2963,6.3255,6.36,6.36,6.36,6.36,6.36,4.9424,5.0118,5.0574,5.1352,5.235,5.3162,5.3501,5.3501,5.3501,5.3501,5.3501,5.3501,5.3501,5.3501,5.3501,5.3501,5.3501,5.3518,5.3636,5.4313,5.5124,5.5733,5.6478,5.7222,5.7747,5.79,5.7955,5.8136,5.8511,5.9643,6.1045,6.1895,6.201,6.201,6.201,6.201,6.201,6.201,6.201,6.201,6.201,6.201,6.201,6.201,6.201,6.201,6.201,6.201,6.201,6.201,6.201,6.201,6.201,6.201,6.201,6.201,6.201,6.201,6.201,6.201,6.201,6.201,6.201,6.201,6.201,6.201,6.201,6.201,6.2005,6.2005,6.1932,6.1786,6.1279,6.0772,6.0268,5.9745,5.94,5.9064,5.8995,5.8995,5.8995,5.8995,5.8995,5.8995,5.8995,5.8995,5.8995,5.8995,5.8995,5.8995,5.8995,5.8995,5.8995,5.8995,5.8995,5.8995,5.8995,5.8995,5.8995,5.8995,5.8995,5.8995,5.8995,5.9426,5.9961,6.0668,6.1375,6.2341,6.3221,6.3462,6.36,6.36,6.36,6.36,6.36,4.939,5.0015,5.0084,5.098,5.2317,5.3061,5.3416,5.3501,5.3501,5.3501,5.3501,5.3501,5.3501,5.3501,5.3501,5.3501,5.3501,5.3501,5.3873,5.4617,5.5293,5.5969,5.6714,5.7509,5.7832,5.79,5.7974,5.8191,5.9062,5.9996,6.0942,6.1895,6.201,6.1923,6.178,6.1969,6.1854,6.1494,6.178,6.201,6.201,6.201,6.201,6.201,6.201,6.201,6.201,6.201,6.201,6.201,6.201,6.201,6.201,6.201,6.201,6.201,6.201,6.201,6.201,6.201,6.201,6.201,6.201,6.201,6.201,6.201,6.201,6.201,6.2023,6.1836,6.172,6.1326,6.0817,6.0328,5.9841,5.9467,5.9199,5.8995,5.8995,5.8995,5.8995,5.8995,5.8995,5.8995,5.8995,5.8995,5.8995,5.8995,5.8995,5.8995,5.8995,5.8995,5.8995,5.8995,5.8995,5.8995,5.8995,5.8995,5.8995,5.8995,5.8995,5.8995,5.9013,5.9633,6.0289,6.0944,6.1703,6.2651,6.3324,6.3496,6.36,6.36,6.36,6.36,6.36,4.9103,4.9323,4.988,5.0963,5.2232,5.2503,5.2959,5.3484,5.3501,5.3501,5.3501,5.3501,5.3501,5.3501,5.3501,5.3501,5.3501,5.3534,5.3957,5.4617,5.5361,5.6088,5.6816,5.7526,5.7849,5.79,5.7992,5.8245,5.8994,5.9819,6.0608,6.1253,6.159,6.1766,6.1472,6.1692,6.149,6.0989,6.1405,6.1752,6.1812,6.1955,6.201,6.1996,6.1964,6.201,6.201,6.201,6.201,6.201,6.201,6.201,6.201,6.201,6.201,6.201,6.201,6.201,6.201,6.1996,6.1982,6.1969,6.1969,6.1996,6.201,6.201,6.1982,6.1969,6.1923,6.1724,6.1343,6.0849,6.039,5.9921,5.9467,5.9233,5.9012,5.9012,5.8995,5.8995,5.8995,5.8995,5.8995,5.8995,5.8995,5.8995,5.8995,5.8995,5.8995,5.8995,5.8995,5.8995,5.8995,5.8995,5.8995,5.8995,5.8995,5.8995,5.8995,5.8995,5.8995,5.8995,5.9099,5.9926,6.0651,6.1272,6.1979,6.2893,6.3427,6.3565,6.36,6.36,6.36,6.36,6.36,4.9018,4.9086,4.9796,5.0556,5.1336,5.1995,5.257,5.2976,5.3332,5.3501,5.3501,5.3501,5.3501,5.3501,5.3501,5.3501,5.3501,5.3501,5.3974,5.4634,5.5361,5.6105,5.6833,5.7526,5.7781,5.79,5.7954,5.8262,5.8858,5.9643,6.0359,6.0897,6.1372,6.149,6.1239,6.1315,6.0989,6.0562,6.0986,6.1093,6.1286,6.1579,6.1706,6.172,6.1794,6.1895,6.201,6.201,6.201,6.201,6.201,6.201,6.201,6.201,6.201,6.201,6.201,6.201,6.201,6.1996,6.1868,6.1752,6.1594,6.1505,6.0956,6.0927,6.1198,6.1257,6.1895,6.1812,6.0927,6.0328,6.0078,5.9711,5.93,5.8995,5.8961,5.8995,5.8995,5.8995,5.8995,5.8995,5.8995,5.8995,5.8995,5.8995,5.8995,5.8995,5.8995,5.8995,5.8995,5.8995,5.8995,5.8995,5.8995,5.8995,5.8995,5.8995,5.8995,5.8995,5.8995,5.9013,5.9237,6.0099,6.0875,6.1513,6.2289,6.3117,6.3462,6.3582,6.36,6.36,6.36,6.36,6.36,4.9018,4.9103,4.9678,5.0016,5.0287,5.1539,5.2232,5.2452,5.3162,5.3501,5.3501,5.3501,5.3501,5.3501,5.3501,5.3501,5.3501,5.3501,5.3974,5.4634,5.5361,5.6105,5.6833,5.7492,5.7764,5.79,5.7918,5.8209,5.8651,5.9346,5.9982,6.0623,6.0912,6.1075,6.1137,6.0792,6.0127,6.0078,6.0141,5.995,6.0408,6.1078,6.1195,6.1311,6.1476,6.1794,6.178,6.1738,6.1724,6.1752,6.1692,6.1895,6.1982,6.201,6.201,6.201,6.201,6.201,6.201,6.201,6.1604,6.1268,6.106,6.0729,6.0219,6.0141,6.0424,6.0653,6.1286,6.1257,6.0375,5.9886,5.9677,5.9482,5.9098,5.8858,5.8944,5.8995,5.8995,5.8995,5.8995,5.8995,5.8995,5.8995,5.8995,5.8995,5.8995,5.8995,5.8995,5.8995,5.8995,5.8995,5.8995,5.8995,5.8995,5.8995,5.8995,5.8995,5.8995,5.8995,5.9047,5.9288,5.9668,6.034,6.1082,6.1893,6.2514,6.3256,6.3462,6.36,6.36,6.36,6.36,6.36,6.36,4.9018,4.9018,4.9171,4.9543,5.0168,5.1065,5.1725,5.2367,5.3145,5.3501,5.3501,5.3501,5.3501,5.3501,5.3501,5.3501,5.3501,5.3501,5.3957,5.4634,5.5327,5.6071,5.6799,5.7459,5.7798,5.79,5.79,5.7992,5.8388,5.8875,5.918,5.9446,6.0062,6.0046,5.961,5.9414,5.9529,5.9414,5.9463,5.9448,5.9147,5.9756,6.0544,6.0729,6.0819,6.0714,6.0562,6.0408,6.0393,6.0531,6.0971,6.1444,6.1766,6.1969,6.201,6.201,6.201,6.201,6.201,6.1895,6.1472,6.0942,6.0729,6.0421,6.0014,5.9757,5.9774,5.9429,5.9837,5.9949,5.938,5.9297,5.9113,5.9012,5.8754,5.8875,5.8978,5.8995,5.8995,5.8995,5.8995,5.8995,5.8995,5.8995,5.8995,5.8995,5.8995,5.8995,5.8995,5.8995,5.8995,5.8995,5.8995,5.8995,5.8995,5.8995,5.8995,5.8995,5.8995,5.8995,5.9202,5.972,6.0202,6.0754,6.1582,6.2445,6.3032,6.341,6.3479,6.36,6.36,6.36,6.36,6.36,6.36]}]]